     2              OBSERVATION DATA    GPS                 RINEX VERSION / TYPE
teqc 2000Feb29 20030805 03:16:32UTC                         PGM / RUN BY / DATE
                                                            COMMENT
L2: 1 -> 1; 150 -> 5; 250 -> 9                              COMMENT
L2: 1 -> 1; 150 -> 5; 250 -> 9                              COMMENT
L2: 1 -> 1; 150 -> 5; 250 -> 9                              COMMENT
L2: 1 -> 1; 150 -> 5; 250 -> 9                              COMMENT
L2: 1 -> 1; 150 -> 5; 250 -> 9                              COMMENT
Original Marker Name: REFU                                  COMMENT
Campaign Name: USC/SCEC 2003                                COMMENT
4-Character Station Name: REFU                              COMMENT
6-Character Antenna Code: DMRCHT                            COMMENT
Vertical Measurement Point: BCR                             COMMENT
Vertical Offset to Rinex Ref. Point: 0.0348                 COMMENT
Radial Measurement Point: ECF                               COMMENT
Radial Offset to Rinex Ref. Point: 0.1897                   COMMENT
Antenna Height from Field Measurement: 0.7060 m             COMMENT
Additional Antenna Identification Info.:                    COMMENT
Turborogue and Ashtech Choke Ring                           COMMENT
Original XYZ: -2634389.8620 -4553326.4777 3595907.4378      COMMENT
New XYZ position is based on association with SCEC monument COMMENT
E1E9E9M8+0011. Position of that monument is believed to be  COMMENT
valid to within 1 m horizontally; vertical accuracy         COMMENT
should be no worse than 3-times this value.                 COMMENT
                                                            COMMENT
Revised Rinex header created by UCSD GPS archive for        COMMENT
GSAC on 09-Nov-2004 (2004:314) 22:44:40 GMT                 COMMENT
For assistance contact dagnew@ucsd.edu                      COMMENT
or anderson@python.ucsd.edu                                 COMMENT
                                                            COMMENT
REFU 1992                                                   MARKER NAME
KEA UNIV SOUTHERN CALIFORNIA                                OBSERVER / AGENCY
175 ASHTECH Z-XII3 CD00                                     REC # / TYPE / VERS
381 DORNE-MARGOL. TYPE T                                    ANT # / TYPE
 -2634381.0000 -4553316.0000  3595901.0000                  APPROX POSITION XYZ
        0.6452        0.0000        0.0000                  ANTENNA: DELTA H/E/N
     1     1     0                                          WAVELENGTH FACT L1/2
     7    C1    L1    L2    P1    P2    S1    S2            # / TYPES OF OBSERV
     0                                                      INTERVAL
  2003     3    21     0     0   30.000000                  TIME OF FIRST OBS
  2003     3    21    18    12    0.000000                  TIME OF LAST OBS
                                                            END OF HEADER
 03  3 21  0  0 30.0000000  0 10G 6G16G23G17G 2G 3G29G26G15G18
  22816543.516   -14015327.78249 -10866646.90346  22816543.386    22816551.415
       221.000         170.000
  23668131.615    -5562122.90949  -3803706.45345  23668131.444    23668138.209
       216.000         157.000
  20795302.344   -18818903.53049 -14631560.35947  20795302.072    20795308.076
       242.000         212.000
  20894707.041   -24827215.64849 -19331789.08847  20894706.775    20894713.258
       241.000         209.000
  24750419.001    -2334077.10949  -1805351.01245  24750417.353    24750427.587
       208.000         146.000
  23478359.109    -6456824.17149  -5014430.52645  23478358.261    23478365.908
       218.000         161.000
  24606827.888    -3785994.99448  -2934637.73144  24606827.558    24606844.018
       189.000         113.000
  22686368.564    -9762681.04749  -7580224.51546  22686368.764    22686375.884
       221.000         170.000
  20717049.681   -25289088.13249 -19686729.08247  20717049.105    20717055.403
       243.000         209.000
  20401003.247   -22674335.84449 -17623413.27848  20401002.800    20401007.574
       242.000         214.000
 03  3 21  0  1  0.0000000  0 10G 6G16G23G17G 2G 3G29G26G15G18
  22835538.322   -13915509.14749 -10788866.22246  22835538.446    22835546.195
       220.000         169.000
  23676820.620    -5516461.89849  -3768126.45445  23676820.688    23676826.656
       216.000         157.000
  20800680.917   -18790639.00049 -14609536.04247  20800680.499    20800686.781
       243.000         212.000
  20897326.092   -24813452.45449 -19321064.52047  20897325.493    20897332.396
       241.000         209.000
  24751498.876    -2328401.16249  -1800928.19345  24751497.715    24751507.739
       208.000         146.000
  23461506.484    -6545385.00849  -5083438.89245  23461506.117    23461513.310
       219.000         162.000
  24623113.319    -3700415.22448  -2867952.22744  24623109.046    24623118.519
       189.000         111.000
  22700388.784    -9689004.11549  -7522813.94746  22700388.798    22700396.642
       222.000         170.000
  20710633.517   -25322805.50449 -19713002.34247  20710632.887    20710639.204
       244.000         210.000
  20399929.336   -22679978.99849 -17627810.52248  20399928.793    20399933.709
       242.000         214.000
 03  3 21  0  1 30.0000000  0 10G 6G16G23G17G 2G 3G29G26G15G18
  22854579.416   -13815447.37449 -10710896.07846  22854579.434    22854587.154
       219.000         169.000
  23685580.323    -5470429.38949  -3732256.97745  23685580.414    23685587.163
       217.000         156.000
  20806115.553   -18762079.88149 -14587282.18347  20806115.166    20806121.449
       242.000         212.000
  20899988.567   -24799461.10649 -19310162.17147  20899988.069    20899994.796
       240.000         209.000
  24752654.090    -2322330.45549  -1796197.77745  24752653.714    24752663.633
       208.000         147.000
  23444706.495    -6633669.34949  -5152231.82245  23444705.718    23444713.645
       219.000         162.000
  24639454.251    -3614543.31048  -2801039.08744  24639459.217    24639459.874
       185.000         108.000
  22714503.944    -9614828.29649  -7465014.64446  22714504.346    22714511.643
       221.000         170.000
  20704256.681   -25356315.87449 -19739114.29747  20704255.972    20704262.825
       242.000         210.000
  20398929.458   -22685233.37849 -17631904.83348  20398929.135    20398933.860
       242.000         214.000
 03  3 21  0  2  0.0000000  0 10G 6G16G23G17G 2G 3G29G26G15G18
  22873666.049   -13715146.63349 -10632739.71646  22873665.721    22873674.632
       219.000         168.000
  23694409.901    -5424030.02849  -3696101.64145  23694409.662    23694416.509
       217.000         156.000
  20811605.520   -18733229.89349 -14564801.66547  20811605.026    20811611.132
       242.000         212.000
  20902694.168   -24785243.06649 -19299083.17947  20902693.696    20902700.461
       241.000         209.000
  24753883.886    -2315868.14949  -1791162.24145  24753883.643    24753892.461
       208.000         147.000
  23427959.161    -6721676.68449  -5220808.89746  23427959.041    23427966.726
       218.000         163.000
  24655849.898    -3528383.50948  -2733901.64844                  24655843.475
       189.000         106.000
  22728713.225    -9540158.08449  -7406830.08246  22728714.029    22728720.547
       222.000         170.000
  20697919.055   -25389620.21849 -19765065.71347  20697918.239    20697924.894
       243.000         210.000
  20398003.003   -22690101.64949 -17635698.27348  20398002.597    20398007.610
       241.000         214.000
 03  3 21  0  2 30.0000000  0 10G 6G16G23G17G 2G 3G29G26G15G18
  22892797.858   -13614608.08549 -10554398.05746  22892797.606    22892805.851
       219.000         167.000
  23703308.915    -5377265.21849  -3659661.53945  23703308.791    23703314.687
       219.000         155.000
  20817150.719   -18704089.61749 -14542094.94947  20817150.227    20817156.616
       242.000         212.000
  20905443.220   -24770796.30649 -19287825.95847  20905442.823    20905449.457
       241.000         208.000
  24755188.156    -2309014.27449  -1785821.56345  24755188.939    24755196.870
       210.000         148.000
  23411265.174    -6809403.45549  -5289167.34745  23411264.199    23411272.128
       218.000         162.000
  24672300.129    -3441937.20648  -2666540.96844                  24672299.562
       179.000         104.000
  22743016.269    -9464995.07249  -7348261.53846  22743016.617    22743023.659
       222.000         169.000
  20691621.065   -25422716.41249 -19790854.93447  20691620.529    20691626.807
       243.000         210.000
  20397150.070   -22694583.82349 -17639190.86548  20397149.897    20397154.606
       242.000         215.000
 03  3 21  0  3  0.0000000  0 10G 6G16G23G17G 2G 3G29G26G15G18
  22911974.439   -13513834.48149 -10475873.23446  22911973.711    22911982.927
       218.000         166.000
  23712277.092    -5330137.89649  -3622938.97145  23712277.382    23712284.401
       218.000         156.000
  20822750.671   -18674661.39549 -14519163.86547  20822750.230    20822756.643
       241.000         212.000
  20908235.841   -24756120.80549 -19276390.50447  20908235.480    20908242.170
       240.000         208.000
  24756566.725    -2301770.58449  -1780177.13945  24756566.576    24756575.477
       208.000         148.000
  23394624.983    -6896847.64949  -5357305.62145  23394623.889    23394631.958
       218.000         162.000
                  -3355207.30648  -2598959.29244
       176.000         102.000
  22757412.555    -9389342.17149  -7289311.25246  22757412.561    22757420.286
       221.000         168.000
  20685362.693   -25455604.27449 -19816481.82447  20685362.062    20685368.405
       243.000         210.000
  20396370.339   -22698681.47249 -17642383.82248  20396370.197    20396374.853
       242.000         215.000
 03  3 21  0  3 30.0000000  0  9G 6G16G23G17G 2G 3G26G15G18
  22931195.427   -13412827.50049 -10397166.56946  22931195.234    22931203.771
       218.000         166.000
  23721313.691    -5282650.40149  -3585935.72445  23721313.546    23721320.129
       219.000         156.000
  20828405.255   -18644946.28449 -14496009.22247  20828404.855    20828411.318
       242.000         212.000
  20911072.303   -24741215.10349 -19264775.67447  20911071.756    20911078.439
       240.000         208.000
  24758019.202    -2294137.61949  -1774229.36945  24758018.710    24758027.434
       209.000         147.000
  23378039.273    -6984006.00549  -5425221.15246  23378039.580    23378046.383
       216.000         163.000
  22771901.647    -9313201.80749  -7229981.10646  22771901.681    22771908.849
       222.000         167.000
  20679144.244   -25488282.45749 -19841945.33047  20679143.737    20679149.981
       245.000         210.000
  20395663.735   -22702394.92549 -17645277.40848  20395663.406    20395668.295
       242.000         215.000
 03  3 21  0  4  0.0000000  0  9G 6G16G23G17G 2G 3G26G15G18
  22950460.168   -13311590.64549 -10318280.77546  22950460.227    22950468.139
       218.000         165.000
  23730418.132    -5234806.29549  -3548654.60045  23730418.363    23730425.391
       220.000         156.000
  20834113.915   -18614947.18449 -14472633.28547  20834113.623    20834119.765
       243.000         212.000
  20913952.514   -24726079.64049 -19252981.80347  20913951.982    20913958.939
       242.000         208.000
  24759545.473    -2286117.58349  -1767980.01245  24759545.943    24759554.841
       211.000         147.000
  23361508.164    -7070877.23449  -5492912.95046  23361506.925    23361515.194
       219.000         164.000
  22786482.716    -9236577.47549  -7170273.86446  22786482.536    22786489.898
       221.000         167.000
  20672965.684   -25520751.00249 -19867245.46647  20672965.014    20672971.338
       246.000         210.000
  20395029.760   -22705726.32549 -17647873.28848  20395029.435    20395034.308
       243.000         215.000
 03  3 21  0  4 30.0000000  0  9G 6G16G23G17G 2G 3G26G15G18
  22969768.528   -13210125.02549 -10239216.74046  22969768.750    22969777.100
       217.000         165.000
  23739590.187    -5186607.08649  -3511096.79945  23739590.513    23739595.681
       217.000         156.000
  20839876.462   -18584664.71749 -14449036.55447  20839876.054    20839882.216
       242.000         212.000
  20916876.801   -24710712.52849 -19241007.43547  20916876.128    20916882.973
       241.000         208.000
  24761145.263    -2277710.63749  -1761429.12845  24761144.316    24761153.886
       208.000         147.000
  23345032.354    -7157457.86949  -5560378.32246  23345032.220    23345040.042
       219.000         164.000
  22801155.583    -9159470.95949  -7110190.88146  22801155.968    22801163.223
       220.000         166.000
  20666827.345   -25553008.12749 -19892380.87647  20666826.734    20666833.080
       245.000         210.000
  20394468.481   -22708675.76749 -17650171.55048  20394468.193    20394472.910
       241.000         215.000
 03  3 21  0  5  0.0000000  0  9G 6G16G23G17G 2G 3G26G15G18
  22989119.858   -13108433.75949 -10159976.86346  22989119.634    22989128.922
       217.000         165.000
  23748829.066    -5138056.11449  -3473264.87145  23748828.888    23748834.793
       215.000         155.000
  20845692.458   -18554101.62449 -14425221.14847  20845692.178    20845698.158
       242.000         212.000
  20919845.141   -24695113.87449 -19228852.63847  20919844.823    20919851.395
       240.000         207.000
  24762818.276    -2268919.02049  -1754578.52745  24762817.848    24762827.029
       209.000         146.000
  23328612.135    -7243746.53049  -5627616.16846  23328611.988    23328619.762
       220.000         166.000
  22815919.588    -9081885.69449  -7049734.86246  22815919.787    22815927.345
       221.000         166.000
  20660729.197   -25585053.75249 -19917351.48047  20660728.475    20660735.036
       244.000         210.000
  20393979.516   -22711245.22349 -17652173.71448  20393979.142    20393984.036
       240.000         215.000
 03  3 21  0  5 30.0000000  0  9G 6G16G23G17G 2G 3G26G15G18
  23008513.642   -13006518.86649 -10080562.74446  23008513.837    23008521.621
       217.000         165.000
  23758134.438    -5089155.80449  -3435160.76245  23758134.656    23758140.524
       216.000         155.000
  20851561.573   -18523259.30249 -14401188.16147  20851560.945    20851567.361
       242.000         212.000
  20922857.734   -24679282.57749 -19216516.56247  20922857.227    20922863.688
       240.000         207.000
  24764564.417    -2259743.45749  -1747428.75745  24764563.569    24764573.181
       208.000         146.000
  23312248.114    -7329740.17849  -5694624.13546  23312248.236    23312255.645
       221.000         168.000
  22830774.265    -9003824.21649  -6988907.75746  22830774.774    22830782.039
       221.000         166.000
  20654671.597   -25616886.42749 -19942156.14747  20654670.899    20654677.484
       245.000         209.000
  20393562.731   -22713435.31149 -17653880.26248  20393562.460    20393567.157
       241.000         215.000
 03  3 21  0  6  0.0000000  0  9G 6G16G23G17G 2G 3G26G15G18
  23027949.533   -12904382.74149 -10000976.23846  23027950.162    23027957.989
       219.000         165.000
  23767505.754    -5039909.09649  -3396786.71545  23767505.628    23767511.264
       214.000         155.000
  20857483.425   -18492139.54749 -14376938.99947  20857482.865    20857489.001
       241.000         211.000
  20925914.634   -24663218.39849 -19203999.02047  20925914.121    20925920.932
       240.000         207.000
  24766383.241    -2250185.49349  -1739981.00645  24766382.110    24766391.991
       208.000         145.000
  23295940.681    -7415436.32549  -5761400.28746  23295940.576    23295948.048
       220.000         168.000
  22845719.032    -8925289.35049  -6927711.76546  22845719.697    22845727.217
       222.000         165.000
  20648654.638   -25648505.44049 -19966794.32547  20648653.944    20648660.260
       243.000         209.000
  20393217.926   -22715247.18649 -17655292.10148  20393217.609    20393222.282
       240.000         215.000
 03  3 21  0  6 30.0000000  0 10G14G 6G16G23G17G 2G 3G26G15G18
                  -1722545.10849  -1321367.31043
       205.000          74.000
  23047427.216   -12802027.38349  -9921218.89146  23047427.378    23047435.832
       220.000         165.000
  23776942.591    -4990317.91349  -3358144.25045  23776941.566    23776949.693
       214.000         154.000
  20863457.852   -18460743.70549 -14352474.70247  20863457.489    20863463.529
       241.000         211.000
  20929016.108   -24646919.99249 -19191298.96447  20929015.534    20929022.507
       240.000         207.000
  24768274.623    -2240245.93749  -1732235.90345  24768274.730    24768283.205
       207.000         145.000
  23279690.403    -7500832.22249  -5827942.49446  23279690.715    23279696.622
       222.000         168.000
  22860753.452    -8846283.26549  -6866148.59546  22860753.450    22860761.087
       220.000         165.000
  20642678.622   -25679909.40549 -19991264.92547  20642678.061    20642684.653
       243.000         210.000
  20392945.002   -22716681.47149 -17656409.71348  20392944.828    20392949.540
       240.000         215.000
 03  3 21  0  7  0.0000000  0 10G14G 6G16G23G17G 2G 3G26G15G18
                  -1835177.86249  -1409132.94444                  24134041.564
       209.000         129.000
  23066946.029   -12699455.72349  -9841292.98746  23066946.235    23066954.236
       219.000         164.000
  23786444.147    -4940385.86049  -3319236.16545  23786444.057    23786450.725
       213.000         153.000
  20869484.377   -18429074.14649 -14327797.11447  20869483.887    20869490.016
       242.000         211.000
  20932162.245   -24630386.96949 -19178416.08747  20932161.736    20932168.303
       240.000         207.000
  24770238.428    -2229926.55249  -1724194.82545  24770237.981    24770247.390
       211.000         146.000
  23263497.524    -7585926.10949  -5894249.35046  23263497.066    23263504.370
       221.000         168.000
  22875876.851    -8766809.36749  -6804220.89946  22875877.050    22875884.498
       219.000         164.000
  20636743.553   -25711098.29649 -20015567.93247  20636742.740    20636749.197
       244.000         210.000
  20392743.619   -22717739.89849 -17657234.44248  20392743.068    20392748.161
       241.000         216.000
 03  3 21  0  7 30.0000000  0 10G14G 6G16G23G17G 2G 3G26G15G18
  24112610.994    -1947764.62849  -1496862.68045  24112609.168    24112616.687
       208.000         139.000
  23086505.728   -12596669.11349  -9761199.58946  23086506.374    23086514.804
       219.000         165.000
  23796010.455    -4890114.45649  -3280063.65045  23796010.015    23796016.920
       214.000         153.000
  20875562.853   -18397131.63149 -14302906.83847  20875562.449    20875568.548
       241.000         211.000
  20935353.249   -24613618.18149 -19165349.50547  20935352.937    20935359.698
       239.000         207.000
  24772274.471    -2219227.84249  -1715858.16445  24772273.632    24772283.127
       207.000         147.000
  23247362.804    -7670714.51949  -5960318.19046  23247362.686    23247369.898
       219.000         167.000
  22891088.899    -8686869.50449  -6741930.15046  22891088.969    22891096.049
       219.000         165.000
  20630849.805   -25742070.05349 -20039701.75747  20630849.120    20630855.664
       244.000         210.000
  20392613.649   -22718422.65949 -17657766.46348  20392613.228    20392618.222
       241.000         216.000
 03  3 21  0  8  0.0000000  0 10G14G 6G16G23G17G 2G 3G26G15G18
  24091194.789    -2060304.45749  -1584555.86445  24091193.074    24091201.716
       205.000         142.000
  23106105.604   -12493671.59349  -9680941.86546  23106106.445    23106114.294
       219.000         164.000
  23805640.554    -4839508.28649  -3240630.28945  23805640.878    23805647.806
       211.000         153.000
  20881692.557   -18364919.72949 -14277806.65247  20881692.185    20881698.351
       241.000         211.000
  20938588.973   -24596614.22849 -19152099.67447  20938588.537    20938595.028
       241.000         207.000
  24774381.940    -2208153.09349  -1707228.48245  24774381.443    24774389.433
       208.000         146.000
  23231286.230    -7755196.95649  -6026148.60346  23231286.135    23231292.769
       221.000         167.000
  22906388.801    -8606468.10949  -6679279.74346  22906389.327    22906396.433
       220.000         166.000
  20624997.269   -25772825.35549 -20063666.91347  20624996.602    20625003.027
       244.000         210.000
  20392554.628   -22718732.78649 -17658008.10848  20392554.468    20392559.012
       241.000         216.000
 03  3 21  0  8 30.0000000  0 10G14G 6G16G23G17G 2G 3G26G15G18
  24069788.427    -2172793.17949  -1672209.23445  24069787.713    24069795.242
       206.000         142.000
  23125745.412   -12390464.26949  -9600520.64346  23125746.329    23125753.073
       219.000         164.000
  23815334.017    -4788568.56649  -3200937.01045  23815333.618    23815341.481
       211.000         153.000
  20887873.445   -18332438.92449 -14252496.92947  20887873.186    20887879.213
       243.000         211.000
  20941869.920   -24579372.82949 -19138664.81747  20941869.376    20941876.053
       241.000         206.000
  24776561.076    -2196701.92449  -1698305.51145  24776560.004    24776568.533
       208.000         145.000
  23215268.628    -7839369.56249  -6091737.58846  23215268.194    23215276.303
       221.000         168.000
  22921776.255    -8525606.80749  -6616270.96846  22921776.774    22921783.674
       219.000         166.000
  20619186.368   -25803361.80749 -20087461.53447  20619185.665    20619192.181
       246.000         210.000
  20392566.608   -22718669.91149 -17657959.09448  20392566.130    20392570.862
       242.000         215.000
 03  3 21  0  9  0.0000000  0 10G14G 6G16G23G17G 2G 3G26G15G18
  24048392.617    -2285227.40049  -1759820.13645  24048391.975    24048397.635
       207.000         141.000
  23145424.767   -12287048.63349  -9519937.09846  23145424.376    23145433.281
       218.000         164.000
  23825090.436    -4737297.42749  -3160985.48445  23825089.824    23825098.829
       213.000         153.000
  20894105.330   -18299690.19749 -14226978.43947  20894104.822    20894111.216
       241.000         211.000
  20945196.271   -24561892.67549 -19125043.91847  20945195.603    20945202.494
       240.000         207.000
  24778811.654    -2184875.03949  -1689089.76145  24778810.696    24778819.096
       207.000         143.000
  23199310.657    -7923229.05049  -6157082.57846  23199311.291    23199317.706
       221.000         170.000
  22937250.856    -8444287.41249  -6552905.24746  22937251.791    22937257.825
       221.000         166.000
  20613417.382   -25833677.98749 -20111084.52047  20613416.878    20613423.379
       245.000         211.000
  20392649.503   -22718234.27649 -17657619.62748  20392649.293    20392654.070
       241.000         215.000
 03  3 21  0  9 30.0000000  0 10G14G 6G16G23G17G 2G 3G26G15G18
  24027007.601    -2397605.16149  -1847387.04945  24027007.299    24027013.622
       206.000         141.000
  23165143.160   -12183427.88949  -9439193.73246  23165143.585    23165152.059
       218.000         163.000
  23834909.435    -4685698.20649  -3120778.30845  23834910.275    23834916.180
       212.000         153.000
  20900387.679   -18266675.95949 -14201253.06647  20900387.153    20900393.537
       241.000         211.000
  20948568.026   -24544174.20549 -19111237.32647  20948567.638    20948574.386
       241.000         207.000
  24781133.316    -2172674.40449  -1679582.75945  24781132.529    24781139.643
       207.000         142.000
  23183412.664    -8006773.69649  -6222182.24246  23183412.248    23183419.186
       222.000         171.000
  22952811.936    -8362513.52149  -6489185.36546  22952812.399    22952818.600
       220.000         167.000
  20607690.423   -25863773.34449 -20134535.43447  20607690.033    20607696.197
       245.000         211.000
  20392803.005   -22717427.54949 -17656990.99648  20392802.577    20392807.446
       240.000         215.000
 03  3 21  0 10  0.0000000  0 10G14G 6G16G23G17G 2G 3G26G15G18
  24005633.928    -2509923.99049  -1934908.03445  24005632.157    24005640.812
       208.000         141.000
  23184900.178   -12079604.34649  -9358292.35346  23184900.118    23184908.944
       218.000         163.000
  23844790.334    -4633773.48449  -3080317.50445  23844789.456    23844797.252
       209.000         152.000
  20906720.284   -18233397.84249 -14175322.06247  20906719.969    20906726.079
       242.000         211.000
  20951985.360   -24526216.23649 -19097244.10447  20951984.733    20951991.496
       241.000         207.000
  24783525.663    -2160101.64549  -1669785.77245  24783525.173    24783533.491
       206.000         142.000
  23167575.056    -8090000.94749  -6287034.58646  23167574.332    23167582.034
       222.000         171.000
  22968458.991    -8280288.05549  -6425113.60746  22968459.107    22968466.176
       221.000         167.000
  20602005.653   -25893647.18649 -20157813.72747  20602004.949    20602011.199
       245.000         211.000
  20393026.829   -22716251.10149 -17656074.27248  20393026.342    20393031.244
       241.000         215.000
 03  3 21  0 10 30.0000000  0 10G14G 6G16G23G17G 2G 3G26G15G18
  23984272.075    -2622180.44449  -2022380.41345  23984270.415    23984278.033
       208.000         141.000
  23204695.477   -11975579.72849  -9277234.27945  23204695.743    23204703.913
       216.000         162.000
  23854732.632    -4581525.62849  -3039604.90845  23854732.312    23854739.442
       210.000         152.000
  20913102.884   -18199857.11949 -14149186.43647  20913102.550    20913108.402
       240.000         210.000
  20955448.517   -24508017.48049 -19083063.26547  20955448.115    20955454.799
       240.000         207.000
  24785988.755    -2147157.76849  -1659699.64045  24785988.417    24785995.857
       205.000         142.000
  23151798.375    -8172907.96249  -6351637.40346  23151798.114    23151804.891
       223.000         172.000
  22984191.565    -8197613.16249  -6360691.66146  22984192.545    22984199.192
       221.000         167.000
  20596363.265   -25923298.12049 -20180918.33547  20596362.735    20596368.934
       245.000         211.000
  20393320.921   -22714705.64949 -17654870.01648  20393320.528    20393325.494
       240.000         215.000
 03  3 21  0 11  0.0000000  0 10G14G 6G16G23G17G 2G 3G26G15G18
  23962922.455    -2734372.29749  -2109802.46245  23962921.714    23962928.325
       206.000         140.000
  23224528.454   -11871356.96749  -9196021.81645  23224528.364    23224537.207
       217.000         161.000
  23864735.872    -4528957.85849  -2998643.05045  23864734.918    23864743.215
       207.000         152.000
  20919534.994   -18166055.98449 -14122847.88647  20919534.538    20919540.601
       241.000         210.000
  20958957.469   -24489577.54349 -19068694.48947  20958957.066    20958963.896
       240.000         207.000
  24788522.173    -2133844.42749  -1649325.60545  24788521.634    24788529.066
       205.000         142.000
  23136082.976    -8255492.65849  -6415989.06446  23136082.783    23136089.820
       222.000         172.000
  23000009.018    -8114492.21449  -6295922.12946  23000009.055    23000016.172
       220.000         167.000
  20590763.460   -25952725.49549 -20203848.74147  20590762.911    20590769.206
       245.000         211.000
  20393684.922   -22712792.56149 -17653379.29248  20393684.776    20393689.706
       241.000         215.000
 03  3 21  0 11 30.0000000  0 10G14G 6G16G23G17G 2G 3G26G15G18
  23941585.626    -2846496.53249  -2197171.80445  23941584.586    23941591.326
       208.000         141.000
  23244398.873   -11766937.99249  -9114656.46445  23244398.578    23244407.246
       217.000         160.000
  23874799.515    -4476072.51349  -2957433.70745  23874798.351    23874807.505
       208.000         151.000
  20926016.413   -18131995.85049 -14096307.51747  20926016.021    20926022.250
       241.000         209.000
  20962512.497   -24470895.66349 -19054137.18547  20962512.275    20962518.907
       240.000         207.000
  24791125.713    -2120162.87649  -1638664.64745  24791124.462    24791133.921
       205.000         142.000
  23120429.432    -8337752.35349  -6480087.45946  23120428.970    23120435.743
       223.000         172.000
  23015910.827    -8030927.80749  -6230807.05846  23015911.546    23015918.316
       220.000         166.000
  20585206.418   -25981927.85149 -20226603.81247  20585205.988    20585211.866
       246.000         211.000
  20394118.806   -22710512.74149 -17651602.80048  20394118.575    20394123.473
       241.000         216.000
 03  3 21  0 12  0.0000000  0 10G14G 6G16G23G17G 2G 3G26G15G18
  23920262.222    -2958550.86749  -2284486.69145  23920260.618    23920267.314
       207.000         142.000
  23264306.061   -11662325.76349  -9033140.51645  23264306.146    23264315.249
       214.000         159.000
  23884923.017    -4422873.03749  -2915979.61045  23884922.822    23884930.129
       210.000         150.000
  20932546.665   -18097678.97149 -14069567.08447  20932546.370    20932552.408
       241.000         209.000
  20966113.631   -24451971.58549 -19039391.15547  20966113.172    20966119.923
       240.000         207.000
  24793798.914    -2106114.84749  -1627718.12845  24793797.681    24793807.033
       206.000         143.000
  23104838.062    -8419685.34649  -6543931.30746  23104837.484    23104844.885
       223.000         173.000
  23031896.432    -7946923.12349  -6165348.90946  23031896.930    23031903.791
       222.000         166.000
  20579692.252   -26010904.94449 -20249183.35047  20579691.666    20579697.704
       245.000         211.000
  20394622.059   -22707868.14349 -17649542.06448  20394621.807    20394626.542
       241.000         216.000
 03  3 21  0 12 30.0000000  0 10G14G 6G16G23G17G 2G 3G26G15G18
  23898952.703    -3070532.61949  -2371745.01545  23898952.060    23898960.053
       207.000         142.000
  23284249.508   -11557522.35749  -8951475.61045  23284249.989    23284258.570
       215.000         158.000
  23895105.833    -4369362.06449  -2874282.74845  23895105.123    23895113.317
       209.000         150.000
  20939125.491   -18063107.00749 -14042627.89147  20939125.165    20939131.413
       241.000         209.000
  20969761.123   -24432804.02549 -19024455.39947  20969760.897    20969767.225
       241.000         207.000
  24796541.565    -2091701.76149  -1616487.14245  24796541.052    24796550.704
       203.000         143.000
  23089309.433    -8501288.91249  -6607518.44446  23089309.823    23089315.981
       225.000         173.000
  23047965.323    -7862480.91549  -6099549.82046  23047965.775    23047972.505
       219.000         165.000
  20574221.200   -26039655.54049 -20271586.39947  20574220.514    20574226.701
       245.000         211.000
  20395194.592   -22704859.38849 -17647197.57048  20395194.081    20395199.052
       240.000         216.000
 03  3 21  0 13  0.0000000  0 10G14G 6G16G23G17G 2G 3G26G15G18
  23877657.425    -3182439.12649  -2458944.73345  23877656.842    23877664.174
       211.000         142.000
  23304228.797   -11452530.47149  -8869663.83045  23304228.698    23304237.202
       216.000         158.000
  23905347.385    -4315542.37849  -2832345.35545  23905347.652    23905355.080
       210.000         149.000
  20945752.483   -18028281.94949 -14015491.48147  20945752.078    20945758.170
       241.000         209.000
  20973455.015   -24413392.51749 -19009329.55047  20973454.400    20973461.254
       240.000         207.000
  24799353.309    -2076925.18649  -1604972.92545  24799353.075    24799361.143
       204.000         142.000
  23073843.984    -8582560.65349  -6670847.02546  23073843.291    23073850.365
       224.000         173.000
  23064116.780    -7777604.35049  -6033412.28146  23064117.034    23064124.865
       220.000         164.000
  20568793.369   -26068178.86249 -20293812.34947  20568792.981    20568798.797
       245.000         211.000
  20395836.123   -22701487.97049 -17644570.48648  20395835.877    20395840.515
       241.000         216.000
 03  3 21  0 13 30.0000000  0 10G14G 6G16G23G17G 2G 3G26G15G18
  23856377.085    -3294267.57849  -2546083.59645  23856376.884    23856383.549
       212.000         142.000
  23324243.572   -11347352.28049  -8787706.87445  23324243.742    23324251.357
       216.000         157.000
  23915647.320    -4261416.63449  -2790169.48045  23915647.712    23915655.080
       211.000         150.000
  20952427.324   -17993205.37249 -13988159.08247  20952426.867    20952433.082
       241.000         209.000
  20977195.402   -24393736.46049 -18994013.14047  20977194.401    20977201.858
       240.000         207.000
  24802234.216    -2061786.50049  -1593176.53845  24802233.331    24802242.988
       204.000         143.000
  23058442.012    -8663498.39749  -6733915.33446  23058441.993    23058448.434
       224.000         174.000
  23080350.482    -7692296.17449  -5966938.42446  23080350.406    23080357.879
       220.000         164.000
  20563409.058   -26096473.65849 -20315860.21847  20563408.529    20563414.712
       246.000         211.000
  20396546.463   -22697755.10349 -17641661.74048  20396545.905    20396551.089
       241.000         215.000
 03  3 21  0 14  0.0000000  0 10G14G 6G16G23G17G 2G 3G26G15G18
  23835112.294    -3406014.62549  -2633159.06745  23835111.616    23835118.391
       211.000         142.000
  23344293.596   -11241989.44049  -8705606.05345  23344294.401    23344301.359
       215.000         157.000
  23926004.989    -4206986.92449  -2747756.72545  23926004.702    23926012.495
       210.000         150.000
  20959149.830   -17957878.35749 -13960631.53647  20959149.623    20959155.774
       241.000         209.000
  20980982.675   -24373834.19849 -18978504.88947  20980982.188    20980989.146
       240.000         207.000
  24805183.892    -2046286.49649  -1581098.63045  24805183.499    24805192.864
       204.000         143.000
  23043104.264    -8744098.69249  -6796720.71046  23043103.981    23043111.061
       224.000         174.000
  23096665.804    -7606558.46449  -5900129.84946  23096666.790    23096673.278
       219.000         163.000
  20558068.514   -26124538.24349 -20337728.71047  20558067.756    20558074.060
       245.000         211.000
  20397325.500   -22693660.98849 -17638471.51648  20397325.246    20397330.008
       241.000         215.000
 03  3 21  0 14 30.0000000  0 10G14G 6G16G23G17G 2G 3G26G15G18
  23813863.228    -3517678.62049  -2720169.79745  23813861.247    23813869.761
       209.000         143.000
  23364377.951   -11136445.50849  -8623364.10645  23364378.547    23364385.817
       218.000         156.000
  23936419.704    -4152257.19749  -2705110.20945  23936419.432    23936427.687
       212.000         149.000
  20965919.451   -17922303.58349 -13932910.93447  20965918.996    20965925.166
       241.000         209.000
  20984816.739   -24353686.27249 -18962805.21247  20984816.234    20984822.894
       241.000         207.000
  24808201.585    -2030427.75549  -1568741.15345  24808200.340    24808209.786
       206.000         143.000
  23027831.029    -8824360.00449  -6859261.93946  23027830.575    23027837.793
       225.000         174.000
  23113062.160    -7520395.25549  -5832989.73346  23113062.890    23113068.762
       220.000         163.000
  20552771.726   -26152372.88049 -20359418.01947  20552771.053    20552777.189
       246.000         211.000
  20398172.890   -22689207.91149 -17635001.57448  20398172.519    20398177.538
       241.000         216.000
 03  3 21  0 15  0.0000000  0 10G14G 6G16G23G17G 2G 3G26G15G18
  23792630.574    -3629255.85649  -2807112.94945  23792630.575    23792637.346
       209.000         144.000
  23384496.504   -11030721.94449  -8540982.19145  23384496.390    23384505.319
       215.000         157.000
  23946891.223    -4097229.13949  -2662231.21445  23946890.942    23946898.455
       211.000         148.000
  20972736.099   -17886481.89949 -13904997.94047  20972735.647    20972741.870
       240.000         209.000
  20988697.893   -24333290.72049 -18946912.58647  20988697.617    20988704.045
       240.000         206.000
  24811287.631    -2014211.08449  -1556104.79845  24811288.023    24811295.878
       209.000         143.000
  23012622.929    -8904279.02549  -6921536.46546  23012622.613    23012630.245
       224.000         174.000
  23129539.181    -7433808.32849  -5765519.43346  23129539.273    23129546.757
       218.000         163.000
  20547519.114   -26179975.52749 -20380926.56447  20547518.689    20547524.957
       245.000         211.000
  20399088.567   -22684396.10749 -17631252.11048  20399088.205    20399093.043
       241.000         215.000
 03  3 21  0 15 30.0000000  0 10G14G 6G16G23G17G 2G 3G26G15G18
  23771414.873    -3740744.25549  -2893986.85645  23771414.382    23771421.363
       212.000         144.000
  23404648.757   -10924821.67249  -8458462.59145  23404648.619    23404657.256
       215.000         156.000
  23957418.733    -4041906.42749  -2619122.62545  23957418.694    23957425.351
       210.000         147.000
  20979599.345   -17850415.51549 -13876894.25747  20979599.096    20979605.212
       241.000         209.000
  20992626.112   -24312647.87549 -18930827.25347  20992625.498    20992632.276
       239.000         206.000
  24814441.432    -1997638.56049  -1543191.16545  24814441.300    24814449.016
       209.000         144.000
  22997480.168    -8983854.25549  -6983543.08646  22997479.676    22997487.448
       224.000         174.000
  23146096.059    -7346801.20949  -5697721.72646  23146096.871    23146103.612
       219.000         163.000
  20542310.755   -26207345.64149 -20402253.90547  20542310.005    20542316.394
       244.000         211.000
  20400072.120   -22679227.40449 -17627224.53748  20400071.704    20400076.592
       240.000         215.000
 03  3 21  0 16  0.0000000  0 10G14G 6G16G23G17G 2G 3G26G15G18
  23750216.624    -3852140.69349  -2980789.13845  23750215.848    23750222.486
       212.000         144.000
  23424834.254   -10818746.61349  -8375806.77145  23424834.485    23424843.206
       214.000         156.000
  23968001.986    -3986291.40149  -2575786.24745  23968002.297    23968009.151
       212.000         148.000
  20986508.835   -17814105.96449 -13848601.10147  20986508.323    20986514.504
       242.000         210.000
  20996601.654   -24291756.23949 -18914548.05947  20996600.956    20996607.758
       240.000         206.000
  24817662.496    -1980711.59149  -1530001.32845  24817661.071    24817670.112
       206.000         142.000
  22982403.287    -9063083.00949  -7045279.72746  22982402.993    22982409.558
       224.000         173.000
  23162732.369    -7259376.71049  -5629598.76145  23162732.984    23162739.702
       218.000         162.000
  20537146.874   -26234481.82349 -20423398.97047  20537146.140    20537152.437
       246.000         211.000
  20401123.388   -22673702.84949 -17622919.67848  20401123.016    20401127.824
       242.000         215.000
 03  3 21  0 16 30.0000000  0 10G14G 6G16G23G17G 2G 3G26G15G18
  23729036.480    -3963442.03549  -3067517.29645  23729035.720    23729042.892
       213.000         145.000
  23445052.546   -10712498.81449  -8293016.36545  23445051.948    23445060.872
       212.000         155.000
  23978640.501    -3930386.82149  -2532224.26445  23978640.193    23978647.396
       212.000         149.000
  20993464.341   -17777554.62249 -13820119.54247  20993464.107    20993470.189
       241.000         210.000
  21000624.742   -24270614.62749 -18898074.08047  21000624.290    21000631.016
       239.000         205.000
  24820950.622    -1963431.05049  -1516535.97545  24820949.824    24820958.461
       207.000         142.000
  22967392.870    -9141962.33749  -7106744.09046  22967392.685    22967399.777
       223.000         173.000
  23179447.581    -7171537.21149  -5561152.44545  23179447.462    23179454.367
       214.000         160.000
  20532027.729   -26261382.87249 -20444360.82047  20532027.243    20532033.178
       245.000         211.000
  20402242.287   -22667823.01049 -17618337.97848  20402241.752    20402246.807
       240.000         215.000
 03  3 21  0 17  0.0000000  0 10G14G 6G16G23G17G 2G 3G26G15G18
  23707874.977    -4074645.86749  -3154169.48945  23707874.450    23707881.810
       212.000         145.000
  23465303.065   -10606081.11649  -8210093.58245  23465302.569    23465311.752
       212.000         154.000
  23989333.429    -3874195.51749  -2488438.84545  23989333.340    23989341.245
       214.000         150.000
  21000465.465   -17740763.50749 -13791451.14347  21000464.981    21000471.289
       241.000         210.000
  21004695.431   -24249222.88249 -18881405.19147  21004695.112    21004701.452
       239.000         205.000
  24824305.904    -1945798.95649  -1502796.66845  24824305.911    24824312.895
       207.000         141.000
  22952449.382    -9220490.21849  -7167934.59346  22952448.990    22952456.338
       223.000         172.000
  23196241.162    -7083286.04149  -5492385.34045  23196241.056    23196248.604
       215.000         159.000
  20526953.525   -26288047.93949 -20465138.78347  20526953.106    20526959.100
       243.000         211.000
  20403428.450   -22661589.63149 -17613480.79548  20403428.181    20403432.959
       241.000         215.000
 03  3 21  0 17 30.0000000  0 10G14G 6G16G23G17G 2G 3G26G15G18
  23686732.476    -4185749.78949  -3240743.84045  23686732.306    23686738.297
       211.000         146.000
  23485585.512   -10499496.09349  -8127040.40845  23485585.657    23485594.115
       213.000         153.000
  24000080.345    -3817720.76149  -2444432.56345  24000080.060    24000086.935
       215.000         150.000
  21007511.838   -17703734.67449 -13762597.50647  21007511.452    21007517.540
       241.000         210.000
  21008813.911   -24227580.10549 -18864540.69247  21008813.541    21008820.131
       239.000         205.000
  24827727.856    -1927816.98149  -1488784.76045  24827727.202    24827735.433
       204.000         142.000
  22937573.243    -9298664.47449  -7228849.55446  22937573.109    22937579.559
       223.000         172.000
  23213112.544    -6994626.35149  -5423299.91345  23213112.776    23213120.938
       213.000         158.000
  20521924.383   -26314476.24649 -20485732.25847  20521923.908    20521930.168
       244.000         212.000
  20404681.625   -22655004.18249 -17608349.27048  20404681.433    20404686.013
       240.000         215.000
 03  3 21  0 18  0.0000000  0 10G14G 6G16G23G17G 2G 3G26G15G18
  23665609.425    -4296751.62749  -3327238.63245  23665609.200    23665615.913
       214.000         146.000
  23505899.402   -10392746.24849  -8043858.79945  23505899.534    23505908.484
       211.000         153.000
  24010880.625    -3760965.39649  -2400207.61845  24010879.904    24010886.804
       213.000         149.000
  21014603.097   -17666469.86149 -13733559.98447  21014602.803    21014608.887
       242.000         210.000
  21012980.145   -24205686.37949 -18847480.64047  21012979.367    21012986.270
       239.000         205.000
  24831215.889    -1909486.91649  -1474501.58945  24831215.018    24831224.535
       204.000         142.000
  22922764.820    -9376482.82649  -7289487.17246  22922764.650    22922771.758
       222.000         173.000
  23230061.066    -6905561.27149  -5353898.59145  23230061.243    23230069.043
       213.000         157.000
  20516940.470   -26340667.00149 -20506140.62247  20516939.978    20516946.083
       244.000         212.000
  20406001.530   -22648068.08749 -17602944.51448  20406001.269    20406006.011
       241.000         215.000
 03  3 21  0 18 30.0000000  0 10G14G 6G16G23G17G 2G 3G26G15G18
  23644506.640    -4407647.79749  -3413651.11845  23644506.449    23644513.109
       213.000         148.000
  23526244.247   -10285833.51049  -7960550.27145  23526244.860    23526254.022
       212.000         153.000
  24021733.666    -3703931.90749  -2355765.96145  24021733.140    24021740.021
       214.000         149.000
  21021739.047   -17628970.32949 -13704339.56747  21021738.613    21021744.590
       242.000         210.000
  21017194.382   -24183540.15949 -18830223.84447  21017193.939    21017200.704
       239.000         205.000
  24834770.021    -1890810.05649  -1459948.20245  24834769.387    24834778.558
       207.000         142.000
  22908024.704    -9453942.44649  -7349845.26846  22908023.495    22908032.065
       222.000         173.000
  23247086.235    -6816093.20149  -5284183.25945  23247086.817    23247094.050
       212.000         156.000
  20512002.036   -26366618.63149 -20526362.65747  20512001.497    20512007.729
       244.000         212.000
  20407388.008   -22640782.04749 -17597267.07348  20407387.510    20407392.451
       240.000         215.000
 03  3 21  0 19  0.0000000  0 10G14G 6G16G23G17G 2G 3G26G15G18
  23623424.483    -4518435.69449  -3499979.21045  23623423.964    23623430.440
       215.000         149.000
  23546619.548   -10178760.67549  -7877116.98645  23546620.074    23546628.946
       212.000         152.000
  24032639.035    -3646623.50149  -2311110.07345  24032639.110    24032644.274
       213.000         149.000
  21028919.222   -17591238.20149 -13674937.91047  21028918.792    21028925.048
       240.000         210.000
  21021456.855   -24161140.76349 -18812769.77347  21021456.389    21021463.161
       240.000         205.000
  24838389.589    -1871788.51949  -1445126.22045  24838389.321    24838397.633
       203.000         140.000
  22893353.159    -9531041.23649  -7409922.20646  22893353.091    22893359.728
       223.000         173.000
  23264187.522    -6726225.53049  -5214156.54445  23264187.938    23264195.308
       211.000         155.000
  20507109.245   -26392330.38749 -20546397.77447  20507108.494    20507114.838
       244.000         212.000
  20408840.798   -22633147.44549 -17591318.03048  20408840.454    20408845.302
       240.000         215.000
 03  3 21  0 19 30.0000000  0 10G14G 6G16G23G17G 2G 3G26G15G18
  23602363.350    -4629112.67949  -3586220.89245  23602362.524    23602369.060
       219.000         150.000
  23567024.948   -10071530.07449  -7793560.76445  23567025.778    23567034.621
       214.000         152.000
  24043596.374    -3589042.74249  -2266241.97845  24043598.263    24043604.368
       214.000         148.000
  21036143.378   -17553275.06549 -13645356.24147  21036143.131    21036149.070
       243.000         210.000
  21025767.705   -24138487.32449 -18795117.73747  21025767.014    21025773.908
       241.000         205.000
  24842074.467    -1852423.67249  -1430036.76745  24842074.730    24842082.748
       207.000         141.000
  22878750.826    -9607776.88749  -7469716.17446  22878750.800    22878757.236
       224.000         173.000
  23281364.328    -6635961.05149  -5143820.63145  23281364.787    23281371.585
       213.000         154.000
  20502262.243   -26417801.32749 -20566245.24547  20502261.510    20502267.840
       246.000         212.000
  20410359.615   -22625165.79349 -17585098.55248  20410359.322    20410363.991
       242.000         215.000
 03  3 21  0 20  0.0000000  0  9G14G 6G16G23G17G 3G26G15G18
  23581323.852    -4739676.29549  -3672374.25145  23581323.719    23581329.644
       217.000         151.000
  23587459.987    -9964144.11049  -7709883.48945  23587460.441    23587469.826
       212.000         151.000
  24054604.930    -3531192.91749  -2221164.21145  24054604.454    24054611.711
       212.000         148.000
  21043411.121   -17515082.90749 -13615596.11847  21043410.670    21043416.603
       241.000         209.000
  21030126.942   -24115579.24649 -18777267.29047  21030126.416    21030133.206
       239.000         205.000
  22864218.009    -9684147.13149  -7529225.40946  22864217.522    22864224.130
       224.000         173.000
  23298616.079    -6545302.75149  -5073177.84045  23298617.123    23298623.465
       212.000         153.000
  20497461.293   -26443030.48349 -20585904.31947  20497460.663    20497466.977
       244.000         212.000
  20411944.312   -22616838.20249 -17578609.51248  20411943.965    20411948.849
       241.000         215.000
 03  3 21  0 20 30.0000000  0  9G14G 6G16G23G17G 3G26G15G18
  23560306.316    -4850123.69249  -3758437.02945  23560305.660    23560311.510
       215.000         151.000
  23607924.004    -9856605.33849  -7626087.14445  23607925.173    23607934.420
       212.000         151.000
  24065664.135    -3473076.71649  -2175878.87945  24065664.307    24065671.443
       212.000         149.000
  21050722.069   -17476663.32349 -13585658.77647  21050721.499    21050727.873
       242.000         209.000
  21034534.804   -24092415.94249 -18759217.96147  21034534.085    21034541.045
       239.000         205.000
  22849755.103    -9760149.73249  -7588448.16846  22849754.784    22849761.295
       224.000         173.000
  23315942.230    -6454253.91649  -5002230.72645  23315942.459    23315950.048
       213.000         153.000
  20492706.549   -26468016.69249 -20605374.07547  20492705.715    20492712.241
       243.000         212.000
  20413594.597   -22608165.99449 -17571851.93748  20413593.993    20413599.082
       241.000         215.000
 03  3 21  0 21  0.0000000  0  9G14G 6G16G23G17G 3G26G15G18
  23539311.492    -4960451.55549  -3844406.69145  23539310.564    23539317.428
       215.000         151.000
  23628416.796    -9748915.50249  -7542173.07645  23628417.667    23628426.969
       211.000         150.000
  24076773.486    -3414696.78249  -2130388.04045  24076773.057    24076780.330
       210.000         148.000
  21058076.157   -17438017.37349 -13555545.05647  21058075.857    21058081.871
       242.000         209.000
  21038991.529   -24068995.84449 -18740968.53947  21038991.279    21038998.018
       240.000         206.000
  22835362.779    -9835781.64749  -7647382.08346  22835362.378    22835369.443
       224.000         173.000
  23333342.173    -6362816.82049  -4930981.09145  23333342.563    23333350.010
       212.000         153.000
  20487998.319   -26492758.49249 -20624653.38347  20487997.654    20488003.782
       243.000         212.000
  20415310.293   -22599149.76549 -17564826.30348  20415309.915    20415314.653
       240.000         215.000
 03  3 21  0 21 30.0000000  0  9G14G 6G16G23G17G 3G26G15G18
  23518339.884    -5070657.67449  -3930281.47045  23518338.763    23518344.681
       216.000         151.000
  23648937.860    -9641077.54049  -7458143.58345  23648938.371    23648946.911
       213.000         149.000
  24087932.306    -3356056.46049  -2084694.30545  24087930.882    24087939.236
       209.000         147.000
  21065472.875   -17399147.28849 -13525256.68347  21065472.187    21065478.663
       242.000         209.000
  21043497.019   -24045319.37449 -18722519.34447  21043496.530    21043503.330
       241.000         206.000
  22821041.377    -9911041.19049  -7706025.83746  22821041.112    22821047.965
       226.000         174.000
  23350815.357    -6270994.83549  -4859431.53145  23350815.757    23350823.568
       214.000         154.000
  20483336.694   -26517255.04949 -20643741.59147  20483335.762    20483342.270
       244.000         211.000
  20417091.076   -22589791.47649 -17557534.12348  20417090.562    20417095.536
       241.000         215.000
 03  3 21  0 22  0.0000000  0  9G14G 6G16G23G17G 3G26G15G18
  23497391.999    -5180738.76549  -4016058.81145  23497390.435    23497397.204
       215.000         151.000
  23669486.640    -9533093.60849  -7374000.35245  23669486.955    23669496.286
       210.000         148.000
  24099140.240    -3297157.97049  -2038799.40045  24099140.062    24099146.425
       210.000         146.000
  21072912.022   -17360054.37049 -13494794.67447  21072911.627    21072917.770
       240.000         209.000
  21048051.595   -24021385.22749 -18703869.36547  21048051.097    21048057.902
       239.000         206.000
  22806791.559    -9985925.11749  -7764376.91546  22806791.527    22806797.565
       226.000         175.000
  23368361.366    -6178790.65249  -4787584.16745  23368362.070    23368369.204
       210.000         153.000
  20478721.984   -26541505.17649 -20662637.78447  20478721.146    20478727.791
       243.000         211.000
  20418936.863   -22580091.83049 -17549975.95648  20418936.714    20418941.352
       241.000         215.000
 03  3 21  0 22 30.0000000  0  9G14G 6G16G23G17G 3G26G15G18
  23476468.213    -5290692.88649  -4101737.23845  23476467.230    23476472.624
       216.000         151.000
  23690062.451    -9424966.86249  -7289745.81745  23690062.671    23690072.447
       209.000         147.000
  24110396.700    -3238004.84449  -1992706.07945  24110397.089    24110403.212
       211.000         145.000
  21080393.131   -17320740.96349 -13464160.84747  21080392.708    21080398.890
       241.000         209.000
  21052655.262   -23997192.77849 -18685018.11547  21052654.591    21052661.480
       239.000         205.000
  22792613.430   -10060432.09049  -7822434.25646  22792613.562    22792619.504
       225.000         176.000
  23385979.240    -6086208.05449  -4715441.94745  23385978.864    23385986.557
       208.000         152.000
  20474154.289   -26565508.39249 -20681341.57647  20474153.688    20474160.217
       243.000         212.000
  20420847.302   -22570052.43949 -17542153.04748  20420846.872    20420851.956
       240.000         215.000
 03  3 21  0 23  0.0000000  0  9G14G 6G16G23G17G 3G26G15G18
  23455569.254    -5400516.13949  -4187313.67845  23455568.878    23455574.514
       216.000         150.000
  23710665.310    -9316698.45749  -7205380.92545  23710665.788    23710674.863
       208.000         147.000
  24121701.136    -3178599.14949  -1946415.95145  24121701.544    24121709.209
       210.000         145.000
  21087916.005   -17281207.82349 -13433355.80447  21087915.640    21087921.505
       241.000         208.000
  21057308.376   -23972740.30949 -18665964.24847  21057308.059    21057314.497
       239.000         205.000
  22778507.654   -10134558.78549  -7880195.27046  22778507.367    22778514.153
       225.000         176.000
  23403668.784    -5993248.90649  -4643006.30545  23403669.437    23403677.034
       211.000         151.000
  20469634.034   -26589262.49149 -20699851.24947  20469633.418    20469639.935
       243.000         212.000
  20422822.184   -22559673.90249 -17534065.87048  20422821.785    20422826.744
       240.000         215.000
 03  3 21  0 23 30.0000000  0  9G14G 6G16G23G17G 3G26G15G18
  23434695.682    -5510206.34149  -4272786.45245  23434695.198    23434700.998
       214.000         151.000
  23731294.608    -9208291.12749  -7120907.76345  23731295.106    23731304.410
       209.000         146.000
  24133053.142    -3118944.23849  -1899931.63545  24133052.675    24133060.280
       210.000         145.000
  21095480.310   -17241457.08849 -13402381.20947  21095479.883    21095485.991
       241.000         208.000
  21062011.033   -23948027.90949 -18646707.84347  21062010.723    21062017.156
       239.000         205.000
  22764474.417   -10208303.32249  -7937658.50046  22764474.652    22764480.688
       226.000         176.000
  23421429.412    -5899916.60249  -4570279.88545  23421429.951    23421437.658
       211.000         150.000
  20465161.267   -26612766.86949 -20718166.33547  20465160.844    20465167.024
       244.000         212.000
  20424861.393   -22548958.05349 -17525715.85048  20424861.093    20424865.869
       241.000         215.000
 03  3 21  0 24  0.0000000  0  9G14G 6G16G23G17G 3G26G15G18
  23413848.089    -5619760.80149  -4358153.42945  23413847.541    23413852.628
       215.000         152.000
  23751949.892    -9099747.43949  -7036328.34445  23751950.147    23751959.151
       208.000         145.000
  24144451.942    -3059042.90149  -1853255.26945  24144452.673    24144459.556
       211.000         145.000
  21103085.755   -17201490.24049 -13371238.21447  21103085.408    21103091.368
       240.000         208.000
  21066763.237   -23923054.98449 -18627248.42747  21066762.524    21066769.693
       239.000         205.000
  22750514.518   -10281663.37149  -7994822.14046  22750514.127    22750521.209
       226.000         177.000
  23439260.493    -5806214.06049  -4497264.94245  23439261.157    23439267.807
       214.000         151.000
  20460736.326   -26636020.30949 -20736285.88948  20460735.817    20460742.083
       244.000         213.000
  20426964.573   -22537905.79049 -17517103.69348  20426964.407    20426969.038
       241.000         215.000
 03  3 21  0 24 30.0000000  0  9G14G 6G16G23G17G 3G26G15G18
  23393026.941    -5729176.87349  -4443412.59045  23393027.224    23393032.933
       212.000         152.000
  23772630.665    -8991070.17449  -6951644.85145  23772629.651    23772639.478
       208.000         144.000
  24155897.146    -2998898.49649  -1806389.50745  24155897.820    24155904.407
       210.000         145.000
  21110731.909   -17161309.52949 -13339928.57547  21110731.525    21110737.688
       241.000         208.000
  21071565.043   -23897821.07549 -18607585.64547  21071564.569    21071571.340
       238.000         204.000
  22736628.032   -10354636.99949  -8051684.66546  22736627.560    22736633.700
       227.000         177.000
  23457161.389    -5712144.73249  -4423964.21645  23457162.994    23457169.742
       212.000         151.000
  20456359.201   -26659022.29549 -20754209.50148  20456358.877    20456364.931
       244.000         213.000
  20429131.426   -22526519.12749 -17508230.96348  20429131.337    20429135.966
       241.000         215.000
 03  3 21  0 25  0.0000000  0  9G14G 6G16G23G17G 3G26G15G18
  23372232.662    -5838451.32049  -4528561.38145  23372232.330    23372237.696
       213.000         153.000
  23793336.399    -8882260.92449  -6866858.51845  23793336.736    23793345.678
       206.000         143.000
  24167388.212    -2938513.17649  -1759336.03745  24167387.636    24167394.681
       209.000         146.000
  21118418.572   -17120915.80849 -13308452.95347  21118418.143    21118424.437
       240.000         208.000
  21076416.915   -23872324.18849 -18587717.95147  21076416.171    21076423.161
       239.000         204.000
  22722815.727   -10427221.04249  -8108243.61646  22722815.252    22722822.440
       227.000         178.000
  23475131.578    -5617710.81749  -4350379.37345  23475131.864    23475139.509
       212.000         151.000
  20452030.326   -26681770.87849 -20771935.65048  20452029.754    20452036.186
       244.000         213.000
  20431361.749   -22514798.72249 -17499098.17448  20431361.493    20431366.102
       241.000         215.000
 03  3 21  0 25 30.0000000  0  9G14G 6G16G23G17G 3G26G15G18
  23351465.635    -5947582.25049  -4613598.34745  23351465.197    23351471.536
       214.000         153.000
  23814066.471    -8773323.28849  -6781972.12045  23814066.815    23814075.861
       209.000         143.000
  24178924.290    -2877891.02449  -1712098.02445  24178923.560    24178930.770
       211.000         146.000
  21126145.231   -17080311.92749 -13276813.57147  21126144.784    21126151.189
       241.000         208.000
  21081318.772   -23846564.56049 -18567645.52047  21081318.257    21081325.241
       238.000         203.000
  22709077.752   -10499414.56449  -8164498.26546  22709077.413    22709084.274
       226.000         178.000
  23493170.296    -5522916.51749  -4276513.72445  23493170.556    23493177.401
       210.000         150.000
  20447749.635   -26704266.25949 -20789464.50848  20447748.988    20447755.307
       244.000         213.000
  20433655.172   -22502746.61349 -17489706.91648  20433654.695    20433659.472
       241.000         215.000
 03  3 21  0 26  0.0000000  0  9G14G 6G16G23G17G 3G26G15G18
  23330726.708    -6056566.16649  -4698520.76345  23330726.664    23330732.087
       216.000         154.000
  23834820.755    -8664258.65349  -6696986.77945  23834820.757    23834830.294
       207.000         141.000
  24190505.085    -2817033.99449  -1664676.99045  24190505.142    24190511.640
       213.000         146.000
  21133911.767   -17039498.42949 -13245010.84647  21133911.208    21133917.516
       242.000         208.000
  21086270.827   -23820541.26249 -18547367.62947  21086270.229    21086277.070
       239.000         203.000
  22695414.793   -10571214.16149  -8220445.96646  22695414.102    22695420.971
       228.000         179.000
  23511277.328    -5427763.79949  -4202368.79345  23511277.961    23511284.406
       213.000         150.000
  20443517.536   -26726506.14449 -20806794.27748  20443516.938    20443523.182
       245.000         213.000
  20436011.655   -22490363.12049 -17480057.43148  20436011.184    20436015.943
       242.000         215.000
 03  3 21  0 26 30.0000000  0  9G14G 6G16G23G17G 3G26G15G18
  23310016.180    -6165400.67849  -4783326.75745  23310015.982    23310021.233
       218.000         154.000
  23855598.786    -8555069.90349  -6611904.72745  23855598.173    23855607.139
       207.000         140.000
  24202130.018    -2755945.34449  -1617075.47645  24202130.524    24202135.719
       214.000         147.000
  21141717.787   -16998477.38649 -13213046.40547  21141717.474    21141723.492
       243.000         208.000
  21091273.204   -23794253.56349 -18526883.71747  21091272.806    21091279.781
       239.000         203.000
  22681827.142   -10642617.81049  -8276085.13246  22681827.238    22681833.028
       228.000         179.000
  23529451.872    -5332256.31849  -4127947.42045  23529452.699    23529459.878
       212.000         149.000
  20439334.112   -26748489.80049 -20823924.39148  20439333.304    20439339.890
       245.000         213.000
  20438430.902   -22477649.98549 -17470151.09248  20438430.599    20438435.413
       243.000         215.000
 03  3 21  0 27  0.0000000  0  9G14G 6G16G23G17G 3G26G15G18
  23289334.549    -6274082.91949  -4868014.09545  23289333.210    23289340.102
       214.000         154.000
  23876399.954    -8445759.32349  -6526727.75345  23876400.232    23876409.755
       206.000         140.000
  24213798.367    -2694627.93349  -1569295.70245  24213798.086    24213805.982
       212.000         147.000
  21149563.052   -16957250.46349 -13180921.53447  21149562.652    21149568.888
       241.000         208.000
  21096326.027   -23767700.65149 -18506193.14447  21096325.598    21096332.537
       238.000         203.000
  22668315.232   -10713623.18249  -8331413.96646  22668314.962    22668321.322
       228.000         180.000
  23547693.336    -5236396.70749  -4053251.67545  23547693.031    23547701.030
       210.000         150.000
  20435199.719   -26770215.97849 -20840853.88348  20435199.046    20435205.539
       243.000         213.000
  20440912.606   -22464608.56749 -17459988.94548  20440912.551    20440917.228
       241.000         216.000
 03  3 21  0 27 30.0000000  0  9G14G 6G16G23G17G 3G26G15G18
  23268682.189    -6382610.17049  -4952580.66245  23268680.358    23268688.396
       215.000         154.000
  23897223.893    -8336329.37649  -6441457.74445  23897223.906    23897234.240
       200.000         139.000
  24225509.741    -2633084.87849  -1521340.09745  24225510.138    24225516.429
       212.000         147.000
  21157447.154   -16915819.29649 -13148637.51447  21157446.834    21157453.148
       241.000         208.000
  21101429.558   -23740881.62749 -18485295.20647  21101429.324    21101435.853
       238.000         203.000
  22654879.457   -10784228.42249  -8386430.99346  22654879.193    22654885.478
       227.000         180.000
  23566001.174    -5140188.34249  -3978284.15245  23566001.237    23566008.033
       211.000         149.000
  20431114.523   -26791683.69649 -20857581.96148  20431114.014    20431120.501
       243.000         213.000
  20443456.607   -22451240.06149 -17449571.92548  20443456.350    20443460.923
       242.000         216.000
 03  3 21  0 28  0.0000000  0  9G14G 6G16G23G17G 3G26G15G18
  23248059.963    -6490979.33549  -5037024.05745  23248058.714    23248065.933
       214.000         154.000
  23918070.257    -8226782.06649  -6356096.29445  23918071.054    23918079.396
       206.000         139.000
  24237263.518    -2571318.61449  -1473210.56845  24237263.112    24237271.055
       209.000         147.000
  21165369.870   -16874185.24449 -13116195.40547  21165369.659    21165375.757
       241.000         208.000
  21106583.896   -23713795.57049 -18464189.19347  21106583.566    21106590.465
       238.000         203.000
  22641520.344   -10854430.50849  -8441133.87946  22641519.812    22641526.892
       226.000         180.000
  23584374.927    -5043633.66949  -3903046.78445  23584374.257    23584381.656
       210.000         149.000
  20427078.809   -26812891.49549 -20874107.50648  20427078.208    20427084.527
       243.000         213.000
  20446062.630   -22437545.32449 -17438900.69748  20446062.326    20446067.079
       241.000         216.000
 03  3 21  0 28 30.0000000  0  9G14G 6G16G23G17G 3G26G15G18
  23227468.302    -6599188.38949  -5121342.69445  23227467.379    23227474.209
       217.000         154.000
  23938938.226    -8117120.85349  -6270646.09145  23938938.678    23938947.753
       207.000         138.000
  24249059.013    -2509333.17149  -1424910.25345  24249058.746    24249066.152
       211.000         148.000
  21173330.731   -16832350.83049 -13083597.16047  21173330.109    21173336.566
       242.000         208.000
  21111789.057   -23686442.38949 -18442875.03047  21111788.443    21111795.322
       239.000         203.000
  22628238.198   -10924228.18349  -8495521.62546  22628237.447    22628244.295
       227.000         179.000
  23602813.905    -4946736.52949  -3827542.55345  23602814.462    23602821.433
       212.000         149.000
  20423092.635   -26833839.07549 -20890430.27848  20423092.138    20423098.337
       244.000         213.000
  20448730.235   -22423526.91749 -17427977.25648  20448729.759    20448734.544
       243.000         216.000
 03  3 21  0 29  0.0000000  0  9G14G 6G16G23G17G 3G26G15G18
  23206907.873    -6707233.55249  -5205533.63445  23206907.852    23206913.197
       214.000         155.000
  23959827.723    -8007346.90649  -6185108.04645  23959826.567    23959835.544
       205.000         138.000
  24260895.850    -2447130.12549  -1376440.37645  24260894.882    24260902.325
       210.000         148.000
  21181329.552   -16790316.52549 -13050843.16347  21181329.021    21181335.228
       240.000         208.000
  21117045.332   -23658820.64749 -18421351.60447  21117045.004    21117051.834
       238.000         202.000
  22615033.661   -10993617.98749  -8549591.57446  22615032.699    22615039.120
       227.000         179.000
  23621317.657    -4849499.00149  -3751773.09345  23621318.072    23621325.260
       209.000         149.000
  20419156.359   -26854524.39549 -20906548.70048  20419155.683    20419161.941
       244.000         213.000
  20451459.467   -22409184.70049 -17416801.49948  20451459.279    20451463.857
       241.000         216.000
 03  3 21  0 29 30.0000000  0  9G14G 6G16G23G17G 3G26G15G18
  23186378.922    -6815113.37249  -5289595.71245  23186377.915    23186384.684
       217.000         156.000
  23980738.024    -7897463.59649  -6099484.77745  23980738.080    23980748.137
       204.000         139.000
  24272773.248    -2384713.74349  -1327804.25945  24272773.169    24272778.896
       211.000         147.000
  21189365.913   -16748085.05849 -13017935.52947  21189365.587    21189371.598
       242.000         208.000
  21122352.654   -23630930.67149 -18399619.16147  21122352.290    21122358.972
       239.000         202.000
  22601907.005   -11062598.82649  -8603342.83346  22601906.106    22601912.622
       227.000         179.000
  23639885.384    -4751925.27549  -3675741.66645  23639885.778    23639893.068
       210.000         148.000
  20415269.992   -26874947.31149 -20922462.64748  20415269.413    20415275.690
       245.000         213.000
  20454249.831   -22394521.18149 -17405375.37148  20454249.448    20454254.316
       242.000         216.000
 03  3 21  0 30  0.0000000  0  9G14G 6G16G23G17G 3G26G15G18
  23165882.061    -6922824.26649  -5373526.18345  23165881.164    23165888.350
       218.000         156.000
  24001668.642    -7787472.92049  -6013777.84145  24001668.151    24001677.628
       202.000         139.000
  24284691.038    -2322086.14349  -1279003.56245  24284691.208    24284696.589
       210.000         146.000
  21197439.692   -16705657.26649 -12984874.91747  21197439.208    21197445.474
       241.000         208.000
  21127711.260   -23602770.89649 -18377676.48447  21127710.660    21127717.361
       238.000         202.000
  22588858.733   -11131167.85749  -8656773.20846  22588858.778    22588864.871
       226.000         179.000
  23658516.601    -4654017.57749  -3599449.99945  23658516.680    23658524.994
       210.000         148.000
  20411433.866   -26895106.23249 -20938170.88848  20411433.299    20411439.794
       244.000         213.000
  20457101.211   -22379536.91749 -17393699.32248  20457100.804    20457105.743
       241.000         216.000
 03  3 21  0 30 30.0000000  0  9G14G 6G16G23G17G 3G26G15G18
  23145417.877    -7030363.56049  -5457322.93345  23145416.731    23145424.084
       219.000         156.000
  24022619.120    -7677377.56849  -5927989.35545  24022619.567    24022628.669
       201.000         138.000
  24296648.196    -2259250.73049  -1230040.92145  24296648.400    24296654.965
       212.000         146.000
  21205550.409   -16663035.24949 -12951662.96547  21205549.823    21205556.351
       242.000         208.000
  21133121.312   -23574340.95449 -18355523.29147  21133120.445    21133127.451
       240.000         201.000
  22575889.112   -11199323.28549  -8709881.29746  22575888.618    22575895.771
       228.000         180.000
  23677210.773    -4555779.12649  -3522900.61245  23677210.688    23677218.167
       212.000         147.000
  20407648.185   -26915000.22149 -20953672.68848  20407647.640    20407653.967
       245.000         213.000
  20460013.289   -22364233.69149 -17381774.72848  20460012.778    20460017.603
       242.000         216.000
 03  3 21  0 31  0.0000000  0  9G14G 6G16G23G17G 3G26G15G18
  23124986.954    -7137728.39749  -5540983.75745  23124986.355    23124992.225
       218.000         157.000
  24043589.110    -7567179.34849  -5842120.70845  24043589.869    24043597.342
       199.000         137.000
  24308644.475    -2196209.84549  -1180918.17945  24308644.985    24308650.970
       211.000         146.000
  21213697.876   -16620220.00949 -12918300.44747  21213697.553    21213703.726
       241.000         207.000
  21138582.972   -23545639.65049 -18333158.64747  21138582.544    21138589.169
       238.000         201.000
  22562998.781   -11267062.37849  -8762664.98246  22562999.191    22563005.054
       227.000         180.000
  23695967.361    -4457212.67749  -3446095.63445  23695966.903    23695975.399
       211.000         147.000
  20403913.246   -26934627.42049 -20968966.60348  20403912.825    20403918.909
       243.000         213.000
  20462985.956   -22348612.06549 -17369602.03648  20462985.670    20462990.615
       241.000         215.000
 03  3 21  0 31 30.0000000  0  9G14G 6G16G23G17G 3G26G15G18
  23104589.655    -7244916.64449  -5624506.96345  23104589.795    23104595.497
       218.000         158.000
  24064578.133    -7456881.68549  -5756174.59145  24064577.260    24064587.680
       201.000         137.000
  24320679.209    -2132967.34149  -1131638.34345  24320679.104    24320685.847
       208.000         146.000
  21221881.637   -16577214.16549 -12884789.40147  21221881.287    21221887.432
       240.000         207.000
  21144096.320   -23516666.98749 -18310582.55447  21144096.117    21144102.435
       238.000         201.000
  22550187.849   -11334383.86049  -8815123.25146  22550187.170    22550193.731
       226.000         179.000
  23714785.639    -4358322.13649  -3369038.10645  23714786.045    23714792.742
       210.000         147.000
  20400229.084   -26953987.77949 -20984052.58948  20400228.526    20400234.897
       244.000         213.000
  20466018.696   -22332674.53149 -17357183.18148  20466018.370    20466023.399
       241.000         215.000
 03  3 21  0 32  0.0000000  0  9G14G 6G16G23G17G 3G26G15G18
  23084226.577    -7351924.75449  -5707889.83345  23084225.793    23084231.961
       218.000         158.000
  24085585.668    -7346485.94949  -5670152.03745  24085585.636    24085594.653
       202.000         136.000
  24332751.727    -2069525.62249  -1082203.25845  24332752.106    24332757.363
       209.000         146.000
  21230101.517   -16534018.41749 -12851130.37947  21230101.177    21230107.258
       242.000         207.000
  21149661.598   -23487421.38949 -18287793.78247  21149661.254    21149667.657
       239.000         201.000
  22537457.102   -11401284.60749  -8867253.66446  22537456.993    22537463.479
       228.000         180.000
  23733665.237    -4259109.52649  -3291729.60845  23733666.045    23733672.401
       212.000         147.000
  20396596.126   -26973079.04549 -20998928.88748  20396595.431    20396601.812
       244.000         213.000
  20469111.606   -22316421.09049 -17344518.16148  20469111.389    20469116.205
       243.000         215.000
 03  3 21  0 32 30.0000000  0  9G14G 6G16G23G17G 3G26G15G18
  23063898.275    -7458750.42349  -5791130.52645  23063897.856    23063903.894
       219.000         158.000
  24106611.369    -7235995.15149  -5584055.40345  24106611.460    24106621.258
       202.000         137.000
  24344861.490    -2005887.75749  -1032615.32845  24344860.993    24344868.611
       210.000         146.000
  21238357.202   -16490634.80849 -12817324.97247  21238356.891    21238362.810
       241.000         207.000
  21155278.720   -23457903.27149 -18264792.66547  21155278.525    21155284.850
       238.000         201.000
  22524806.780   -11467762.58649  -8919054.65046  22524806.351    22524813.512
       228.000         181.000
  23752605.428    -4159578.60049  -3214173.10245  23752605.194    23752613.309
       209.000         146.000
  20393014.441   -26991900.71449 -21013595.11348  20393013.780    20393020.163
       243.000         213.000
  20472264.296   -22299853.80149 -17331608.58648  20472264.156    20472268.920
       241.000         215.000
 03  3 21  0 33  0.0000000  0  9G14G 6G16G23G17G 3G26G15G18
  23043605.182    -7565391.30149  -5874227.22545  23043604.904    23043610.661
       217.000         158.000
  24127654.805    -7125411.93249  -5497886.74845  24127654.702    24127664.633
       201.000         138.000
  24357008.116    -1942056.84649   -982876.98445  24357007.445    24357015.347
       206.000         145.000
  21246648.215   -16447065.24449 -12783374.66947  21246647.802    21246653.939
       241.000         207.000
  21160947.913   -23428111.46149 -18241578.27847  21160947.571    21160953.897
       238.000         201.000
  22512237.236   -11533816.18349  -8970524.95746  22512236.773    22512243.922
       228.000         181.000
  23771605.582    -4059732.47449  -3136370.95245  23771606.969    23771613.884
       210.000         145.000
  20389484.220   -27010452.12349 -21028050.74948  20389483.664    20389490.019
       244.000         213.000
  20475476.390   -22282974.28349 -17318455.71948  20475476.133    20475480.793
       241.000         215.000
 03  3 21  0 33 30.0000000  0  9G14G 6G16G23G17G 3G26G15G18
  23023347.839    -7671844.13149  -5957177.38545  23023347.118    23023354.036
       218.000         159.000
  24148715.427    -7014738.32549  -5411647.68045  24148714.013    24148723.906
       205.000         138.000
  24369190.752    -1878035.72549   -932990.42545  24369190.081    24369199.030
       207.000         145.000
  21254974.346   -16403310.81149 -12749280.31247  21254973.788    21254980.230
       240.000         206.000
  21166669.308   -23398045.32449 -18218150.12947  21166669.050    21166675.621
       238.000         201.000
  22499748.849   -11599442.86249  -9021662.59746  22499748.468    22499755.370
       228.000         181.000
  23790665.180    -3959573.90049  -3058325.35145  23790665.705    23790672.838
       209.000         144.000
  20386005.724   -27028731.59449 -21042294.47648  20386005.112    20386011.315
       243.000         213.000
  20478747.689   -22265783.64349 -17305060.40948  20478747.588    20478751.936
       242.000         215.000
 03  3 21  0 34  0.0000000  0  9G14G 6G16G23G17G 3G26G15G18
  23003126.756    -7778106.14649  -6039978.87445  23003126.267    23003132.779
       218.000         159.000
  24169792.806    -6903976.62349  -5325339.96545  24169793.590    24169802.648
       201.000         137.000
  24381408.966    -1813827.29949   -882957.92045  24381409.322    24381415.498
       206.000         144.000
  21263335.405   -16359372.99349 -12715043.05847  21263334.940    21263341.054
       240.000         206.000
  21172443.096   -23367703.80049 -18194507.39947  21172442.573    21172449.427
       237.000         201.000
  22487342.122   -11664640.28149  -9072465.74346  22487341.288    22487348.662
       228.000         182.000
  23809783.659    -3859105.69249  -2980038.48245  23809783.860    23809791.887
       209.000         143.000
  20382579.260   -27046737.83349 -21056325.30948  20382578.814    20382584.929
       244.000         213.000
  20482078.026   -22248282.84749 -17291423.42548  20482077.683    20482082.420
       241.000         216.000
 03  3 21  0 34 30.0000000  0  9G14G 6G16G23G17G 3G26G15G18
  22982942.464    -7884174.27549  -6122629.28945  22982942.050    22982948.296
       219.000         160.000
  24190886.428    -6793129.28749  -5238965.50845  24190887.257    24190895.692
       199.000         138.000
  24393662.526    -1749434.30849   -832781.57045  24393662.319    24393671.030
       208.000         144.000
  21271731.064   -16315253.46449 -12680664.20947  21271730.597    21271736.860
       240.000         206.000
  21178269.497   -23337085.87249 -18170649.28047  21178268.979    21178275.904
       238.000         201.000
  22475017.441   -11729406.39049  -9122932.81246  22475017.029    22475023.855
       229.000         182.000
  23828960.450    -3758331.00349  -2901512.79445  23828961.253    23828968.719
       209.000         143.000
  20379204.986   -27064469.74049 -21070142.36748  20379204.590    20379210.612
       244.000         213.000
  20485467.029   -22230473.46049 -17277545.97948  20485466.687    20485471.572
       242.000         216.000
 03  3 21  0 35  0.0000000  0  9G14G 6G16G23G17G 3G26G15G18
  22962795.690    -7990046.23049  -6205126.83945  22962795.398    22962800.971
       219.000         160.000
  24211995.851    -6682198.66149  -5152526.15945  24211997.053    24212005.718
       200.000         137.000
  24405950.479    -1684860.22349   -782464.12845  24405950.032    24405958.254
       207.000         144.000
  21280161.002   -16270953.77149 -12646144.97347  21280160.641    21280167.036
       241.000         206.000
  21184148.637   -23306190.82249 -18146575.23147  21184148.479    21184154.836
       237.000         201.000
  22462775.363   -11793739.05449  -9173062.13246  22462775.574    22462781.559
       229.000         182.000
  23848195.076    -3657252.75649  -2822750.56145  23848195.338    23848202.800
       210.000         143.000
  20375883.162   -27081926.17749 -21083744.77948  20375882.710    20375888.656
       244.000         213.000
  20488914.612   -22212356.54749 -17263428.90648  20488914.450    20488919.032
       242.000         216.000
 03  3 21  0 35 30.0000000  0  9G14G 6G16G23G17G 3G26G15G18
  22942686.636    -8095719.73849  -6287469.74445  22942686.429    22942692.080
       222.000         161.000
  24233120.487    -6571187.91049  -5066024.37445  24233119.650    24233130.906
       200.000         137.000
  24418272.545    -1620108.26649   -732008.10045  24418273.031    24418280.812
       208.000         144.000
  21288624.761   -16226476.28949 -12611487.20147  21288624.082    21288630.745
       241.000         206.000
  21190080.496   -23275018.74649 -18122285.30947  21190080.173    21190087.042
       238.000         201.000
  22450616.001   -11857637.02349  -9222852.71946  22450616.142    22450622.515
       231.000         183.000
  23867486.726    -3555874.80749  -2743754.79145  23867487.043    23867495.022
       208.000         143.000
  20372613.875   -27099106.45149 -21097131.98948  20372613.203    20372619.327
       245.000         214.000
  20492420.266   -22193934.22149 -17249073.84548  20492419.983    20492424.494
       243.000         216.000
 03  3 21  0 36  0.0000000  0  9G14G 6G16G23G17G 3G26G15G18
  22922615.950    -8201191.53749  -6369655.47545  22922614.934    22922621.146
       221.000         162.000
  24254260.004    -6460098.86549  -4979461.58845  24254260.175    24254270.215
       199.000         137.000
  24430627.854    -1555181.01049   -681415.45745  24430627.089    24430635.472
       207.000         143.000
  21297122.151   -16181822.10249 -12576691.74647  21297121.699    21297128.146
       241.000         206.000
  21196065.233   -23243568.73149 -18097778.81947  21196064.840    21196071.436
       238.000         201.000
  22438539.920   -11921097.23549  -9272302.20946  22438539.332    22438545.978
       230.000         183.000
  23886834.837    -3454199.63149  -2664527.42045  23886835.318    23886843.169
       206.000         140.000
  20369397.414   -27116009.04849 -21110302.83948  20369397.030    20369402.789
       244.000         214.000
  20495983.879   -22175207.35449 -17234481.48148  20495983.616    20495988.238
       242.000         216.000
 03  3 21  0 36 30.0000000  0  9G14G 6G16G23G17G 3G26G15G18
  22902584.217    -8306458.63849  -6451681.70145  22902583.252    22902589.369
       219.000         162.000
  24275414.088    -6348933.87449  -4892839.63445  24275414.520    24275423.201
       203.000         136.000
  24443015.938    -1490081.27949   -630688.40845  24443016.402    24443023.468
       207.000         142.000
  21305653.010   -16136992.40849 -12541759.52047  21305652.714    21305659.068
       240.000         206.000
  21202103.002   -23211839.96349 -18073055.11247  21202102.510    21202109.276
       237.000         201.000
  22426547.538   -11984117.53349  -9321408.89446  22426547.035    22426553.557
       229.000         183.000
  23906238.961    -3352230.05649  -2585070.64945  23906236.927    23906247.230
       203.000         136.000
  20366234.050   -27132632.59749 -21123256.24448  20366233.470    20366239.556
       245.000         214.000
  20499605.195   -22156177.23249 -17219652.81548  20499604.749    20499609.510
       242.000         215.000
 03  3 21  0 37  0.0000000  0  9G14G 6G16G23G17G 3G26G15G18
  22882591.892    -8411518.78049  -6533546.65246  22882591.022    22882598.188
       222.000         163.000
  24296582.060    -6237695.65949  -4806160.60645  24296582.236    24296592.506
       202.000         136.000
  24455436.288    -1424812.43449   -579829.60145  24455435.484    24455443.793
       207.000         142.000
  21314216.872   -16091989.09949 -12506692.01347  21314216.435    21314222.571
       240.000         206.000
  21208193.916   -23179831.89549 -18048113.76347  21208193.423    21208200.201
       236.000         201.000
  22414639.079   -12046696.56049  -9370171.74046  22414638.738    22414645.258
       230.000         183.000
  23925698.529    -3249969.64549  -2505387.26445  23925700.053    23925704.867
       202.000         134.000
  20363123.919   -27148976.42649 -21135991.68648  20363123.393    20363129.525
       245.000         214.000
  20503283.935   -22136845.15449 -17204588.85848  20503283.412    20503288.173
       242.000         215.000
 03  3 21  0 37 30.0000000  0  9G14G 6G16G23G17G 3G26G15G18
  22862639.428    -8516369.33849  -6615248.29646  22862638.365    22862645.098
       222.000         164.000
  24317763.413    -6126386.56549  -4719426.36045  24317764.192    24317772.748
       201.000         136.000
  24467888.068    -1359377.42049   -528841.29945  24467887.184    24467895.505
       205.000         141.000
  21322813.497   -16046813.69149 -12471490.40347  21322813.014    21322819.173
       239.000         206.000
  21214338.136   -23147543.92749 -18022954.31947  21214337.580    21214344.391
       237.000         201.000
  22402815.066   -12108831.95149  -9418588.89546  22402814.864    22402821.221
       231.000         183.000
  23945212.849    -3147421.29749  -2425479.48744  23945212.165    23945222.207
       202.000         131.000
  20360067.280   -27165039.30349 -21148508.19948  20360066.619    20360072.885
       244.000         214.000
  20507019.845   -22117212.66849 -17189290.81348  20507019.486    20507024.107
       242.000         215.000
 03  3 21  0 38  0.0000000  0  9G14G 6G16G23G17G 3G26G15G18
  22842727.550    -8621006.79549  -6696783.87446  22842726.360    22842733.098
       222.000         165.000
  24338958.015    -6015008.23749  -4632638.14145  24338958.590    24338968.402
       200.000         135.000
  24480371.018    -1293778.51849   -477725.30045  24480370.992    24480378.859
       204.000         142.000
  21331442.613   -16001467.05449 -12436155.37647  21331442.330    21331448.803
       240.000         205.000
  21220535.873   -23114974.71849 -17997575.72747  21220535.219    21220542.310
       237.000         201.000
  22391076.020   -12170521.10849  -9466658.34346  22391075.951    22391082.331
       230.000         183.000
  23964781.450    -3044587.46449  -2345349.29044  23964783.636    23964790.384
       201.000         129.000
  20357064.435   -27180819.34349 -21160804.32648  20357063.838    20357069.743
       244.000         214.000
  20510812.818   -22097280.39849 -17173759.17448  20510812.430    20510817.119
       242.000         215.000
 03  3 21  0 38 30.0000000  0  9G14G 6G16G23G17G 3G26G15G18
  22822856.544    -8725429.38449  -6778152.03746  22822856.145    22822862.447
       221.000         167.000
  24360165.240    -5903564.26649  -4545798.80945  24360165.129    24360175.644
       201.000         135.000
  24492884.546    -1228019.68049   -426484.69245  24492884.479    24492892.668
       206.000         142.000
  21340103.906   -15955951.74749 -12400688.90947  21340103.574    21340110.003
       239.000         206.000
  21226787.062   -23082124.37049 -17971978.06347  21226786.551    21226793.463
       236.000         200.000
  22379422.118   -12231762.75749  -9514379.07846  22379421.939    22379428.008
       230.000         184.000
  23984403.751    -2941472.05149  -2264999.67644  23984403.823    23984415.174
       199.000         128.000
  20354115.428   -27196316.36049 -21172879.91748  20354114.780    20354121.116
       244.000         214.000
  20514662.358   -22077050.80949 -17157995.85948  20514661.975    20514666.923
       242.000         215.000
 03  3 21  0 39  0.0000000  0  9G14G 6G16G23G17G 3G26G15G18
  22803027.033    -8829634.05749  -6859350.39846  22803026.493    22803033.156
       221.000         168.000
  24381384.577    -5792056.59549  -4458909.82645  24381384.858    24381395.729
       199.000         133.000
  24505427.956    -1162103.79049   -375121.69545  24505427.436    24505435.987
       208.000         143.000
  21348797.025   -15910269.02649 -12365091.99547  21348796.806    21348803.153
       240.000         206.000
  21233091.963   -23048991.91049 -17946160.58347  21233091.427    21233098.047
       236.000         200.000
  22367853.801   -12292554.85049  -9561749.51546  22367853.607    22367859.938
       231.000         184.000
  24004079.075    -2838077.89249  -2184432.83944  24004079.112    24004087.974
       200.000         127.000
  20351220.566   -27211528.95049 -21184733.87548  20351220.103    20351226.034
       244.000         214.000
  20518568.315   -22056524.86749 -17142001.62348  20518568.091    20518572.750
       242.000         215.000
 03  3 21  0 39 30.0000000  0  9G14G 6G16G23G17G 3G26G15G18
  22783239.409    -8933618.29149  -6940376.97146  22783238.962    22783244.770
       224.000         168.000
  24402615.475    -5680487.81749  -4371973.22045  24402615.351    24402627.963
       198.000         134.000
  24518000.799    -1096033.74349   -323638.57145  24518000.671    24518009.008
       207.000         143.000
  21357521.736   -15864420.65949 -12329365.99747  21357521.396    21357527.837
       240.000         206.000
  21239450.634   -23015576.84949 -17920122.88547  21239450.085    21239457.088
       236.000         200.000
  22356371.344   -12352895.43949  -9608768.11246  22356371.466    22356377.045
       231.000         184.000
  24023806.855    -2734408.11649  -2103651.24344  24023806.835    24023815.593
       198.000         124.000
  20348380.015   -27226456.17949 -21196365.47648  20348379.210    20348385.440
       244.000         214.000
  20522530.414   -22035703.89849 -17125777.48948  20522530.118    20522534.902
       242.000         215.000
 03  3 21  0 40  0.0000000  0  9G14G 6G16G23G17G 3G26G15G18
  22763494.238    -9037378.94149  -7021229.32246  22763493.491    22763500.771
       222.000         169.000
  24423857.602    -5568860.12549  -4284990.71545  24423857.985    24423867.304
       200.000         133.000
  24530602.342    -1029812.41649   -272037.57645  24530602.297    24530608.903
       206.000         142.000
  21366277.749   -15818407.61349 -12293511.68547  21366277.494    21366283.564
       240.000         206.000
  21245863.255   -22981878.35149 -17893864.32347  21245862.705    21245869.769
       236.000         200.000
  22344975.207   -12412782.22649  -9655433.11046  22344975.335    22344981.462
       232.000         184.000
  24043586.536    -2630465.49749  -2022657.06144  24043586.511    24043595.818
       195.000         123.000
  20345594.007   -27241096.57649 -21207773.56548  20345593.419    20345599.585
       244.000         214.000
  20526548.461   -22014589.09349 -17109324.39148  20526548.176    20526552.982
       242.000         215.000
 03  3 21  0 40 30.0000000  0  9G14G 6G16G23G17G 3G26G15G18
  22743792.528    -9140911.74349  -7101904.12846  22743791.851    22743798.145
       224.000         170.000
  24445110.652    -5457174.33349  -4197962.93945  24445110.872    24445121.252
       197.000         132.000
  24543232.457     -963440.88849   -220319.54845  24543231.834    24543240.011
       207.000         142.000
  21375065.094   -15772229.95849 -12257529.10147  21375064.801    21375070.913
       240.000         206.000
  21252330.170   -22947894.34549 -17867383.29547  21252329.678    21252336.503
       235.000         200.000
  22333666.202   -12472211.41849  -9701741.54746  22333665.545    22333671.998
       231.000         184.000
  24063417.877    -2526251.43449  -1941451.35744  24063418.922    24063425.660
       196.000         121.000
  20342863.160   -27255447.27249 -21218955.91648  20342862.519    20342868.593
       244.000         214.000
  20530622.435   -21993180.26049 -17092642.18648  20530622.236    20530626.916
       242.000         215.000
 03  3 21  0 41  0.0000000  0  9G14G 6G16G23G17G 3G26G15G18
  22724134.937    -9244213.13149  -7182398.62046  22724135.358    22724140.475
       226.000         171.000
  24466374.388    -5345431.93949  -4110891.05644  24466375.960    24466385.909
       196.000         131.000
  24555890.696     -896921.55849   -168486.32545  24555890.691    24555897.652
       206.000         142.000
  21383883.623   -15725888.38549 -12221418.79347  21383882.986    21383889.504
       240.000         206.000
  21258851.742   -22913623.24349 -17840678.54947  21258851.513    21258858.177
       236.000         200.000
  22322444.753   -12531180.23449  -9747691.23846  22322444.613    22322450.542
       231.000         185.000
  24083300.495    -2421768.11449  -1860035.83644  24083300.048    24083307.179
       195.000         117.000
  20340187.805   -27269506.22849 -21229910.93948  20340187.321    20340193.306
       245.000         214.000
  20534752.293   -21971477.88949 -17075731.24048  20534752.057    20534756.545
       242.000         215.000
 03  3 21  0 41 30.0000000  0  9G14G 6G16G23G17G 3G26G15G18
  22704521.044    -9347284.78749  -7262714.08946  22704520.418    22704526.359
       224.000         172.000
  24487647.840    -5233639.41149  -4023780.10944  24487647.315    24487658.533
       195.000         129.000
  24568575.613     -830261.65049   -116543.56645  24568575.509    24568582.809
       209.000         143.000
  21392732.248   -15679388.65249 -12185185.24447  21392731.960    21392738.064
       239.000         206.000
  21265427.384   -22879068.35449 -17813752.67047  21265427.131    21265433.888
       236.000         200.000
  22311310.468   -12589691.01949  -9793284.02346  22311310.441    22311316.395
       232.000         185.000
  24103232.804    -2317022.90548  -1778416.24144  24103233.189    24103241.519
       185.000         115.000
  20337567.383   -27283276.71449 -21240641.17548  20337566.805    20337572.787
       245.000         214.000
  20538936.947   -21949487.25249 -17058595.67748  20538936.590    20538941.264
       241.000         215.000
 03  3 21  0 42  0.0000000  0  9G14G 6G16G23G17G 3G26G15G18
  22684951.499    -9450123.26249  -7342847.86746  22684950.566    22684956.638
       225.000         172.000
  24508930.370    -5121798.65349  -3936631.57244  24508930.031    24508939.571
       196.000         128.000
  24581286.942     -763463.52749    -64493.11645  24581286.469    24581293.256
       206.000         143.000
  21401610.828   -15632731.54549 -12148829.06247  21401610.463    21401616.895
       240.000         206.000
  21272057.297   -22844228.11549 -17786604.44747  21272056.861    21272063.807
       236.000         200.000
  22300263.928   -12647741.02249  -9838517.76346  22300263.719    22300269.774
       232.000         185.000
  24123214.450    -2212018.22248  -1696594.46444  24123213.607    24123223.995
       191.000         114.000
  20335002.239   -27296756.76449 -21251145.10348  20335001.721    20335007.643
       244.000         214.000
  20543176.280   -21927209.23449 -17041236.18348  20543175.895    20543180.651
       242.000         215.000
 03  3 21  0 42 30.0000000  0  9G14G 6G16G23G17G 3G26G15G18
  22665426.896    -9552725.41249  -7422797.47146  22665425.832    22665431.822
       225.000         173.000
  24530222.065    -5009911.60849  -3849446.98744  24530224.709    24530231.776
       197.000         127.000
  24594024.151     -696529.76249    -12336.97945  24594024.651    24594031.148
       210.000         142.000
  21410519.152   -15585918.22249 -12112351.14947  21410518.856    21410525.393
       240.000         206.000
  21278741.623   -22809102.01849 -17759233.48147  21278741.304    21278747.827
       236.000         199.000
  22289305.463   -12705327.96649  -9883390.67146  22289305.135    22289311.577
       231.000         186.000
  24143245.046    -2106756.59248  -1614572.47844  24143244.869    24143250.366
       188.000         111.000
  20332492.629   -27309944.90249 -21261421.56848  20332492.039    20332498.107
       244.000         214.000
  20547470.121   -21904644.83949 -17023653.53748  20547469.853    20547474.529
       242.000         215.000
 03  3 21  0 43  0.0000000  0  8G14G16G23G17G 3G26G15G18
  22645947.771    -9655088.14049  -7502560.50846  22645947.477    22645953.294
       225.000         174.000
  24606786.728     -629462.50049     39923.20145  24606786.246    24606793.964
       209.000         141.000
  21419456.955   -15538949.57549 -12075752.21347  21419456.569    21419462.597
       239.000         205.000
  21285480.521   -22773689.11349 -17731639.02547  21285479.889    21285486.716
       235.000         198.000
  22278435.540   -12762449.35049  -9927900.80746  22278435.410    22278441.628
       232.000         187.000
  24163323.936    -2001240.45648  -1532352.15544                  24163327.726
       187.000         106.000
  20330038.836   -27322839.39549 -21271469.21848  20330038.117    20330044.297
       245.000         214.000
  20551818.350   -21881794.91549 -17005848.40748  20551818.042    20551822.787
       242.000         215.000
 03  3 21  0 43 30.0000000  0  8G14G16G23G17G 3G26G15G18
  22626514.721    -9757209.00349  -7582135.10946  22626513.970    22626520.092
       227.000         174.000
  24619574.014     -562265.35149     92284.58345  24619574.583    24619581.213
       209.000         141.000
  21428424.020   -15491827.35049 -12039033.60147  21428423.721    21428429.842
       240.000         205.000
  21292274.106   -22737988.42549 -17703820.32447  21292273.456    21292280.325
       235.000         198.000
  22267654.622   -12819103.53849  -9972046.89146  22267654.094    22267660.488
       232.000         187.000
  24183450.778    -1895473.15058  -1449936.14244                  24183452.434
       183.000         108.000
  20327641.156   -27335439.27849 -21281287.30248  20327640.617    20327646.634
       244.000         214.000
  20556220.521   -21858661.19749 -16987822.13448  20556219.955    20556224.876
       241.000         215.000
 03  3 21  0 44  0.0000000  0  8G14G16G23G17G 3G26G15G18
  22607128.170    -9859085.37149  -7661519.20646  22607127.441    22607133.555
       228.000         175.000
  24632385.386     -494941.40849    144744.77045  24632385.105    24632392.139
       209.000         140.000
  21437420.012   -15444553.17449 -12002196.58247  21437419.623    21437425.856
       239.000         205.000
  21299122.594   -22701999.52849 -17675777.04347  21299121.945    21299128.790
       235.000         197.000
  22256962.957   -12875288.73049 -10015827.53047  22256963.285    22256969.106
       233.000         188.000
  24203624.958    -1789457.95348  -1367326.97744                  24203627.148
       180.000         102.000
  20325299.749   -27347743.45749 -21290874.96648  20325299.268    20325305.195
       245.000         214.000
  20560676.421   -21835245.00349 -16969575.75048  20560676.040    20560680.679
       242.000         215.000
 03  3 21  0 44 30.0000000  0  8G14G16G23G17G 3G26G15G18
  22587788.776    -9960714.22849  -7740710.44146  22587788.130    22587793.987
       228.000         175.000
  24645220.446     -427493.11649    197301.85345  24645220.479    24645227.397
       208.000         140.000
  21446444.682   -15397128.20949 -11965242.07247  21446444.066    21446450.387
       239.000         205.000
  21306026.003   -22665721.73849 -17647508.65447  21306025.266    21306032.138
       235.000         197.000
  22246360.926   -12931002.94249 -10059241.18147  22246361.005    22246366.683
       233.000         188.000
                  -1683197.28948  -1284526.52444
       179.000          99.000
  20323014.894   -27359750.57849 -21300231.15348  20323014.400    20323020.478
       245.000         214.000
  20565185.978   -21811547.33549 -16951110.03648  20565185.698    20565190.417
       242.000         215.000
 03  3 21  0 45  0.0000000  0  8G14G16G23G17G 3G26G15G18
  22568497.103   -10062092.48649  -7819706.42646  22568496.935    22568502.193
       228.000         175.000
  24658078.588     -359923.13049    249953.76745  24658078.248    24658086.511
       210.000         140.000
  21455497.834   -15349553.41749 -11928170.81447  21455497.498    21455503.754
       238.000         204.000
  21312984.599   -22629154.10049 -17619014.40547  21312984.558    21312991.149
       235.000         197.000
  22235848.881   -12986243.90249 -10102286.06247  22235848.782    22235854.881
       233.000         189.000
                  -1576693.95448   9189717.95543
       171.000          74.000
  20320786.826   -27371459.04449 -21309354.62548  20320786.252    20320792.500
       245.000         214.000
  20569748.921   -21787569.01249 -16932425.63148  20569748.360    20569753.399
       241.000         214.000
 03  3 21  0 45 30.0000000  0  8G14G16G23G17G 3G26G15G18
  22549253.653   -10163217.64649  -7898505.18346  22549253.077    22549258.339
       229.000         176.000
  24670959.299     -292234.83049    302697.86245  24670959.040    24670966.132
       206.000         138.000
  21464579.171   -15301830.55449 -11890984.17547  21464578.871    21464585.086
       238.000         204.000
  21319998.493   -22592295.93649 -17590293.77247  21319998.232    21320004.905
       235.000         197.000
  22225427.215   -13041009.90849 -10144960.84147  22225426.947    22225433.150
       232.000         189.000
                  -1469949.23048   9272839.18543
       174.000          74.000
  20318615.797   -27382867.96549 -21318244.69148  20318615.095    20318621.371
       244.000         215.000
  20574364.867   -21763311.78249 -16913523.89548  20574364.684    20574369.341
       242.000         214.000
 03  3 21  0 46  0.0000000  0  8G14G16G23G17G 3G26G15G18
  22530058.730   -10264087.42449  -7977104.93246  22530058.205    22530063.836
       231.000         176.000
  24683861.844     -224431.36449    355531.70345  24683860.759    24683868.201
       207.000         138.000
  21473688.357   -15253961.44149 -11853683.57447  21473687.975    21473694.215
       239.000         204.000
  21327067.723   -22555147.10849 -17561346.64547  21327067.129    21327074.146
       236.000         197.000
  22215096.305   -13095299.09149 -10187264.07947  22215096.339    22215102.113
       234.000         189.000
                  -1362970.31958   9356086.34743
       167.000          74.000
  20316501.896   -27393976.48249 -21326900.66848  20316501.169    20316507.499
       246.000         214.000
  20579033.638   -21738777.36749 -16894406.16548  20579033.382    20579038.009
       243.000         214.000
 03  3 21  0 46 30.0000000  0  8G14G23G17G 3G31G26G15G18
  22510912.960   -10364698.78849  -8055503.32446  22510912.440    22510918.475
       229.000         176.000
  21482825.212   -15205947.03749 -11816269.76547  21482824.840    21482831.080
       240.000         204.000
  21334192.393   -22517706.71449 -17532172.33447  21334191.816    21334198.861
       235.000         197.000
  22204856.535   -13149109.40349 -10229194.17947  22204855.998    22204862.148
       234.000         190.000
                  -1045385.97949   -798615.70343
       204.000          74.000
                  -1255757.97058   9250146.11443
       170.000          74.000
  20314445.447   -27404782.94749 -21335321.28648  20314444.743    20314450.839
       245.000         214.000
  20583755.011   -21713966.47949 -16875073.00848  20583754.663    20583759.604
       243.000         214.000
 03  3 21  0 47  0.0000000  0  8G14G23G17G 3G31G26G15G18
  22491816.771   -10465049.49249  -8133698.61346  22491816.230    22491822.251
       230.000         177.000
  21491989.273   -15157789.44049 -11778744.36847  21491988.746    21491995.060
       240.000         204.000
  21341372.633   -22479974.42049 -17502770.55747  21341371.906    21341379.107
       236.000         197.000
  22194708.086   -13202439.60349 -10270750.14547  22194707.784    22194714.143
       234.000         190.000
                  -1136365.50249   -869508.75444                  24227874.339
       204.000         128.000
                  -1148316.68557   9333888.26843
       161.000          74.000
  20312446.560   -27415287.00149 -21343506.25748  20312445.726    20312452.093
       246.000         214.000
  20588528.553   -21688881.35049 -16855526.15348  20588528.169    20588533.019
       244.000         215.000
 03  3 21  0 47 30.0000000  0  7G14G23G17G 3G31G15G18
  22472770.568   -10565137.29349  -8211689.04946  22472769.605    22472776.236
       229.000         177.000
  21501180.328   -15109490.18749 -11741108.59347  21501179.993    21501186.289
       239.000         204.000
  21348608.415   -22441950.02149 -17473141.18347  21348608.056    21348614.729
       235.000         197.000
  22184651.333   -13255288.36149 -10311930.96847  22184651.395    22184657.135
       235.000         191.000
  24210609.047    -1227047.57049   -940170.02745  24210609.194    24210618.101
       205.000         133.000
  20310505.434   -27425487.60349 -21351454.77548  20310504.840    20310510.908
       243.000         213.000
  20593354.044   -21663523.29149 -16835766.62848  20593353.898    20593358.448
       242.000         214.000
 03  3 21  0 48  0.0000000  0  7G14G23G17G 3G31G15G18
  22453774.857   -10664959.85849  -8289472.80046  22453774.036    22453779.890
       229.000         178.000
  21510397.985   -15061051.08849 -11703363.84747  21510397.352    21510403.933
       239.000         204.000
  21355899.921   -22403633.11449 -17443283.87747  21355899.249    21355906.420
       235.000         197.000
  22174686.439   -13307654.09549 -10352735.40447  22174685.994    22174692.621
       233.000         191.000
  24193410.361    -1317429.88849  -1010597.74345  24193410.251    24193418.245
       204.000         134.000
  20308622.190   -27435383.94749 -21359166.20748  20308621.454    20308627.874
       244.000         213.000
  20598231.119   -21637894.01949 -16815795.76248  20598230.682    20598235.538
       242.000         214.000
 03  3 21  0 48 30.0000000  0  7G14G23G17G 3G31G15G18
  22434830.339   -10764513.78349  -8367047.22646  22434829.910    22434835.209
       228.000         178.000
  21519642.142   -15012472.77149 -11665510.62547  21519641.662    21519648.260
       239.000         204.000
  21363247.293   -22365022.45749 -17413197.67347  21363246.142    21363253.684
       235.000         197.000
  22164813.898   -13359534.35749 -10393161.55447  22164813.439    22164820.134
       233.000         191.000
  24176269.032    -1407509.18449  -1080789.33545  24176270.037    24176277.694
       205.000         134.000
  20306797.258   -27444974.13049 -21366639.06748  20306796.587    20306802.877
       244.000         214.000
  20603159.720   -21611994.14049 -16795614.03848  20603159.420    20603164.115
       242.000         215.000
 03  3 21  0 49  0.0000000  0  7G14G23G17G 3G31G15G18
  22415937.600   -10863795.62749  -8444409.64346  22415937.080    22415942.551
       230.000         178.000
  21528912.712   -14963755.70949 -11627549.28847  21528912.444    21528918.499
       240.000         204.000
  21370650.858   -22326116.51849 -17382881.38847  21370650.566    21370657.440
       235.000         197.000
  22155034.268   -13410926.47349 -10433207.33147  22155033.879    22155040.727
       233.000         191.000
  24159185.950    -1497281.81849  -1150741.97145  24159186.303    24159193.575
       205.000         136.000
  20305030.945   -27454256.10549 -21373871.77348  20305030.330    20305036.495
       244.000         214.000
  20608139.763   -21585824.04549 -16775221.76048  20608139.482    20608144.213
       242.000         215.000
 03  3 21  0 49 30.0000000  0  7G14G23G17G 3G31G15G18
  22397097.007   -10962803.51049  -8521558.57246  22397096.593    22397102.798
       231.000         179.000
  21538209.183   -14914902.54249 -11589481.89447  21538208.678    21538214.959
       239.000         203.000
  21378110.472   -22286916.04449 -17352335.58647  21378109.942    21378116.949
       236.000         197.000
  22145347.644   -13461829.76949 -10472872.20747  22145346.865    22145353.492
       232.000         191.000
  24142161.585    -1586746.38749  -1220454.54245  24142161.210    24142167.942
       208.000         136.000
  20303323.260   -27463229.94149 -21380864.36248  20303322.802    20303328.926
       245.000         214.000
  20613170.682   -21559386.27349 -16754620.89348  20613170.389    20613174.983
       243.000         214.000
 03  3 21  0 50  0.0000000  0  7G14G23G17G 3G31G15G18
  22378309.369   -11061533.34449  -8598490.84546  22378308.719    22378315.105
       229.000         179.000
  21547531.612   -14865912.71649 -11551308.01847  21547531.145    21547537.468
       238.000         203.000
  21385626.624   -22247418.57149 -17321558.34947  21385626.339    21385633.130
       235.000         197.000
  22135754.636   -13512240.65649 -10512153.39047  22135753.926    22135760.897
       233.000         190.000
  24125196.547    -1675898.43449  -1289923.60045  24125196.854    24125202.939
       207.000         138.000
  20301674.870   -27471892.37849 -21387614.30948  20301674.363    20301680.439
       244.000         214.000
  20618252.664   -21532680.34649 -16733811.08048  20618252.351    20618256.954
       242.000         214.000
 03  3 21  0 50 30.0000000  0  7G14G23G17G 3G31G15G18
  22359575.490   -11159980.29149  -8675202.70046  22359574.539    22359580.616
       228.000         179.000
  21556880.167   -14816785.63149 -11513027.18447  21556879.783    21556886.399
       239.000         203.000
  21393199.698   -22207622.09949 -17290548.12947  21393199.156    21393206.604
       235.000         197.000
  22126256.079   -13562155.51649 -10551048.05547  22126255.332    22126262.088
       232.000         190.000
  24108291.767    -1764733.37749  -1359145.55345  24108292.157    24108299.534
       208.000         139.000
  20300086.360   -27480240.20149 -21394119.10448  20300085.793    20300091.979
       244.000         214.000
  20623385.768   -21505705.62749 -16712791.82448  20623385.397    20623390.118
       243.000         214.000
 03  3 21  0 51  0.0000000  0  7G14G23G17G 3G31G15G18
  22340895.401   -11258144.38249  -8751694.14046  22340895.070    22340900.938
       228.000         180.000
  21566254.135   -14767525.15749 -11474642.40647  21566253.843    21566260.014
       239.000         203.000
  21400829.390   -22167527.90349 -17259305.92347  21400829.084    21400836.233
       234.000         197.000
  22116851.806   -13611574.96649 -10589556.69847  22116851.382    22116858.116
       231.000         190.000
  24091447.379    -1853251.13249  -1428120.36245  24091447.448    24091454.843
       210.000         141.000
  20298557.379   -27488275.00649 -21400379.98248  20298556.911    20298562.998
       244.000         215.000
  20628569.318   -21478465.84949 -16691566.02548  20628569.049    20628573.732
       242.000         214.000
 03  3 21  0 51 30.0000000  0  7G14G23G17G 3G31G15G18
  22322269.081   -11356025.92049  -8827965.41146  22322268.095    22322274.334
       228.000         180.000
  21575652.628   -14718135.74349 -11436157.16047  21575652.127    21575658.655
       238.000         202.000
  21408515.279   -22127138.43549 -17227833.62547  21408514.624    21408521.682
       234.000         196.000
  22107541.520   -13660500.58349 -10627680.53247  22107541.058    22107547.981
       232.000         190.000
  24074663.377    -1941452.10149  -1496848.30945  24074663.417    24074670.233
       210.000         142.000
  20297087.586   -27495998.76249 -21406398.48748  20297086.939    20297093.200
       244.000         214.000
  20633802.478   -21450965.49249 -16670137.17648  20633802.106    20633806.796
       242.000         214.000
 03  3 21  0 52  0.0000000  0  7G14G23G17G 3G31G15G18
  22303697.237   -11453620.97849  -8904013.45546  22303696.222    22303702.418
       228.000         180.000
  21585075.635   -14668617.40549 -11397571.45047  21585075.323    21585081.639
       238.000         202.000
  21416257.590   -22086452.10349 -17196130.00847  21416257.094    21416264.243
       234.000         196.000
  22098325.846   -13708929.28049 -10665417.15247  22098325.138    22098332.229
       231.000         191.000
  24057940.395    -2029332.43649  -1565326.42845  24057940.095    24057948.095
       209.000         142.000
  20295677.471   -27503408.91249 -21412172.62348  20295676.775    20295683.051
       244.000         214.000
  20639085.211   -21423204.40749 -16648505.17048  20639084.719    20639089.715
       242.000         214.000
 03  3 21  0 52 30.0000000  0  7G14G23G17G 3G31G15G18
  22285180.426   -11550927.09349  -8979836.34146  22285179.991    22285185.311
       230.000         181.000
  21594522.955   -14618971.32749 -11358886.20747  21594522.503    21594529.090
       237.000         201.000
  21424056.619   -22045468.01749 -17164194.38147  21424056.434    21424062.842
       234.000         195.000
  22089205.014   -13756859.33649 -10702765.22247  22089204.612    22089211.681
       230.000         191.000
  24041278.832    -2116889.36049  -1633552.53445  24041278.050    24041285.831
       211.000         142.000
  20294327.258   -27510504.09649 -21417701.33448  20294326.510    20294332.868
       244.000         214.000
  20644417.270   -21395184.05149 -16626671.13048  20644416.918    20644421.664
       242.000         214.000
 03  3 21  0 53  0.0000000  0  7G14G23G17G 3G31G15G18
  22266719.255   -11647941.06749  -9055431.59546  22266718.651    22266724.141
       229.000         181.000
  21603994.406   -14569198.71449 -11320102.36747  21603994.116    21604000.405
       237.000         201.000
  21431912.436   -22004185.64449 -17132026.31947  21431911.776    21431918.710
       234.000         195.000
  22080179.364   -13804288.92049 -10739723.30747  22080178.820    22080185.722
       231.000         190.000
  24024679.386    -2204120.11249  -1701524.45945  24024678.121    24024685.201
       209.000         143.000
  20293037.276   -27517282.93749 -21422983.54448  20293036.833    20293042.943
       244.000         214.000
  20649798.485   -21366905.42149 -16604635.83548  20649798.102    20649803.086
       242.000         214.000
 03  3 21  0 53 30.0000000  0  7G14G23G17G 3G31G15G18
  22248314.144   -11744660.34349  -9130797.20746  22248313.913    22248319.356
       230.000         182.000
  21613489.705   -14519300.85049 -11281220.93247  21613489.622    21613495.850
       237.000         201.000
  21439825.099   -21962604.20049 -17099625.22247  21439824.888    21439831.331
       233.000         194.000
  22071249.252   -13851216.64049 -10776290.33547  22071248.662    22071255.509
       231.000         190.000
  24008142.410    -2291022.11149  -1769240.23845  24008141.509    24008148.843
       208.000         142.000
  20291807.723   -27523744.15649 -21428018.25348  20291807.174    20291813.298
       245.000         214.000
  20655228.681   -21338369.62849 -16582400.15448  20655228.393    20655233.240
       242.000         214.000
 03  3 21  0 54  0.0000000  0  7G14G23G17G 3G31G15G18
  22229965.876   -11841081.72149  -9205930.70046  22229965.145    22229970.946
       231.000         183.000
  21623008.689   -14469278.33049 -11242242.35947  21623008.303    21623014.666
       237.000         201.000
  21447794.926   -21920722.59049 -17066990.22447  21447794.421    21447801.143
       232.000         193.000
  22062415.172   -13897639.70949 -10812464.13247  22062414.528    22062421.339
       231.000         190.000
  23991668.633    -2377591.85849  -1836697.10245  23991667.584    23991675.449
       208.000         141.000
  20290638.997   -27529885.95549 -21432804.07048  20290638.313    20290644.486
       244.000         214.000
  20660707.728   -21309577.33149 -16559964.60348  20660707.400    20660712.252
       242.000         214.000
 03  3 21  0 54 30.0000000  0  7G14G23G17G 3G31G15G18
  22211674.642   -11937202.79849  -9280830.18546  22211674.688    22211679.641
       232.000         183.000
  21632551.075   -14419132.82349 -11203167.95047  21632550.757    21632557.027
       239.000         201.000
  21455821.845   -21878540.66549 -17034121.21247  21455821.334    21455828.274
       233.000         193.000
  22053677.418   -13943556.98549 -10848243.81147  22053677.197    22053683.458
       232.000         190.000
  23975258.504    -2463827.24549  -1903893.43245  23975257.784    23975265.437
       208.000         143.000
  20289531.198   -27535707.50749 -21437340.34248  20289530.790    20289536.655
       245.000         214.000
  20666235.217   -21280530.16349 -16537330.45048  20666234.853    20666239.710
       242.000         214.000
 03  3 21  0 55  0.0000000  0  7G14G23G17G 3G31G15G18
  22193441.006   -12033020.85049  -9355493.55446  22193440.891    22193445.836
       233.000         184.000
  21642116.627   -14368865.54249 -11163998.64747  21642116.295    21642122.395
       238.000         201.000
  21463906.071   -21836057.69649 -17001017.62047  21463905.567    21463912.355
       233.000         192.000
  22045036.284   -13988966.65149 -10883627.94347  22045035.919    22045042.351
       232.000         191.000
  23958912.623    -2549725.50049  -1970827.06445  23958912.080    23958919.249
       212.000         144.000
  20288484.599   -27541207.54549 -21441626.08248  20288484.005    20288490.106
       245.000         214.000
  20671810.898   -21251229.56649 -16514498.81648  20671810.633    20671815.567
       243.000         214.000
 03  3 21  0 55 30.0000000  0  7G14G23G17G 3G31G15G18
  22175265.590   -12128533.65049  -9429919.05646  22175265.133    22175270.332
       232.000         185.000
  21651705.056   -14318478.01349 -11124735.64847  21651704.707    21651711.002
       238.000         201.000
  21472047.651   -21793273.39549 -16967679.22547  21472047.151    21472053.775
       233.000         192.000
  22036491.994   -14033867.41949 -10918615.52747  22036492.074    22036498.079
       233.000         191.000
  23942631.259    -2635284.37949  -2037496.24045  23942630.652    23942637.529
       209.000         144.000
  20287499.324   -27546385.22649 -21445660.63648  20287498.887    20287504.730
       244.000         214.000
  20677434.543   -21221677.05249 -16491470.88848  20677434.170    20677439.091
       243.000         214.000
 03  3 21  0 56  0.0000000  0  7G14G23G17G 3G31G15G18
  22157148.624   -12223738.88349  -9504104.90646  22157148.046    22157152.813
       232.000         185.000
  21661316.158   -14267971.51449 -11085379.94547  21661315.933    21661322.318
       238.000         201.000
  21480246.668   -21750187.62449 -16934105.92047  21480246.475    21480252.849
       233.000         192.000
  22028044.763   -14078257.93549 -10953205.51547  22028044.552    22028050.690
       233.000         191.000
  23926414.857    -2720501.49349  -2103899.11945  23926414.278    23926421.668
       210.000         145.000
  20286575.619   -27551239.47649 -21449443.16748  20286575.076    20286581.221
       245.000         214.000
  20683105.907   -21191873.92549 -16468247.67748  20683105.644    20683110.321
       243.000         214.000
 03  3 21  0 56 30.0000000  0  7G14G23G17G 3G31G15G18
  22139090.642   -12318633.85549  -9578048.99746  22139089.897    22139095.284
       233.000         186.000
  21670949.648   -14217347.36949 -11045932.57047  21670949.254    21670955.445
       239.000         201.000
  21488503.160   -21706799.50149 -16900297.02547  21488502.729    21488509.059
       232.000         191.000
  22019694.880   -14122136.81149 -10987396.82047  22019694.583    22019700.765
       233.000         191.000
  23910264.010    -2805374.20449  -2170033.61945  23910263.229    23910271.082
       209.000         147.000
  20285713.669   -27555769.15149 -21452972.77948  20285713.083    20285719.142
       244.000         214.000
  20688824.741   -21161821.36449 -16444830.09748  20688824.515    20688829.084
       243.000         214.000
 03  3 21  0 57  0.0000000  0  7G14G23G17G 3G31G15G18
  22121092.174   -12413216.31449  -9651749.56146  22121091.497    22121097.263
       233.000         186.000
  21680605.244   -14166607.23249 -11006394.81147  21680604.880    21680611.079
       239.000         201.000
  21496817.298   -21663108.51949 -16866252.12647  21496816.753    21496823.534
       232.000         191.000
  22011442.564   -14165502.91949 -11021188.57047  22011442.615    22011449.264
       234.000         192.000
  23894179.167    -2889900.25749  -2235897.99945  23894178.345    23894185.938
       207.000         147.000
  20284913.559   -27559973.50949 -21456248.90148  20284912.967    20284918.865
       244.000         214.000
  20694590.685   -21131521.00149 -16421219.42648  20694590.303    20694595.315
       242.000         213.000
 03  3 21  0 57 30.0000000  0  7G14G23G17G 3G31G15G18
  22103153.675   -12507483.98349  -9725204.84046  22103153.415    22103158.192
       233.000         187.000
  21690282.618   -14115752.59849 -10966767.83247  21690282.360    21690288.572
       238.000         201.000
  21505189.034   -21619115.06049 -16831971.53947  21505188.608    21505195.546
       232.000         191.000
  22003288.208   -14208354.96949 -11054579.74647  22003288.171    22003294.246
       234.000         193.000
  23878160.693    -2974077.26449  -2301490.40145  23878160.284    23878167.599
       209.000         147.000
  20284175.578   -27563851.63649 -21459270.81248  20284174.818    20284181.151
       244.000         214.000
  20700403.496   -21100974.52549 -16397416.98148  20700403.429    20700408.150
       243.000         213.000
 03  3 21  0 58  0.0000000  0  7G14G23G17G 3G31G15G18
  22085275.685   -12601433.32749  -9798412.08346  22085275.532    22085279.905
       234.000         187.000
  21699981.672   -14064783.66549 -10927051.79947  21699981.066    21699987.583
       238.000         201.000
  21513618.539   -21574817.76949 -16797454.19547  21513617.692    21513625.146
       232.000         191.000
  21995232.099   -14250690.36449 -11087568.34647  21995231.668    21995237.882
       234.000         193.000
  23862209.221    -3057901.85049  -2366808.18045  23862208.477    23862216.366
       208.000         147.000
  20283500.113   -27567401.27449 -21462036.76448  20283499.386    20283505.617
       244.000         214.000
  20706263.123   -21070182.17649 -16373422.95148  20706262.902    20706267.717
       242.000         213.000
 03  3 21  0 58 30.0000000  0  7G14G23G17G 3G31G15G18
  22067459.762   -12695056.40049  -9871365.07946  22067459.196    22067464.390
       233.000         187.000
  21709703.276   -14013696.32049 -10887243.48847  21709702.825    21709709.090
       238.000         200.000
  21522107.050   -21530210.48949 -16762695.29747  21522106.106    21522113.480
       232.000         191.000
  21987275.553   -14292502.30449 -11120149.05647  21987275.236    21987281.473
       234.000         193.000
  23846326.389    -3141365.92449  -2431845.03145  23846326.042    23846333.766
       208.000         147.000
  20282888.369   -27570615.88149 -21464541.64848  20282887.569    20282893.849
       244.000         214.000
  20712170.259   -21039139.91449 -16349234.18448  20712169.803    20712174.666
       242.000         213.000
 03  3 21  0 59  0.0000000  0  7G14G23G17G 3G31G15G18
  22049705.093   -12788357.49349  -9944067.20046  22049704.497    22049709.741
       233.000         187.000
  21719445.851   -13962498.69649 -10847349.25347  21719445.511    21719451.540
       238.000         200.000
  21530653.299   -21485299.72749 -16727699.92947  21530653.009    21530659.813
       232.000         192.000
  21979417.544   -14333796.33049 -11152326.19547  21979417.136    21979423.612
       233.000         193.000
  23830511.383    -3224473.96349  -2496604.46845  23830511.210    23830519.242
       209.000         148.000
  20282339.248   -27573501.41649 -21466790.12048  20282338.709    20282344.665
       245.000         214.000
  20718123.460   -21007855.62649 -16324856.82548  20718123.172    20718127.975
       242.000         213.000
 03  3 21  0 59 30.0000000  0  7G14G23G17G 3G31G15G18
  22032011.852   -12881335.72649 -10016517.72046  22032011.016    22032016.462
       234.000         187.000
  21729208.891   -13911193.64849 -10807371.30247  21729208.642    21729214.711
       237.000         200.000
  21539257.086   -21440086.69949 -16692469.01347  21539256.693    21539263.603
       232.000         192.000
  21971658.030   -14374572.69049 -11184099.96247  21971657.728    21971663.438
       235.000         193.000
  23814764.448    -3307225.00449  -2561085.73445  23814763.532    23814770.997
       211.000         149.000
  20281852.698   -27576058.20649 -21468782.41948  20281852.086    20281858.276
       245.000         214.000
  20724122.134   -20976332.50049 -16300293.35348  20724121.869    20724126.383
       242.000         213.000
 03  3 21  1  0  0.0000000  0  7G14G23G17G 3G31G15G18
  22014380.754   -12973987.26349 -10088713.67546  22014380.072    22014385.242
       232.000         187.000
  21738992.413   -13859781.01149 -10767309.52447  21738992.129    21738998.237
       238.000         200.000
  21547918.822   -21394569.33449 -16657000.96947  21547918.476    21547925.275
       232.000         192.000
  21963997.544   -14414828.54749 -11215468.14047  21963997.251    21964003.609
       233.000         193.000
  23799086.147    -3389615.10949  -2625285.74845  23799085.556    23799093.037
       208.000         149.000
  20281429.219   -27578283.73849 -21470516.60048  20281428.749    20281434.961
       244.000         214.000
  20730166.324   -20944570.15849 -16275543.48347  20730165.865    20730170.620
       243.000         212.000
 03  3 21  1  0 30.0000000  0  7G14G23G17G 3G31G15G18
  21996812.455   -13066308.83049 -10160652.51946  21996811.814    21996817.405
       233.000         187.000
  21748796.338   -13808261.21549 -10727164.24247  21748795.912    21748802.101
       238.000         200.000
  21556638.640   -21348746.35649 -16621294.77647  21556638.180    21556645.588
       232.000         192.000
  21956436.487   -14454561.70149 -11246429.02147  21956436.096    21956442.875
       233.000         193.000
  23783477.072    -3471640.93849  -2689201.91645  23783476.172    23783483.280
       210.000         150.000
  20281069.134   -27580176.03549 -21471991.11448  20281068.399    20281074.657
       244.000         214.000
  20736255.852   -20912569.34549 -16250607.79648  20736255.609    20736260.353
       243.000         213.000
 03  3 21  1  1  0.0000000  0  7G14G23G17G 3G31G15G18
  21979307.295   -13158298.65249 -10232332.85147  21979306.872    21979312.451
       233.000         188.000
  21758620.249   -13756636.11849 -10686936.91047  21758619.661    21758626.212
       238.000         200.000
  21565416.555   -21302618.27049 -16585350.84147  21565415.743    21565423.010
       231.000         192.000
  21948975.072   -14493771.30949 -11276981.94247  21948974.351    21948981.136
       233.000         193.000
  23767937.655    -3553300.74749  -2752832.86645  23767936.910    23767943.883
       213.000         151.000
  20280772.467   -27581734.80249 -21473205.73348  20280771.754    20280778.136
       244.000         214.000
  20742390.437   -20880331.98949 -16225487.78748  20742390.142    20742394.889
       242.000         213.000
 03  3 21  1  1 30.0000000  0  7G14G23G17G 3G31G15G18
  21961865.992   -13249953.03149 -10303751.80547  21961865.337    21961871.063
       233.000         188.000
  21768464.160   -13704905.99449 -10646627.74047  21768463.886    21768470.031
       237.000         199.000
  21574252.737   -21256183.65649 -16549168.04747  21574252.276    21574258.996
       232.000         191.000
  21941613.714   -14532455.19049 -11307125.20647  21941613.187    21941619.316
       233.000         193.000
  23752468.559    -3634591.07249  -2816175.91045  23752468.009    23752475.775
       213.000         151.000
  20280539.697   -27582957.89149 -21474158.78748  20280539.205    20280545.366
       244.000         214.000
  20748570.000   -20847858.11549 -16200183.47647  20748569.734    20748574.452
       242.000         212.000
 03  3 21  1  2  0.0000000  0  7G14G23G17G 3G31G15G18
  21944488.970   -13341269.55549 -10374907.50147  21944488.707    21944493.721
       233.000         189.000
  21778327.846   -13653071.84449 -10606237.50347  21778327.118    21778333.597
       238.000         199.000
  21583147.481   -21209441.54849 -16512745.64447  21583146.938    21583153.948
       231.000         191.000
  21934352.673   -14570612.10449 -11336857.85647  21934352.454    21934358.637
       235.000         193.000
  23737070.248    -3715509.25849  -2879228.96845  23737069.319    23737077.202
       213.000         151.000
  20280371.109   -27583843.98349 -21474849.24748  20280370.572    20280376.640
       244.000         214.000
  20754794.309   -20815149.20749 -16174696.02147  20754794.085    20754798.746
       243.000         212.000
 03  3 21  1  2 30.0000000  0  7G14G23G17G 3G31G15G18
  21927176.699   -13432245.97249 -10445798.16547  21927176.621    21927181.869
       233.000         189.000
  21788211.109   -13601135.06649 -10565767.30447  21788210.796    21788217.227
       238.000         200.000
  21592100.673   -21162391.98249 -16476083.68247  21592099.970    21592107.369
       231.000         191.000
  21927192.141   -14608240.78949 -11366178.89047  21927192.181    21927198.152
       234.000         193.000
  23721743.181    -3796052.98749  -2941990.25345  23721742.909    23721749.717
       213.000         152.000
  20280266.746   -27584392.30049 -21475276.50348  20280266.124    20280272.344
       244.000         214.000
  20761063.083   -20782206.65549 -16149026.50847  20761062.985    20761067.622
       243.000         212.000
 03  3 21  1  3  0.0000000  0  7G14G23G17G 3G31G15G18
  21909929.582   -13522880.07449 -10516422.10347  21909928.992    21909934.579
       233.000         189.000
  21798113.672   -13549097.04949 -10525218.21647  21798113.600    21798119.626
       237.000         200.000
  21601112.298   -21115035.07449 -16439182.21847  21601111.672    21601119.155
       231.000         190.000
  21920132.379   -14645340.13349 -11395087.45147  21920132.308    21920138.403
       235.000         194.000
  23706487.756    -3876220.05249  -3004458.03245  23706487.520    23706494.838
       214.000         152.000
  20280226.878   -27584601.81549 -21475439.75648  20280226.162    20280232.472
       244.000         214.000
  20767376.053   -20749031.91449 -16123176.06947  20767375.775    20767380.514
       243.000         212.000
 03  3 21  1  3 30.0000000  0  7G14G23G17G 3G31G15G18
  21892748.196   -13613168.65549 -10586776.79347  21892747.556    21892753.433
       233.000         189.000
  21808035.334   -13496958.52449 -10484590.81647  21808035.022    21808041.377
       238.000         200.000
  21610182.699   -21067369.87449 -16402040.53247  21610182.462    21610189.569
       230.000         190.000
  21913173.694   -14681908.44749 -11423582.22647  21913173.616    21913179.886
       235.000         194.000
  23691304.732    -3956007.33449  -3066629.87245  23691304.171    23691311.140
       213.000         153.000
  20280251.776   -27584470.95949 -21475337.79148  20280251.194    20280257.393
       244.000         214.000
  20773733.071   -20715625.58249 -16097145.16948  20773732.844    20773737.717
       242.000         213.000
 03  3 21  1  4  0.0000000  0  7G14G23G17G 3G31G15G18
  21875632.853   -13703110.02849 -10656860.93847  21875632.255    21875637.156
       233.000         189.000
  21817975.810   -13444721.12749 -10443886.36647  21817975.540    21817981.712
       238.000         199.000
  21619311.750   -21019396.27549 -16364658.53547  21619311.382    21619318.402
       230.000         190.000
  21906316.134   -14717945.21049 -11451662.80447  21906316.133    21906321.751
       235.000         195.000
  23676194.251    -4035412.99849  -3128504.36345  23676193.972    23676200.919
       212.000         154.000
  20280341.573   -27583999.03849 -21474970.06348  20280341.102    20280347.085
       244.000         214.000
  20780133.796   -20681989.57249 -16070935.30447  20780133.413    20780138.174
       242.000         212.000
 03  3 21  1  4 30.0000000  0  7G14G23G17G 3G31G15G18
  21858584.098   -13792701.54449 -10726672.46747  21858583.717    21858589.086
       233.000         189.000
  21827934.931   -13392385.71049 -10403105.53347  21827934.435    21827940.593
       237.000         199.000
  21628499.641   -20971113.62249 -16327035.71647  21628499.451    21628506.333
       231.000         190.000
  21899559.996   -14753448.88849 -11479327.99247  21899559.710    21899566.035
       235.000         195.000
  23661156.959    -4114434.40649  -3190079.41745  23661156.592    23661163.735
       214.000         155.000
  20280496.491   -27583184.99749 -21474335.74348  20280495.885    20280502.005
       244.000         214.000
  20786577.969   -20648125.07549 -16044547.39547  20786577.692    20786582.405
       242.000         212.000
 03  3 21  1  5  0.0000000  0  7G14G23G17G 3G31G15G18
  21841602.259   -13881941.60349 -10796210.13147  21841601.734    21841607.202
       234.000         190.000
  21837912.284   -13339954.34349 -10362249.93747  21837911.828    21837918.059
       237.000         198.000
  21637746.373   -20922521.97649 -16289172.13047  21637746.100    21637752.785
       230.000         190.000
  21892905.389   -14788419.14549 -11506577.52747  21892905.337    21892911.488
       235.000         195.000
  23646193.118    -4193069.82749  -3251353.70245  23646192.901    23646199.750
       214.000         155.000
  20280716.600   -27582028.58749 -21473434.64348  20280716.082    20280722.162
       245.000         214.000
  20793065.277   -20614033.90449 -16017982.85547  20793064.871    20793069.997
       242.000         212.000
 03  3 21  1  5 30.0000000  0  7G14G23G17G 3G31G15G18
  21824687.771   -13970827.51849 -10865471.84447  21824687.473    21824692.560
       234.000         190.000
  21847907.736   -13287427.86549 -10321320.22847  21847907.628    21847913.428
       237.000         198.000
  21647051.859   -20873621.59049 -16251067.96147  21647051.388    21647058.281
       230.000         189.000
  21886352.591   -14822854.28049 -11533410.08147  21886352.354    21886358.232
       235.000         195.000
  23631303.262    -4271316.69449  -3312325.22545  23631303.259    23631310.350
       213.000         155.000
  20281002.090   -27580528.46449 -21472265.71748  20281001.695    20281007.581
       245.000         214.000
  20799595.565   -20579717.07149 -15991242.47547  20799595.280    20799600.270
       243.000         212.000
 03  3 21  1  6  0.0000000  0  7G14G23G17G 3G31G15G18
  21807841.365   -14059356.03349 -10934455.06047  21807841.206    21807846.154
       235.000         191.000
  21857921.206   -13234806.75849 -10280316.78247  21857920.816    21857927.007
       237.000         197.000
  21656416.226   -20824411.37749 -16212722.37247  21656416.455    21656423.136
       231.000         189.000
  21879901.997   -14856752.54849 -11559824.30447  21879901.839    21879907.770
       234.000         195.000
  23616487.931    -4349171.81549  -3372991.49545  23616487.606    23616494.056
       215.000         155.000
  20281353.331   -27578682.59049 -21470827.37548  20281352.602    20281358.854
       245.000         215.000
  20806168.624   -20545175.31449 -15964326.83347  20806168.259    20806173.187
       243.000         212.000
 03  3 21  1  6 30.0000000  0  7G14G23G17G 3G31G15G18
  21791063.360   -14147525.16249 -11003158.23847  21791062.541    21791068.572
       235.000         192.000
  21867952.405   -13182092.51949 -10239240.76947  21867951.902    21867957.988
       237.000         197.000
  21665839.718   -20774890.91649 -16174135.02847  21665839.322    21665846.367
       231.000         189.000
  21873553.668   -14890113.05549 -11585819.48047  21873553.164    21873559.445
       235.000         195.000
  23601747.492    -4426632.97749  -3433350.77145  23601746.721    23601753.869
       214.000         155.000
  20281770.515   -27576490.41549 -21469119.19148  20281770.033    20281776.123
       246.000         215.000
  20812784.295   -20510409.97349 -15937236.96547  20812783.989    20812788.855
       244.000         212.000
 03  3 21  1  7  0.0000000  0  7G14G23G17G 3G31G15G18
  21774354.101   -14235332.59049 -11071579.57547  21774353.309    21774358.837
       235.000         192.000
  21878001.105   -13129286.21349 -10198093.00947  21878000.585    21878006.827
       236.000         197.000
  21675322.347   -20725059.61749 -16135305.47147  21675322.207    21675328.925
       230.000         188.000
  21867307.873   -14922934.81249 -11611394.86347  21867307.498    21867313.905
       234.000         195.000
  23587082.454    -4503697.89349  -3493401.28345  23587082.852    23587088.727
       215.000         156.000
  20282253.797   -27573950.83749 -21467140.29848  20282253.298    20282259.345
       245.000         215.000
  20819442.258   -20475422.32649 -15909973.86647  20819442.110    20819446.605
       243.000         212.000
 03  3 21  1  7 30.0000000  0  7G14G23G17G 3G31G15G18
  21757714.118   -14322776.08449 -11139717.32147  21757713.688    21757718.999
       236.000         193.000
  21888067.096   -13076389.07149 -10156874.47447  21888066.747    21888072.900
       236.000         197.000
  21684864.082   -20674917.61749 -16096233.81047  21684863.821    21684871.010
       229.000         188.000
  21861164.721   -14955216.99949 -11636549.79047  21861164.331    21861170.464
       234.000         195.000
  23572493.342    -4580364.33349  -3553141.29445  23572492.763    23572499.887
       215.000         156.000
  20282803.363   -27571062.97149 -21464890.01248  20282802.758    20282808.856
       245.000         215.000
  20826142.193   -20440213.88349 -15882538.72047  20826141.782    20826146.669
       243.000         212.000
 03  3 21  1  8  0.0000000  0  7G14G23G17G 3G31G15G18
  21741143.830   -14409853.67149 -11207569.94147  21741143.440    21741148.676
       236.000         193.000
  21898150.104   -13023402.59949 -10115586.33447  21898150.086    21898155.945
       236.000         197.000
  21694464.940   -20624465.01549 -16056920.12346  21694464.375    21694471.568
       229.000         187.000
  21855124.416   -14986958.92749 -11661283.74747  21855124.082    21855130.410
       235.000         195.000
  23557980.420    -4656630.16249  -3612569.15645  23557979.600    23557986.951
       216.000         157.000
  20283419.367   -27567825.84849 -21462367.58048  20283418.891    20283424.804
       245.000         215.000
  20832883.845   -20404786.14549 -15854932.70247  20832883.575    20832888.244
       243.000         212.000
 03  3 21  1  8 30.0000000  0  7G14G23G17G 3G31G15G18
  21724643.674   -14496562.40749 -11275135.15147  21724643.372    21724648.407
       237.000         193.000
  21908249.979   -12970327.27649 -10074228.95747  21908249.554    21908255.900
       235.000         196.000
  21704125.014   -20573700.79649 -16017363.61646  21704124.617    21704131.557
       229.000         186.000
  21849187.243   -15018158.94749 -11685595.44047  21849186.843    21849192.803
       234.000         194.000
  23543544.300    -4732492.55649  -3671682.65445  23543543.904    23543550.322
       217.000         157.000
  20284102.123   -27564237.96349 -21459571.82648  20284101.489    20284107.547
       245.000         215.000
  20839667.167   -20369139.76149 -15827156.30947  20839666.949    20839671.644
       244.000         212.000
 03  3 21  1  9  0.0000000  0  7G14G23G17G 3G31G15G18
  21708214.166   -14582899.92149 -11342411.10047  21708213.786    21708219.118
       237.000         193.000
  21918366.597   -12917163.99949 -10032803.04147  21918366.351    21918372.473
       235.000         195.000
  21713844.520   -20522624.61549 -15977564.02546  21713844.218    21713851.729
       229.000         186.000
  21843353.365   -15048815.79349 -11709483.87147  21843353.031    21843359.215
       234.000         194.000
  23529185.415    -4807948.93149  -3730479.77045  23529184.385    23529190.563
       216.000         156.000
  20284851.814   -27560298.22549 -21456501.89848  20284851.120    20284857.297
       244.000         214.000
  20846491.923   -20333275.90149 -15799210.44747  20846491.754    20846496.406
       243.000         212.000
 03  3 21  1  9 30.0000000  0  7G14G23G17G 3G31G15G18
  21691855.696   -14668864.03949 -11409396.08447  21691855.431    21691860.217
       236.000         193.000
  21928499.720   -12863914.14749  -9991309.67047  21928499.276    21928505.959
       236.000         195.000
  21723623.323   -20471236.36449 -15937521.26746  21723622.699    21723630.953
       228.000         186.000
  21837623.021   -15078928.70849 -11732948.46747  21837622.858    21837628.654
       235.000         194.000
  23514904.161    -4882997.22449  -3788958.90045  23514903.321    23514909.827
       218.000         157.000
  20285668.579   -27556005.95649 -21453157.27948  20285667.964    20285674.074
       244.000         214.000
  20853357.704   -20297195.99449 -15771096.23847  20853357.421    20853362.101
       242.000         211.000
 03  3 21  1 10  0.0000000  0  7G14G23G17G 3G31G15G18
  21675568.725   -14754452.62149 -11476088.44747  21675568.336    21675573.492
       236.000         194.000
  21938649.114   -12810578.98749  -9949749.81847  21938648.750    21938655.126
       236.000         196.000
  21733461.552   -20419536.13149 -15897235.40046  21733461.108    21733468.094
       228.000         186.000
  21831996.430   -15108496.77849 -11755988.50647  21831995.994    21832002.769
       235.000         195.000
  23500701.049    -4957635.24849  -3847118.35645  23500700.653    23500706.631
       217.000         158.000
  20286552.675   -27551360.05549 -21449537.09748  20286552.082    20286558.186
       244.000         214.000
  20860264.337   -20260901.23449 -15742814.61347  20860263.890    20860268.815
       242.000         211.000
 03  3 21  1 10 30.0000000  0  7G14G23G17G 3G31G15G18
  21659353.629   -14839663.32049 -11542486.35447  21659352.832    21659358.599
       236.000         194.000
  21948814.541   -12757159.26249  -9908124.07247  21948813.782    21948820.648
       235.000         196.000
  21743359.267   -20367523.26049 -15856705.92046  21743358.486    21743366.135
       228.000         186.000
  21826473.677   -15137518.88249 -11778603.11947  21826473.157    21826479.776
       235.000         195.000
  23486576.356    -5031860.37449  -3904956.04745  23486576.172    23486581.602
       216.000         158.000
  20287504.265   -27546359.56249 -21445640.61148  20287503.474    20287509.734
       244.000         214.000
  20867211.636   -20224392.71949 -15714366.43047  20867211.130    20867216.335
       243.000         211.000
 03  3 21  1 11  0.0000000  0  7G14G23G17G 3G31G15G18
  21643210.818   -14924494.02349 -11608588.16547  21643210.507    21643215.338
       236.000         194.000
  21958995.769   -12703656.47049  -9866433.60447  21958995.304    21959001.857
       235.000         195.000
  21753316.619   -20315197.52749 -15815932.65746  21753315.973    21753323.689
       228.000         186.000
  21821054.916   -15165994.52249 -11800791.91247  21821054.828    21821061.173
       235.000         195.000
  23472530.673    -5105670.75049  -3962470.57245  23472530.355    23472536.554
       216.000         158.000
  20288523.409   -27541003.73749 -21441467.24648  20288522.828    20288528.838
       244.000         214.000
  20874199.291   -20187672.27749 -15685753.10747  20874198.963    20874203.928
       242.000         211.000
 03  3 21  1 11 30.0000000  0  8G14G23G 9G17G 3G31G15G18
  21627140.705   -15008942.90849 -11674392.44747  21627140.072    21627145.510
       237.000         194.000
  21969192.573   -12650071.89849  -9824679.40947  21969191.725    21969198.478
       235.000         195.000
                  -1013165.72749   -782942.68943
       204.000          74.000
  21763333.425   -20262559.11449 -15774915.74746  21763333.448    21763340.487
       228.000         186.000
  21815740.225   -15193923.29849 -11822554.57647  21815740.107    21815746.203
       235.000         196.000
  23458564.343    -5179064.17949  -4019660.20245  23458564.194    23458570.993
       218.000         160.000
  20289610.345   -27535291.73349 -21437016.33548  20289609.785    20289615.874
       244.000         214.000
  20881227.054   -20150741.32249 -15656975.74847  20881226.907    20881231.683
       243.000         211.000
 03  3 21  1 12  0.0000000  0  8G14G23G 9G17G 3G31G15G18
  21611143.761   -15093007.39249 -11739897.19747  21611143.147    21611148.385
       236.000         194.000
  21979404.768   -12596406.54849  -9782862.27447  21979404.065    21979410.763
       234.000         194.000
                  -1051170.72849   -812558.00143
       206.000          74.000
  21773409.696   -20209608.31849 -15733655.42646  21773409.143    21773416.937
       229.000         186.000
  21810529.849   -15221304.11849 -11843890.26247  21810529.804    21810535.978
       236.000         196.000
  23444677.785    -5252038.33749  -4076523.11545  23444677.058    23444684.105
       216.000         160.000
  20290765.260   -27529222.49449 -21432287.06348  20290764.676    20290770.872
       244.000         214.000
  20888294.682   -20113600.91349 -15628035.17847  20888294.275    20888299.251
       243.000         211.000
 03  3 21  1 12 30.0000000  0  8G14G23G 9G17G 3G31G15G18
  21595220.463   -15176684.66349 -11805100.22947  21595220.450    21595224.990
       238.000         195.000
  21989632.285   -12542660.66449  -9740982.37847  21989631.755    21989638.367
       235.000         194.000
                  -1088722.71749   -841819.81743
       207.000          74.000
  21783545.703   -20156343.34949 -15692150.29546  21783545.365    21783552.805
       229.000         186.000
  21805424.039   -15248135.34449 -11864797.70047  21805423.979    21805429.779
       237.000         196.000
  23430871.488    -5324590.21949  -4133056.99145  23430870.806    23430877.522
       214.000         160.000
  20291988.537   -27522794.16349 -21427277.97448  20291987.829    20291994.193
       244.000         214.000
  20895402.052   -20076251.34549 -15598931.62347  20895401.515    20895406.496
       242.000         211.000
 03  3 21  1 13  0.0000000  0  8G14G23G 9G17G 3G31G15G18
  21579371.199   -15259973.13249 -11870000.29047  21579370.902    21579376.013
       237.000         195.000
  21999874.828   -12488835.98649  -9699041.09547  21999874.614    21999880.691
       235.000         194.000
                  -1125820.18149   -870726.66445                  23723687.454
       208.000         132.000
  21793741.441   -20102764.82249 -15650400.82946  21793740.707    21793748.446
       228.000         186.000
  21800422.864   -15274416.84349 -11885276.78247  21800422.572    21800428.661
       236.000         196.000
  23417145.844    -5396718.19349  -4189260.54945  23417145.408    23417152.180
       216.000         159.000
  20293280.148   -27516006.46449 -21421988.86748  20293279.545    20293285.691
       244.000         214.000
  20902548.795   -20038694.59949 -15569666.64047  20902548.387    20902553.391
       242.000         211.000
 03  3 21  1 13 30.0000000  0  8G14G23G 9G17G 3G31G15G18
  21563596.556   -15342869.27449 -11934594.64747  21563595.973    21563601.634
       237.000         195.000
  22010132.371   -12434932.33449  -9657038.26247  22010132.043    22010138.127
       235.000         194.000
  23716706.230    -1162459.33349   -899276.58245  23716706.426    23716715.502
       206.000         140.000
  21803996.999   -20048871.56849 -15608406.12746  21803996.607    21804003.991
       229.000         186.000
  21795526.634   -15300146.71949 -11905326.02447  21795526.421    21795532.512
       237.000         196.000
  23403501.552    -5468418.79449  -4245131.07845  23403500.234    23403507.294
       215.000         159.000
  20294640.564   -27508857.35449 -21416418.13548  20294639.823    20294646.070
       244.000         214.000
  20909735.036   -20000930.65149 -15540240.19647  20909734.592    20909739.646
       243.000         211.000
 03  3 21  1 14  0.0000000  0  8G14G23G 9G17G 3G31G15G18
  21547896.907   -15425371.31049 -11998881.90647  21547896.172    21547901.637
       238.000         196.000
  22020404.691   -12380951.01749  -9614974.91947  22020404.161    22020410.535
       235.000         194.000
  23709821.678    -1198638.26849   -927467.90645  23709821.242    23709829.757
       207.000         142.000
  21814312.543   -19994663.64949 -15566166.22746  21814312.316    21814319.367
       228.000         186.000
  21790735.493   -15325324.54849 -11924945.10147  21790735.348    21790741.320
       237.000         197.000
  23389938.878    -5539690.18149  -4300667.16845  23389938.043    23389944.283
       213.000         158.000
  20296069.859   -27501346.29349 -21410565.36248  20296069.294    20296075.288
       244.000         214.000
  20916960.408   -19962961.12449 -15510653.56047  20916960.130    20916965.083
       243.000         211.000
 03  3 21  1 14 30.0000000  0  8G14G23G 9G17G 3G31G15G18
  21532272.640   -15507477.16749 -12062860.45947  21532272.158    21532277.456
       238.000         196.000
  22030691.525   -12326893.24549  -9572852.00047  22030690.910    22030697.659
       235.000         195.000
  23703025.044    -1234354.68249   -955298.81545  23703024.677    23703032.468
       207.000         143.000
  21824687.919   -19940140.73549 -15523680.87346  21824687.413    21824694.799
       229.000         186.000
  21786049.466   -15349949.52949 -11944133.38147  21786049.142    21786055.355
       237.000         197.000
  23376458.350    -5610530.17249  -4355867.10545  23376457.725    23376464.106
       216.000         159.000
  20297568.226   -27493472.50749 -21404429.94948  20297567.596    20297573.765
       244.000         214.000
  20924224.710   -19924787.21649 -15480907.66947  20924224.581    20924229.361
       243.000         211.000
 03  3 21  1 15  0.0000000  0  8G14G23G 9G17G 3G31G15G18
  21516723.872   -15589186.44749 -12126529.98747  21516723.302    21516728.610
       236.000         197.000
  22040992.432   -12272761.63249  -9530671.54047  22040992.079    22040998.387
       235.000         195.000
  23696316.649    -1269607.88549   -982768.76745  23696316.671    23696324.922
       205.000         143.000
  21835122.999   -19885304.55549 -15480951.41846  21835123.279    21835129.838
       229.000         186.000
  21781468.549   -15374022.33049 -11962891.39547  21781468.433    21781474.489
       238.000         197.000
  23363060.259    -5680938.19049  -4410730.45245  23363060.300    23363066.194
       216.000         160.000
  20299135.544   -27485236.30849 -21398012.13648  20299135.091    20299141.244
       244.000         214.000
  20931527.387   -19886411.66749 -15451004.65647  20931527.015    20931531.766
       242.000         211.000
 03  3 21  1 15 30.0000000  0  8G14G23G 9G17G 3G31G15G18
  21501251.040   -15670496.55649 -12189888.47847  21501250.744    21501255.730
       237.000         197.000
  22051307.274   -12218556.91549  -9488434.12147  22051307.278    22051313.622
       235.000         195.000
  23689696.818    -1304395.05949  -1009875.57745  23689696.025    23689703.961
       201.000         141.000
  21845617.635   -19830154.91749 -15437977.71646  21845617.034    21845624.347
       229.000         186.000
  21776992.905   -15397542.22449 -11981218.56947  21776992.772    21776998.255
       237.000         197.000
  23349744.737    -5750911.74949  -4465255.25245  23349743.459    23349751.299
       215.000         160.000
  20300772.072   -27476636.45549 -21391310.95548  20300771.538    20300777.452
       244.000         214.000
  20938868.162   -19847835.64349 -15420945.42847  20938867.913    20938872.578
       243.000         211.000
 03  3 21  1 16  0.0000000  0  8G14G23G 9G17G 3G31G15G18
  21485854.756   -15751404.34149 -12252933.46247  21485854.303    21485859.302
       238.000         197.000
  22061636.055   -12164278.92049  -9446139.59447  22061635.548    22061642.174
       236.000         195.000
  23683166.283    -1338712.98149  -1036616.75245  23683166.035    23683174.415
       206.000         142.000
  21856172.292   -19774690.11149 -15394758.42746  21856171.917    21856179.543
       229.000         186.000
  21772622.789   -15420507.17449 -11999113.32747  21772622.607    21772628.765
       237.000         197.000
  23336512.297    -5820447.48549  -4519438.88345  23336511.189    23336518.879
       214.000         160.000
  20302478.213   -27467670.84349 -21384324.76948  20302477.477    20302483.813
       245.000         214.000
  20946247.102   -19809059.09549 -15390729.94347  20946246.615    20946251.560
       243.000         211.000
 03  3 21  1 16 30.0000000  0  8G14G23G 9G17G 3G31G15G18
  21470535.350   -15831908.11249 -12315663.63947  21470534.848    21470539.939
       238.000         197.000
  22071978.513   -12109929.12649  -9403789.12647  22071978.118    22071984.604
       234.000         194.000
  23676725.455    -1372559.91649  -1062990.92445  23676725.564    23676733.261
       205.000         143.000
  21866786.750   -19718910.92949 -15351294.16546  21866786.009    21866793.940
       229.000         186.000
  21768358.317   -15442917.16149 -12016575.64447  21768358.269    21768364.121
       237.000         197.000
  23323363.658    -5889543.70849  -4573280.04945  23323363.761    23323370.324
       215.000         161.000
  20304253.907   -27458339.34449 -21377053.47948  20304253.328    20304259.335
       245.000         214.000
  20953663.792   -19770083.95849 -15360359.72247  20953663.391    20953668.358
       243.000         210.000
 03  3 21  1 17  0.0000000  0  8G14G23G 9G17G 3G31G15G18
  21455293.267   -15912005.56349 -12378077.20747  21455292.770    21455297.866
       239.000         197.000
  22082334.433   -12055508.44749  -9361383.41747  22082334.028    22082340.272
       234.000         193.000
  23670374.687    -1405933.39349  -1088996.16145  23670374.611    23670381.759
       207.000         143.000
  21877461.072   -19662817.14549 -15307584.75546  21877460.719    21877468.257
       230.000         186.000
  21764199.575   -15464771.33849 -12033604.86047  21764198.949    21764205.422
       237.000         197.000
  23310299.227    -5958198.17949  -4626776.98045  23310299.136    23310305.835
       214.000         162.000
  20306099.515   -27448640.62149 -21369496.03548  20306098.970    20306105.005
       244.000         214.000
  20961118.156   -19730911.00449 -15329835.35547  20961118.000    20961122.764
       242.000         210.000
 03  3 21  1 17 30.0000000  0  8G14G23G 9G17G 3G31G15G18
  21440128.885   -15991694.60449 -12440172.52847  21440128.158    21440133.640
       239.000         198.000
  22092703.711   -12001017.74449  -9318923.14647  22092703.040    22092709.565
       233.000         192.000
  23664114.406    -1438830.95849  -1114630.54845  23664114.165    23664122.018
       206.000         144.000
  21888195.481   -19606407.84049 -15263629.49246  21888195.298    21888202.502
       229.000         186.000
  21760146.722   -15486069.07749 -12050200.48547  21760146.414    21760152.610
       236.000         197.000
  23297319.124    -6026408.60749  -4679927.90946  23297318.572    23297325.490
       213.000         163.000
  20308015.194   -27438573.59749 -21361651.60448  20308014.434    20308020.920
       244.000         214.000
  20968610.060   -19691541.14549 -15299157.55347  20968610.053    20968614.672
       244.000         211.000
 03  3 21  1 18  0.0000000  0  8G14G23G 9G17G 3G31G15G18
  21425042.642   -16070973.14349 -12501947.98347  21425042.032    21425047.538
       239.000         198.000
  22103086.121   -11946457.77049  -9276408.90347  22103085.722    22103091.884
       233.000         192.000
  23657945.113    -1471250.25049  -1139892.26445  23657944.946    23657953.032
       204.000         143.000
  21898989.822   -19549683.31249 -15219428.59846  21898989.175    21898996.516
       229.000         185.000
  21756199.854   -15506809.86249 -12066362.12947  21756199.377    21756205.816
       236.000         197.000
  23284423.923    -6094172.82449  -4732731.12946  23284423.929    23284429.794
       217.000         163.000
  20310001.041   -27428137.76949 -21353519.79448  20310000.379    20310006.633
       244.000         214.000
  20976139.153   -19651975.74949 -15268327.38347  20976138.801    20976143.674
       242.000         210.000
 03  3 21  1 18 30.0000000  0  8G14G23G 9G17G 3G31G15G18
  21410034.942   -16149838.84249 -12563401.74447  21410034.302    21410039.815
       239.000         199.000
  22113481.503   -11891829.44649  -9233841.39347  22113481.206    22113487.526
       234.000         192.000
  23651867.273    -1503189.06249  -1164779.59145  23651866.683    23651874.784
       209.000         143.000
  21909844.210   -19492643.19149 -15174981.78746  21909843.281    21909850.992
       229.000         185.000
  21752359.079   -15526993.14449 -12082089.34847  21752358.945    21752365.350
       236.000         197.000
  23271614.191    -6161488.63549  -4785184.96446  23271613.287    23271620.532
       216.000         164.000
  20312057.356   -27417331.90549 -21345099.64248  20312056.656    20312062.855
       244.000         214.000
  20983705.225   -19612215.82149 -15237345.63347  20983704.933    20983709.564
       242.000         210.000
 03  3 21  1 19  0.0000000  0  8G14G23G 9G17G 3G31G15G18
  21395106.206   -16228290.01949 -12624532.49547  21395105.986    21395110.715
       240.000         200.000
  22123889.690   -11837134.05849  -9191221.62447  22123888.621    22123895.700
       234.000         192.000
  23645881.358    -1534645.59749  -1189291.09645  23645881.747    23645888.629
       208.000         145.000
  21920758.602   -19435287.75749 -15130289.27946  21920757.825    21920765.555
       229.000         185.000
  21748624.568   -15546618.32449 -12097381.68347  21748624.011    21748630.562
       236.000         197.000
  23258890.022    -6228354.19949  -4837287.95446  23258888.926    23258896.256
       218.000         164.000
  20314184.149   -27406155.62249 -21336390.85748  20314183.653    20314189.936
       244.000         213.000
  20991308.019   -19572262.85049 -15206213.45547  20991308.000    20991312.526
       242.000         210.000
 03  3 21  1 19 30.0000000  0  8G14G23G 9G17G 3G31G15G18
  21380256.669   -16306324.76949 -12685338.76547  21380256.277    21380261.138
       241.000         201.000
  22134310.482   -11782372.71449  -9148550.46247  22134310.396    22134316.482
       234.000         192.000
  23639987.501    -1565617.67849  -1213425.11545  23639986.568    23639995.271
       209.000         145.000
  21931732.969   -19377616.83449 -15085350.92646  21931731.938    21931739.572
       229.000         184.000
  21744996.215   -15565684.99849 -12112238.82247  21744996.102    21745001.928
       237.000         197.000
  23246252.010    -6294767.36449  -4889038.42146  23246251.565    23246258.018
       218.000         165.000
  20316381.579   -27394607.97749 -21327392.69248  20316380.802    20316387.132
       243.000         213.000
  20998947.330   -19532117.98449 -15174931.74847  20998947.101    20998951.927
       242.000         210.000
 03  3 21  1 20  0.0000000  0  8G14G23G 9G17G 3G31G15G18
  21365486.883   -16383940.78949 -12745818.74947  21365486.701    21365491.384
       241.000         201.000
  22144743.695   -11727546.10449  -9105828.44447  22144743.443    22144749.449
       235.000         193.000
  23634186.390    -1596102.85749  -1237179.73445  23634185.854    23634193.367
       207.000         144.000
  21942767.453   -19319630.23649 -15040166.60046  21942766.999    21942774.702
       228.000         184.000
  21741474.364   -15584192.61349 -12126660.32747  21741474.081    21741480.383
       237.000         197.000
  23233700.502    -6360726.07749  -4940434.76646  23233700.364    23233707.109
       218.000         165.000
  20318649.878   -27382687.83249 -21318104.27148  20318649.422    20318655.388
       244.000         213.000
  21006622.940   -19491782.25249 -15143501.32247  21006622.388    21006627.683
       241.000         210.000
 03  3 21  1 20 30.0000000  0  8G14G23G 9G17G 3G31G15G18
  21350797.073   -16461136.34049 -12805971.09347  21350796.781    21350801.299
       240.000         202.000
  22155189.101   -11672655.39449  -9063056.48347  22155188.362    22155195.022
       234.000         192.000
  23628478.171    -1626099.22649  -1260553.47645  23628477.625    23628485.608
       210.000         144.000
  21953861.951   -19261328.32449 -14994736.57146  21953861.268    21953868.446
       227.000         183.000
  21738058.895   -15602141.06549 -12140646.12947  21738058.455    21738064.382
       235.000         196.000
  23221235.897    -6426228.25949  -4991475.38046  23221235.353    23221241.880
       217.000         166.000
  20320989.266   -27370394.46549 -21308525.03048  20320988.822    20320994.962
       244.000         213.000
  21014334.642   -19451256.84349 -15111923.09547  21014334.309    21014339.235
       242.000         209.000
 03  3 21  1 21  0.0000000  0  8G14G23G 9G17G 3G31G15G18
  21336187.753   -16537908.69749 -12865793.67747  21336187.325    21336192.252
       242.000         202.000
  22165646.613   -11617700.75549  -9020234.70147  22165645.963    22165652.518
       234.000         192.000
  23622863.541    -1655603.95349  -1283544.10045  23622863.922    23622870.213
       209.000         143.000
  21965016.544   -19202710.43649 -14949060.32346  21965016.066    21965023.067
       228.000         183.000
  21734750.011   -15619528.98249 -12154195.13847  21734749.766    21734755.850
       236.000         196.000
  23208858.523    -6491271.25049  -5042158.18046  23208857.342    23208864.878
       214.000         165.000
  20323399.954   -27357726.39449 -21298653.81248  20323399.363    20323405.542
       244.000         213.000
  21022082.320   -19410542.54849 -15080197.67947  21022082.025    21022086.782
       242.000         209.000
 03  3 21  1 21 30.0000000  0  8G14G23G 9G17G 3G31G15G18
  21321659.274   -16614256.12549 -12925285.14847  21321658.783    21321663.530
       241.000         202.000
  22176116.115   -11562683.26649  -8977363.93747  22176116.064    22176121.981
       234.000         192.000
  23617342.801    -1684615.40849  -1306150.34845  23617342.584    23617351.116
       209.000         144.000
  21976231.277   -19143776.83249 -14903138.07446  21976230.552    21976238.213
       227.000         182.000
  21731547.912   -15636355.96349 -12167307.06147  21731547.832    21731553.757
       236.000         197.000
  23196568.868    -6555853.24249  -5092481.75446  23196569.149    23196575.195
       218.000         166.000
  20325882.094   -27344682.80849 -21288489.98048  20325881.525    20325887.617
       244.000         213.000
  21029865.768   -19369640.51349 -15048325.97447  21029865.597    21029870.241
       242.000         209.000
 03  3 21  1 22  0.0000000  0  8G14G23G 9G17G 3G31G15G18
  21307211.907   -16690177.37549 -12984444.53647  21307211.604    21307216.332
       241.000         202.000
  22186597.221   -11507604.76149  -8934445.62847  22186596.839    22186602.771
       234.000         191.000
  23611916.108    -1713132.33949  -1328371.26745  23611915.321    23611924.804
       208.000         145.000
  21987505.984   -19084527.93149 -14856970.13046  21987505.417    21987513.088
       227.000         182.000
  21728452.471   -15652622.82549 -12179982.53147  21728452.355    21728458.261
       237.000         196.000
  23184367.273    -6619973.11049  -5142445.23646  23184366.517    23184373.015
       219.000         167.000
  20328435.638   -27331263.95849 -21278033.73548  20328435.097    20328441.000
       244.000         213.000
  21037684.488   -19328552.77949 -15016309.56847  21037684.184    21037688.900
       242.000         209.000
 03  3 21  1 22 30.0000000  0  8G14G23G 9G17G 3G31G15G18
  21292846.158   -16765669.60149 -13043269.61547  21292845.820    21292850.691
       241.000         203.000
  22197089.969   -11452464.98249  -8891479.58747  22197089.545    22197095.668
       233.000         191.000
  23606584.141    -1741151.57249  -1350204.37345  23606584.502    23606592.253
       207.000         144.000
  21998840.943   -19024962.56949 -14810555.60146  21998840.959    21998847.767
       228.000         182.000
  21725463.933   -15668328.10149 -12192220.40147  21725463.664    21725469.483
       237.000         196.000
  23172254.189    -6683627.83649  -5192046.26946  23172254.002    23172260.422
       219.000         168.000
  20331060.933   -27317467.93949 -21267283.58948  20331060.290    20331066.288
       244.000         214.000
  21045538.516   -19287279.59049 -14984148.64747  21045538.057    21045543.196
       242.000         209.000
 03  3 21  1 23  0.0000000  0  8G14G23G 9G17G 3G31G15G18
  21278562.393   -16840731.27649 -13101759.19947  21278561.938    21278566.952
       241.000         203.000
  22207594.106   -11397265.22549  -8848466.80147  22207593.703    22207600.186
       233.000         191.000
  23601347.227    -1768671.35849  -1371648.30945  23601346.977    23601354.402
       205.000         143.000
  22010235.993   -18965081.37749 -14763894.96846  22010235.621    22010243.344
       228.000         182.000
  21722582.177   -15683471.56749 -12204020.49247  21722581.730    21722587.845
       236.000         196.000
  23160229.931    -6746815.60549  -5241283.43746  23160228.817    23160236.003
       219.000         167.000
  20333758.102   -27303294.27249 -21256239.17448  20333757.403    20333763.500
       244.000         214.000
  21053427.625   -19245822.01349 -14951844.04947  21053427.216    21053432.075
       242.000         209.000
 03  3 21  1 23 30.0000000  0  8G14G23G 9G17G 3G31G15G18
  21264360.941   -16915360.06949 -13159911.47747  21264360.679    21264365.330
       240.000         203.000
  22218109.553   -11342006.04549  -8805407.71247  22218109.283    22218115.376
       234.000         191.000
  23596205.884    -1795689.41749  -1392701.24745  23596205.957    23596211.807
       208.000         142.000
  22021691.169   -18904884.18149 -14716988.08846  22021690.871    22021698.365
       228.000         182.000
  21719807.404   -15698052.81249 -12215382.49247  21719807.120    21719813.008
       235.000         196.000
  23148294.927    -6809534.16049  -5290154.98646  23148294.679    23148300.578
       219.000         167.000
  20336527.300   -27288741.86949 -21244899.63948  20336526.556    20336532.734
       244.000         213.000
  21061351.603   -19204181.06449 -14919396.56647  21061351.300    21061356.090
       242.000         209.000
 03  3 21  1 24  0.0000000  0  8G14G23G 9G17G 3G31G15G18
  21250242.222   -16989554.52749 -13217725.30347  21250241.984    21250246.787
       241.000         204.000
  22228636.150   -11286688.55049  -8762303.18447  22228635.746    22228642.139
       233.000         191.000
  23591160.278    -1822204.14549  -1413362.01345  23591160.419    23591167.664
       207.000         142.000
  22033206.505   -18844370.96949 -14669834.97246  22033206.319    22033213.931
       226.000         181.000
  21717139.623   -15712071.82049 -12226306.38747  21717139.267    21717144.905
       236.000         195.000
  23136449.575    -6871781.88349  -5338659.66146  23136449.339    23136455.208
       219.000         168.000
  20339368.742   -27273810.08149 -21233264.48348  20339368.228    20339374.207
       244.000         213.000
  21069310.286   -19162358.21249 -14886807.33747  21069310.130    21069314.616
       242.000         209.000
 03  3 21  1 24 30.0000000  0  8G14G23G 9G17G 3G31G15G18
  21236206.580   -17063312.42249 -13275198.95747  21236206.210    21236211.160
       240.000         204.000
  22239173.649   -11231313.70449  -8719153.96447  22239173.121    22239179.646
       234.000         191.000
  23586210.855    -1848213.35949  -1433628.87745  23586210.336    23586217.551
       205.000         142.000
  22044781.859   -18783541.86049 -14622435.69946  22044781.635    22044789.100
       227.000         181.000
  21714578.998   -15725528.11649 -12236791.80647  21714579.040    21714584.710
       235.000         196.000
  23124694.164    -6933556.73249  -5386795.85346  23124693.398    23124700.346
       219.000         168.000
  20342282.488   -27258498.18249 -21221333.13148  20342281.821    20342288.042
       244.000         213.000
  21077303.331   -19120354.57449 -14854077.23447  21077303.017    21077307.841
       242.000         208.000
 03  3 21  1 25  0.0000000  0  8G14G23G 9G17G 3G31G15G18
  21222254.309   -17136631.83649 -13332330.93547  21222253.989    21222259.008
       241.000         204.000
  22249721.926   -11175882.25649  -8675960.64647  22249721.348    22249727.729
       233.000         191.000
  23581358.064    -1873715.04749  -1453500.24345  23581358.165    23581365.384
       206.000         143.000
  22056417.434   -18722396.82849 -14574790.25346  22056416.970    22056424.876
       227.000         181.000
  21712125.541   -15738421.39149 -12246838.50747  21712125.598    21712131.230
       236.000         196.000
  23113029.045    -6994856.74749  -5434562.05046  23113028.293    23113035.500
       220.000         168.000
  20345268.748   -27242805.17549 -21209104.81748  20345268.054    20345274.376
       244.000         213.000
  21085330.612   -19078170.83649 -14821206.79547  21085330.140    21085335.088
       242.000         207.000
 03  3 21  1 25 30.0000000  0  8G14G23G 9G17G 3G31G15G18
  21208385.863   -17209510.92549 -13389119.80647  21208385.560    21208390.611
       240.000         205.000
  22260280.831   -11120394.85649  -8632723.72047  22260280.488    22260287.126
       233.000         191.000
  23576602.087    -1898707.11349  -1472974.50545  23576602.258    23576609.481
       209.000         143.000
  22068113.165   -18660935.75949 -14526898.55046  22068112.414    22068120.439
       227.000         181.000
  21709779.168   -15750751.54149 -12256446.40147  21709778.643    21709784.825
       236.000         196.000
  23101454.828    -7055679.82149  -5481956.60046  23101454.806    23101460.980
       221.000         169.000
  20348327.733   -27226730.07349 -21196578.76348  20348327.196    20348333.193
       244.000         213.000
  21093391.896   -19035808.23049 -14788196.98047  21093391.259    21093396.400
       241.000         207.000
 03  3 21  1 26  0.0000000  0  8G14G23G 9G17G 3G31G15G18
  21194601.461   -17281948.19149 -13445564.39747  21194600.893    21194606.236
       240.000         205.000
  22270850.137   -11064852.76849  -8589444.18947  22270849.971    22270856.562
       232.000         191.000
  23571943.447    -1923188.25549  -1492050.65345  23571943.303    23571951.654
       207.000         144.000
  22079868.931   -18599159.07449 -14478760.91046  22079868.685    22079875.796
       227.000         180.000
  21707539.926   -15762518.44549 -12265615.40847  21707540.153    21707545.639
       237.000         196.000
  23089971.610    -7116024.45549  -5528978.34346  23089971.226    23089977.889
       219.000         170.000
  20351459.524   -27210272.67749 -21183754.82348  20351459.008    20351464.961
       244.000         213.000
  21101486.932   -18993268.29149 -14755048.98047  21101486.405    21101491.674
       241.000         207.000
 03  3 21  1 26 30.0000000  0  8G14G23G 9G17G 3G31G15G18
  21180901.647   -17353940.99849 -13501662.65547  21180901.157    21180906.404
       241.000         205.000
  22281429.909   -11009255.78249  -8546121.87747  22281429.647    22281436.045
       233.000         191.000
  23567382.449    -1947155.70549  -1510726.50945  23567382.471    23567389.821
       206.000         145.000
  22091684.837   -18537066.14849 -14430376.84046  22091683.925    22091692.034
       225.000         180.000
  21705408.121   -15773721.25649 -12274344.86847  21705407.969    21705413.584
       236.000         196.000
  23078579.910    -7175887.84149  -5575625.08146  23078579.202    23078585.934
       221.000         169.000
  20354664.298   -27193431.28849 -21170631.66348  20354663.580    20354669.713
       244.000         213.000
  21109615.750   -18950551.16249 -14721762.90947  21109615.547    21109620.328
       241.000         207.000
 03  3 21  1 27  0.0000000  0  8G14G23G 9G17G 3G31G15G18
  21167286.674   -17425488.02849 -13557413.56147  21167286.173    21167291.527
       241.000         205.000
  22292019.882   -10953605.30649  -8502757.88647  22292019.636    22292026.046
       233.000         191.000
  23562919.648    -1970607.86849  -1529000.86445  23562919.400    23562927.036
       207.000         145.000
  22103560.707   -18474657.67449 -14381746.89946  22103560.473    22103568.199
       226.000         179.000
  21703383.522   -15784360.38749 -12282635.08847  21703383.081    21703389.151
       236.000         196.000
  23067280.108    -7235268.71749  -5621895.83446  23067279.755    23067286.391
       219.000         170.000
  20357942.215   -27176205.67049 -21157209.10648  20357941.570    20357947.670
       244.000         213.000
  21117777.968   -18907658.39649 -14688339.98247  21117777.637    21117782.678
       241.000         207.000
 03  3 21  1 27 30.0000000  0  8G14G23G 9G17G 3G31G15G18
  21153756.884   -17496587.49349 -13612815.70747  21153756.359    21153761.669
       240.000         205.000
  22302619.872   -10897902.14549  -8459352.84247  22302619.878    22302626.062
       233.000         191.000
  23558555.164    -1993542.91849  -1546872.27045  23558554.572    23558562.028
       207.000         144.000
  22115496.767   -18411933.41649 -14332870.88446  22115496.770    22115504.206
       226.000         179.000
  21701466.263   -15794435.49549 -12290485.81147  21701465.698    21701472.127
       236.000         196.000
  23056072.490    -7294165.09749  -5667789.08046  23056072.373    23056078.183
       223.000         170.000
  20361293.411   -27158595.07449 -21143486.56548  20361292.860    20361299.088
       244.000         213.000
  21125973.415   -18864591.11149 -14654781.06947  21125973.063    21125978.279
       241.000         207.000
 03  3 21  1 28  0.0000000  0  8G14G23G 9G17G 3G31G15G18
  21140312.610   -17567237.38649 -13667867.54247  21140312.106    21140317.486
       241.000         205.000
  22313229.733   -10842147.05749  -8415907.32847  22313229.263    22313236.218
       232.000         190.000
  23554289.357    -2015959.13349  -1564339.37445  23554288.855    23554296.943
       209.000         146.000
  22127492.949   -18348893.50149 -14283748.90746  22127492.516    22127500.218
       226.000         179.000
  21699656.376   -15803946.45149 -12297896.93747  21699656.301    21699662.061
       237.000         196.000
  23044957.433    -7352575.08249  -5713303.31346  23044957.448    23044963.503
       223.000         170.000
  20364717.971   -27140598.67749 -21129463.39648  20364717.360    20364723.608
       243.000         213.000
  21134201.916   -18821350.33149 -14621086.96247  21134201.617    21134206.507
       241.000         207.000
 03  3 21  1 28 30.0000000  0  8G14G23G 9G17G 3G31G15G18
  21126954.139   -17637436.41149 -13722568.05047  21126953.414    21126958.858
       240.000         205.000
  22323849.267   -10786341.18049  -8372422.25047  22323848.871    22323855.697
       232.000         189.000
  23550122.628    -2037855.30849  -1581401.25745  23550122.609    23550129.540
       210.000         146.000
  22139549.073   -18285538.14049 -14234381.13146  22139548.490    22139556.791
       225.000         178.000
  21697953.822   -15812893.53149 -12304868.68247  21697953.839    21697959.658
       237.000         197.000
  23033935.189    -7410497.42849  -5758437.56146  23033934.709    23033941.096
       222.000         171.000
  20368216.033   -27122216.02949 -21115139.26148  20368215.368    20368221.641
       243.000         213.000
  21142463.087   -18777937.59849 -14587258.86147  21142462.818    21142467.780
       241.000         207.000
 03  3 21  1 29  0.0000000  0  8G14G23G 9G17G 3G31G15G18
  21113681.855   -17707182.20849 -13776915.40047  21113681.602    21113686.408
       240.000         205.000
  22334478.448   -10730484.65949  -8328897.69947  22334478.192    22334484.397
       232.000         189.000
  23546055.346    -2059228.81849  -1598055.86445  23546055.055    23546062.403
       210.000         147.000
  22151665.258   -18221867.12449 -14184767.39246  22151664.212    22151671.998
       225.000         178.000
  21696358.666   -15821276.06649 -12311400.52647  21696358.374    21696364.724
       237.000         197.000
  23023006.227    -7467929.46949  -5803189.75346  23023005.655    23023012.469
       223.000         171.000
  20371787.853   -27103445.90749 -21100513.19848  20371787.185    20371793.545
       243.000         213.000
  21150756.904   -18734353.09849 -14553296.92047  21150756.606    21150761.696
       241.000         206.000
 03  3 21  1 29 30.0000000  0  8G14G23G 9G17G 3G31G15G18
  21100496.229   -17776473.22449 -13830908.36847  21100495.801    21100500.969
       240.000         205.000
  22345117.098   -10674578.51049  -8285334.48247  22345116.448    22345122.734
       231.000         188.000
  23542087.810    -2080077.96749  -1614301.88845  23542087.692    23542095.260
       210.000         149.000
  22163841.556   -18157880.61549 -14134907.80446  22163840.942    22163848.552
       224.000         177.000
  21694870.871   -15829094.31149 -12317492.64747  21694870.564    21694876.744
       237.000         198.000
  23012170.811    -7524869.73549  -5847558.75446  23012170.586    23012176.511
       223.000         171.000
  20375433.527   -27084287.69049 -21085584.72447  20375432.811    20375439.161
       243.000         212.000
  21159083.165   -18690598.22449 -14519202.21647  21159082.982    21159087.773
       241.000         206.000
 03  3 21  1 30  0.0000000  0  8G14G23G 9G17G 3G31G15G18
  21087397.232   -17845308.74249 -13884546.40047  21087396.909    21087401.822
       240.000         205.000
  22355764.801   -10618624.45749  -8241733.93346  22355764.326    22355770.666
       232.000         187.000
  23538220.346    -2100402.10749  -1630138.80745  23538220.159    23538227.675
       210.000         150.000
  22176077.663   -18093579.72149 -14084803.25646  22176077.061    22176084.336
       224.000         177.000
  21693490.278   -15836349.39949 -12323145.95547  21693490.259    21693496.391
       238.000         198.000
  23001429.212    -7581317.29549  -5891543.81946  23001427.853    23001435.587
       221.000         171.000
  20379153.042   -27064741.57649 -21070353.99648  20379152.546    20379158.742
       244.000         213.000
  21167441.511   -18646674.85749 -14484976.22747  21167441.255    21167446.108
       240.000         206.000
 03  3 21  1 30 30.0000000  0  8G14G23G 9G17G 3G31G15G18
  21074385.505   -17913685.57149 -13937827.02047  21074384.837    21074390.038
       240.000         205.000
  22366421.747   -10562621.86049  -8198095.55546  22366421.499    22366427.518
       231.000         186.000
  23534453.269    -2120198.17249  -1645564.23545  23534452.997    23534460.746
       211.000         149.000
  22188373.762   -18028962.92849 -14034452.53246  22188372.749    22188381.017
       223.000         176.000
  21692217.190   -15843039.73249 -12328359.19147  21692216.921    21692223.295
       238.000         198.000
  22990781.854    -7637269.02249  -5935142.52946  22990780.904    22990787.964
       221.000         170.000
  20382946.758   -27044805.62349 -21054819.49148  20382946.090    20382952.352
       243.000         213.000
  21175831.980   -18602582.71949 -14450618.72747  21175831.697    21175836.580
       240.000         206.000
 03  3 21  1 31  0.0000000  0  8G14G23G 9G17G 3G31G15G18
  21061461.299   -17981602.38049 -13990749.17747  21061460.754    21061465.746
       240.000         205.000
  22377087.702   -10506571.75449  -8154420.15646  22377087.215    22377093.534
       231.000         186.000
  23530786.945    -2139464.61449  -1660576.99945  23530787.015    23530793.489
       212.000         149.000
  22200729.782   -17964031.56849 -13983856.70046  22200729.505    22200737.124
       223.000         175.000
  21691051.514   -15849165.48749 -12333132.49647  21691051.537    21691057.455
       237.000         199.000
  22980229.137    -7692723.44749  -5978353.71746  22980228.749    22980235.400
       223.000         172.000
  20386814.694   -27024479.35749 -21038980.84048  20386813.832    20386820.303
       243.000         213.000
  21184254.311   -18558323.00849 -14416130.64047  21184253.886    21184259.203
       240.000         206.000
 03  3 21  1 31 30.0000000  0  8G14G23G 9G17G 3G31G15G18
  21048624.974   -18049057.46849 -14043311.55547  21048624.391    21048629.626
       239.000         205.000
  22387762.551   -10450474.88149  -8110708.31146  22387762.285    22387768.285
       231.000         186.000
  23527221.756    -2158199.91849  -1675175.85545  23527221.194    23527228.948
       214.000         149.000
  22213145.773   -17898785.26749 -13933015.44546  22213145.709    22213152.493
       224.000         175.000
  21689993.301   -15854726.62749 -12337465.85247  21689993.480    21689999.256
       237.000         199.000
  22969771.504    -7747678.77749  -6021176.01046  22969770.849    22969777.194
       224.000         172.000
  20390757.005   -27003762.11249 -21022837.53648  20390756.523    20390762.705
       244.000         213.000
  21192708.340   -18513896.74249 -14381512.78547  21192708.213    21192713.063
       240.000         205.000
 03  3 21  1 32  0.0000000  0  8G14G23G 9G17G 3G31G15G18
  21035876.818   -18116049.30849 -14095512.95747  21035876.586    21035881.409
       240.000         205.000
  22398446.165   -10394332.14349  -8066960.73146  22398445.869    22398452.468
       231.000         186.000
  23523757.914    -2176402.62849  -1689359.72845  23523757.811    23523764.074
       212.000         149.000
  22225621.695   -17833224.20849 -13881928.94146  22225621.003    22225628.338
       224.000         176.000
  21689042.438   -15859723.74549 -12341359.70947  21689042.478    21689048.325
       237.000         199.000
  22959409.127    -7802133.62349  -6063608.31346  22959408.642    22959415.393
       223.000         173.000
  20394773.938   -26982653.33949 -21006389.14248  20394773.382    20394779.609
       243.000         213.000
  21201193.825   -18469305.33549 -14346766.22947  21201193.299    21201198.406
       241.000         205.000
 03  3 21  1 32 30.0000000  0  8G14G23G 9G17G 3G31G15G18
  21023217.129   -18182576.53549 -14147352.32447  21023216.920    21023221.459
       240.000         205.000
  22409138.394   -10338144.15549  -8023177.89246  22409137.937    22409144.397
       230.000         186.000
  23520395.662    -2194071.02449  -1703127.23545  23520395.159    23520402.713
       214.000         150.000
  22238157.529   -17767348.62649 -13830597.35046  22238157.574    22238164.880
       224.000         175.000
  21688198.827   -15864156.87249 -12344814.08347  21688198.772    21688204.592
       237.000         199.000
  22949142.364    -7856086.27249  -6105649.29346  22949142.579    22949148.409
       223.000         173.000
  20398865.416   -26961152.55149 -20989635.28148  20398864.800    20398871.372
       244.000         213.000
  21209710.502   -18424549.71849 -14311891.73147  21209710.073    21209715.138
       240.000         205.000
 03  3 21  1 33  0.0000000  0  8G14G23G 9G17G 3G31G15G18
  21010646.232   -18248637.27949 -14198828.19647  21010646.142    21010650.567
       241.000         206.000
  22419839.052   -10281911.59849  -7979360.32146  22419838.399    22419845.375
       230.000         186.000
  23517135.432    -2211203.46149  -1716477.13845  23517134.856    23517141.806
       211.000         148.000
  22250753.038   -17701158.81049 -13779020.89846  22250752.724    22250759.499
       225.000         175.000
  21687462.591   -15868025.79849 -12347828.82447  21687462.302    21687468.485
       237.000         199.000
  22938971.405    -7909534.83149  -6147297.48746  22938971.041    22938978.024
       224.000         173.000
  20403031.632   -26939259.12449 -20972575.46648  20403031.315    20403037.392
       244.000         213.000
  21218258.339   -18379630.73249 -14276889.92847  21218258.086    21218263.047
       240.000         205.000
 03  3 21  1 33 30.0000000  0  8G14G23G 9G17G 3G31G15G18
  20998164.446   -18314229.59549 -14249939.05147  20998163.774    20998168.828
       241.000         206.000
  22430548.098   -10225635.03949  -7935508.47046  22430547.975    22430553.819
       231.000         186.000
  23513977.369    -2227798.20849  -1729408.04445  23513976.423    23513983.972
       210.000         148.000
  22263408.355   -17634654.34949 -13727199.26446  22263407.863    22263415.795
       223.000         174.000
  21686833.697   -15871330.66349 -12350404.04047  21686833.757    21686839.374
       238.000         199.000
  22928896.730    -7962477.49949  -6188551.46646  22928896.066    22928902.308
       225.000         173.000
  20407272.768   -26916972.02749 -20955208.89748  20407272.149    20407278.557
       243.000         213.000
  21226837.093   -18334549.16749 -14241761.43647  21226836.827    21226841.803
       241.000         205.000
 03  3 21  1 34  0.0000000  0  8G14G23G 9G17G 3G31G15G18
  20985771.959   -18379352.00849 -14300683.76047  20985771.493    20985776.467
       240.000         206.000
  22441265.478   -10169315.01649  -7891622.73846  22441265.135    22441271.234
       231.000         186.000
  23510922.009    -2243853.84049  -1741918.87045  23510922.797    23510929.586
       213.000         148.000
  22276123.512   -17567835.84549 -13675132.94146  22276123.411    22276130.679
       223.000         174.000
  21686312.140   -15874071.62949 -12352539.85847  21686311.759    21686318.101
       237.000         199.000
  22918918.636    -8014912.66549  -6229409.99146  22918917.893    22918924.710
       224.000         173.000
  20411588.870   -26894290.60249 -20937535.05948  20411588.202    20411594.473
       244.000         213.000
  21235446.567   -18289306.14749 -14206507.14147  21235446.177    21235451.301
       241.000         205.000
 03  3 21  1 34 30.0000000  0  8G14G23G 9G17G 3G31G15G18
  20973469.194   -18444003.26649 -14351061.32947  20973468.820    20973473.505
       241.000         207.000
  22451990.892   -10112952.54349  -7847703.93746  22451989.911    22451997.212
       230.000         186.000
  23507969.575    -2259368.97549  -1754008.50845  23507968.672    23507975.415
       208.000         148.000
  22288898.347   -17500703.86649 -13622822.34246  22288897.537    22288905.042
       223.000         174.000
  21685897.699   -15876249.31649 -12354236.74847  21685897.506    21685903.446
       237.000         199.000
  22909037.364    -8066839.00549  -6269872.02246  22909037.423    22909043.137
       224.000         173.000
  20415980.100   -26871214.63349 -20919553.78648  20415979.472    20415985.544
       244.000         213.000
  21244086.534   -18243902.71249 -14171127.84247  21244086.165    21244091.189
       241.000         205.000
 03  3 21  1 35  0.0000000  0  8G14G23G 9G17G 3G31G15G18
  20961256.472   -18508181.79349 -14401070.53347  20961256.234    20961261.156
       241.000         207.000
  22462724.255   -10056548.45749  -7803752.71046  22462723.740    22462730.140
       231.000         186.000
  23505120.111    -2274342.08949  -1765675.82445  23505119.115    23505128.359
       212.000         148.000
  22301732.802   -17433258.62249 -13570267.65546  22301732.492    22301740.236
       222.000         174.000
  21685590.435   -15877863.91549 -12355494.87147  21685590.068    21685596.420
       236.000         199.000
  22899253.188    -8118254.89149  -6309936.32146  22899252.677    22899258.601
       224.000         174.000
  20420446.563   -26847743.35149 -20901264.47648  20420446.049    20420452.144
       244.000         213.000
  21252756.847   -18198339.92349 -14135624.37047  21252756.643    21252761.538
       241.000         205.000
 03  3 21  1 35 30.0000000  0  8G14G23G 9G17G 3G31G15G18
  20949134.015   -18571885.62649 -14450709.85447  20949133.677    20949138.435
       241.000         208.000
  22473465.532   -10000102.96449  -7759769.21346  22473465.304    22473471.492
       231.000         187.000
  23502374.229    -2288771.32049  -1776919.33345  23502374.545    23502382.439
       213.000         149.000
  22314626.772   -17365500.26449 -13517468.96446  22314626.955    22314634.021
       222.000         174.000
  21685390.379   -15878915.17249 -12356314.02947  21685390.077    21685396.039
       237.000         199.000
  22889566.537    -8169158.31549  -6349601.27146  22889565.903    22889572.173
       225.000         173.000
  20424988.393   -26823875.88949 -20882666.45548  20424987.935    20424993.950
       244.000         213.000
  21261457.378   -18152618.46749 -14099997.26247  21261457.159    21261461.799
       241.000         205.000
 03  3 21  1 36  0.0000000  0  8G14G23G 9G17G 3G31G15G18
  20937102.231   -18635113.08849 -14499977.97147  20937101.986    20937106.594
       242.000         208.000
  22484214.585    -9943616.44949  -7715753.75746  22484214.092    22484220.970
       230.000         186.000
  23499732.194    -2302655.14049  -1787737.84245  23499731.185    23499739.841
       212.000         150.000
  22327580.466   -17297428.50049 -13464426.07246  22327579.998    22327587.897
       224.000         174.000
  21685297.466   -15879403.35449 -12356694.43247  21685297.111    21685303.317
       237.000         199.000
  22879977.759    -8219547.62249  -6388865.63246  22879976.742    22879983.037
       225.000         174.000
  20429605.786   -26799611.47749 -20863759.12148  20429605.279    20429611.228
       244.000         213.000
  21270187.976   -18106739.12249 -14064247.12847  21270187.506    21270192.531
       241.000         205.000
 03  3 21  1 36 30.0000000  0  8G14G23G 9G17G 3G31G15G18
  20925161.232   -18697863.45949 -14548874.33247  20925160.803    20925165.755
       241.000         209.000
  22494971.096    -9887090.39249  -7671707.49946  22494970.346    22494977.199
       230.000         186.000
  23497194.044    -2315992.86149  -1798130.82245  23497194.491    23497200.836
       213.000         150.000
  22340593.672   -17229044.34949 -13411139.76346  22340593.209    22340600.922
       223.000         174.000
  21685311.498   -15879329.57549 -12356636.94047  21685311.291    21685317.179
       237.000         199.000
  22870487.024    -8269421.94349  -6427728.70146  22870486.482    22870492.926
       224.000         174.000
  20434298.683   -26774950.26049 -20844542.59148  20434298.020    20434303.912
       244.000         213.000
  21278948.232   -18060703.73749 -14028375.40447  21278947.891    21278952.939
       241.000         205.000
 03  3 21  1 37  0.0000000  0  8G14G23G 9G17G 3G31G15G18
  20913311.275   -18760135.09249 -14597397.65047  20913311.026    20913315.564
       242.000         209.000
  22505735.093    -9830525.07749  -7627630.64546  22505734.005    22505741.612
       230.000         186.000
  23494760.116    -2328782.83349  -1808096.97845  23494760.236    23494767.521
       212.000         150.000
  22353666.272   -17160347.42549 -13357609.71946  22353665.989    22353673.400
       221.000         174.000
  21685432.507   -15878693.52049 -12356141.31247  21685432.228    21685438.683
       237.000         199.000
  22861094.504    -8318779.48349  -6466189.07846  22861093.025    22861099.986
       222.000         174.000
  20439067.235   -26749891.19249 -20825016.04647  20439066.549    20439072.740
       244.000         212.000
  21287738.088   -18014512.73849 -13992382.41847  21287737.686    21287742.810
       241.000         204.000
 03  3 21  1 37 30.0000000  0  8G14G23G 9G17G 3G31G15G18
  20901552.770   -18821926.33849 -14645546.63947  20901552.177    20901557.154
       242.000         209.000
  22516506.412    -9773921.11449  -7583523.67046  22516505.967    22516512.752
       229.000         186.000
  23492430.765    -2341023.57049  -1817635.16245  23492431.148    23492438.580
       214.000         150.000
  22366798.260   -17091338.35549 -13303836.44646  22366797.498    22366805.511
       221.000         173.000
  21685660.451   -15877495.67049 -12355207.92247  21685660.100    21685666.600
       236.000         199.000
  22851800.571    -8367618.65449  -6504245.53346  22851799.878    22851805.851
       221.000         173.000
  20443911.559   -26724433.95449 -20805179.23647  20443910.925    20443917.196
       244.000         212.000
  21296557.385   -17968166.89549 -13956268.78147  21296557.010    21296561.805
       240.000         204.000
 03  3 21  1 38  0.0000000  0  8G14G23G 9G17G 3G31G15G18
  20889885.916   -18883235.62049 -14693320.07947  20889885.483    20889890.722
       241.000         210.000
  22527285.085    -9717278.86349  -7539386.85846  22527284.975    22527291.764
       229.000         186.000
  23490206.350    -2352713.44549  -1826744.08545  23490205.459    23490213.650
       213.000         150.000
  22379989.586   -17022017.48949 -13249820.24146  22379988.606    22379996.701
       222.000         172.000
  21685995.203   -15875736.16349 -12353836.87047  21685994.998    21686001.206
       237.000         199.000
  22842605.648    -8415937.66349  -6541896.67446  22842605.663    22842611.831
       222.000         173.000
  20448831.842   -26698577.69249 -20785031.50447  20448831.149    20448837.323
       243.000         212.000
  21305405.946   -17921667.25749 -13920035.30747  21305405.595    21305410.451
       240.000         204.000
 03  3 21  1 38 30.0000000  0  8G14G23G 9G17G 3G31G15G18
  20878311.126   -18944061.53349 -14740716.86947  20878310.556    20878315.492
       242.000         210.000
  22538070.888    -9660599.00549  -7495220.74646  22538070.399    22538077.111
       231.000         186.000
  23488086.795    -2363851.19249  -1835422.83345  23488086.556    23488092.933
       211.000         150.000
  22393240.189   -16952384.99649 -13195561.19946  22393239.613    22393247.281
       221.000         172.000
  21686436.832   -15873415.33649 -12352028.42847  21686436.712    21686442.674
       236.000         198.000
  22833510.048    -8463735.22849  -6579141.48946  22833509.900    22833515.545
       223.000         174.000
  20453828.173   -26672321.75949 -20764572.33947  20453827.550    20453833.856
       244.000         212.000
  21314283.651   -17875014.64749 -13883682.63247  21314283.349    21314288.408
       240.000         203.000
 03  3 21  1 39  0.0000000  0  8G14G23G 9G17G 3G31G15G18
  20866828.591   -19004402.59849 -14787735.84847  20866828.205    20866832.875
       242.000         210.000
  22548863.799    -9603882.12649  -7451025.77346  22548863.527    22548870.101
       230.000         186.000
  23486072.559    -2374435.74949  -1843670.47445  23486072.011    23486080.405
       214.000         151.000
  22406550.159   -16882440.75849 -13141059.26246  22406548.929    22406557.812
       220.000         171.000
  21686985.167   -15870533.68549 -12349782.98847  21686985.243    21686991.046
       237.000         198.000
  22824513.964    -8511009.79449  -6615978.77046  22824513.278    22824519.344
       222.000         174.000
  20458900.673   -26645665.70549 -20743801.38848  20458900.218    20458906.223
       244.000         213.000
  21323190.279   -17828209.99849 -13847211.49247  21323190.123    21323194.756
       240.000         203.000
 03  3 21  1 39 30.0000000  0  8G14G23G 9G17G 3G31G15G18
  20855438.580   -19064257.39349 -14834375.91947  20855438.191    20855443.214
       242.000         211.000
  22559663.619    -9547128.83649  -7406802.44446  22559663.550    22559669.948
       230.000         186.000
  23484163.944    -2384465.50449  -1851485.83845  23484164.251    23484171.457
       213.000         151.000
  22419919.242   -16812185.53649 -13086314.99046  22419918.503    22419926.455
       220.000         171.000
  21687640.177   -15867091.88749 -12347101.06447  21687639.929    21687646.108
       237.000         199.000
  22815617.651    -8557760.02849  -6652407.48946  22815616.278    22815623.208
       222.000         173.000
  20464049.407   -26618608.78249 -20722718.07748  20464048.854    20464054.992
       244.000         213.000
  21332125.705   -17781254.08849 -13810622.47447  21332125.317    21332130.318
       239.000         203.000
 03  3 21  1 40  0.0000000  0  8G14G23G 9G17G 3G31G15G18
  20844141.345   -19123624.73249 -14880636.15647  20844140.991    20844146.024
       243.000         211.000
  22570470.180    -9490339.89949  -7362551.32046  22570469.989    22570476.652
       229.000         185.000
  23482361.111    -2393939.57649  -1858868.19145  23482361.779    23482367.564
       213.000         151.000
  22433347.517   -16741619.67549 -13031328.65846  22433346.927    22433355.345
       219.000         170.000
  21688401.624   -15863090.46849 -12343983.06847  21688401.672    21688407.509
       238.000         198.000
  22806821.374    -8603984.48649  -6688426.50446  22806820.547    22806826.975
       222.000         173.000
  20469274.484   -26591151.03649 -20701322.43248  20469273.877    20469279.936
       244.000         213.000
  21341089.656   -17734147.89749 -13773916.35647  21341089.381    21341094.329
       240.000         203.000
 03  3 21  1 40 30.0000000  0  8G14G23G 9G17G 3G31G15G18
  20832937.164   -19182503.05049 -14926515.33747  20832936.638    20832941.649
       242.000         211.000
  22581283.453    -9433515.66249  -7318272.71246  22581282.783    22581289.640
       229.000         185.000
  23480664.294    -2402856.51449  -1865816.41045  23480663.395    23480671.481
       210.000         150.000
  22446834.854   -16670743.32449 -12976100.38146  22446833.600    22446843.161
       219.000         170.000
  21689269.467   -15858529.84049 -12340429.32447  21689269.361    21689275.707
       238.000         199.000
  22798125.483    -8649681.77649  -6724034.76046  22798125.396    22798130.764
       224.000         173.000
  20474575.966   -26563291.65249 -20679613.82548  20474575.376    20474581.404
       244.000         213.000
  21350082.050   -17686892.49049 -13737093.96947  21350081.806    21350086.642
       240.000         203.000
 03  3 21  1 41  0.0000000  0  8G14G23G 9G17G 3G31G15G18
  20821826.204   -19240891.31749 -14972012.66047  20821825.880    20821830.582
       242.000         211.000
  22592103.374    -9376656.88449  -7273967.18246  22592103.372    22592109.623
       229.000         185.000
  23479073.546    -2411215.29249  -1872329.68845  23479073.715    23479079.879
       210.000         150.000
  22460381.124   -16599557.23849 -12920630.75046  22460381.042    22460388.722
       220.000         170.000
  21690243.684   -15853410.36649 -12336440.11847  21690243.387    21690249.405
       238.000         199.000
  22789530.201    -8694850.54849  -6759231.17846  22789529.927    22789535.273
       223.000         174.000
  20479953.924   -26535030.32749 -20657592.02248  20479953.383    20479959.530
       244.000         213.000
  21359102.664   -17639488.90349 -13700156.11647  21359102.291    21359107.261
       240.000         203.000
 03  3 21  1 41 30.0000000  0  8G14G23G 9G17G 3G31G15G18
  20810808.806   -19298788.02049 -15017126.94447  20810808.447    20810813.266
       242.000         211.000
  22602929.790    -9319763.99349  -7229635.07646  22602929.298    22602935.886
       229.000         185.000
  23477589.276    -2419014.60849  -1878407.04145  23477589.173    23477597.827
       208.000         151.000
  22473986.413   -16528061.57249 -12864919.89246  22473985.683    22473993.479
       220.000         170.000
  21691324.159   -15847732.48749 -12332015.79047  21691324.229    21691330.116
       238.000         199.000
  22781035.671    -8739489.41549  -6794014.67846  22781035.217    22781041.621
       223.000         173.000
  20485408.539   -26506366.21749 -20635256.35548  20485407.807    20485414.003
       243.000         213.000
  21368151.306   -17591938.03449 -13663103.49947  21368151.017    21368156.123
       239.000         203.000
 03  3 21  1 42  0.0000000  0  8G14G23G 9G17G 3G31G15G18
  20799885.260   -19356191.52149 -15061856.91947  20799884.909    20799889.792
       242.000         211.000
  22613762.534    -9262837.18449  -7185276.53346  22613761.758    22613768.862
       229.000         184.000
  23476211.822    -2426252.90149  -1884047.24245  23476211.597    23476218.599
       209.000         150.000
  22487650.555   -16456256.32449 -12808967.78746  22487650.613    22487657.599
       220.000         170.000
  21692510.851   -15841496.60749 -12327156.65947  21692510.507    21692516.576
       238.000         199.000
  22772642.306    -8783596.70249  -6828383.96746  22772642.138    22772648.326
       226.000         175.000
  20490939.841   -26477298.67349 -20612606.32747  20490939.038    20490945.430
       242.000         212.000
  21377227.979   -17544239.98549 -13625936.19447  21377227.773    21377232.783
       240.000         203.000
 03  3 21  1 42 30.0000000  0  8G14G23G 9G17G 3G31G15G18
  20789055.767   -19413100.96149 -15106201.90447  20789055.536    20789060.158
       242.000         211.000
  22624601.598    -9205877.48049  -7140892.35546  22624601.504    22624607.901
       228.000         184.000
  23474941.270    -2432929.49549  -1889249.74545  23474941.766    23474949.469
       207.000         149.000
  22501373.342   -16384142.50749 -12752775.26346  22501373.253    22501381.294
       221.000         170.000
  21693803.475   -15834703.86549 -12321863.60947  21693803.392    21693809.198
       238.000         198.000
  22764350.357    -8827171.45349  -6862338.28846  22764349.639    22764355.956
       224.000         176.000
  20496547.918   -26447827.79349 -20589642.00847  20496547.405    20496553.754
       243.000         212.000
  21386332.350   -17496396.16649 -13588655.29747  21386331.901    21386336.945
       240.000         202.000
 03  3 21  1 43  0.0000000  0  8G14G23G 9G17G 3G31G15G18
  20778320.617   -19469514.77649 -15150160.69047  20778320.118    20778325.057
       242.000         211.000
  22635446.906    -9148885.16849  -7096482.78046  22635446.107    22635453.419
       229.000         184.000
  23473777.819    -2439042.98149  -1894013.46945  23473777.252    23473785.544
       207.000         147.000
  22515154.901   -16311720.03149 -12696342.20546  22515154.743    22515163.428
       221.000         171.000
  21695202.015   -15827354.27649 -12316136.64947  21695201.834    21695207.822
       238.000         198.000
  22756159.942    -8870212.14149  -6895876.45946  22756159.668    22756165.953
       226.000         176.000
  20502232.965   -26417952.81049 -20566362.80747  20502232.370    20502238.765
       243.000         212.000
  21395464.357   -17448407.13149 -13551261.24747  21395464.178    21395469.017
       240.000         202.000
 03  3 21  1 43 30.0000000  0  8G14G23G 9G17G 3G31G15G18
  20767679.881   -19525431.77849 -15193732.35347  20767679.405    20767684.297
       241.000         211.000
  22646298.271    -9091860.77249  -7052048.19646  22646298.114    22646304.473
       228.000         183.000
  23472721.787    -2444592.28949  -1898337.54545  23472721.083    23472728.595
       207.000         147.000
  22528995.103   -16238989.18249 -12639668.87746  22528994.721    22529002.705
       221.000         171.000
  21696706.473   -15819448.49449 -12309976.29447  21696706.463    21696712.180
       239.000         198.000
  22748071.534    -8912717.40849  -6928997.42346  22748070.848    22748076.808
       225.000         177.000
  20507995.022   -26387673.20249 -20542768.30947  20507994.321    20508000.580
       242.000         212.000
  21404623.819   -17400274.03449 -13513754.93947  21404623.527    21404628.532
       240.000         202.000
 03  3 21  1 44  0.0000000  0  8G14G23G 9G17G 3G31G15G18
  20757133.931   -19580851.03649 -15236916.16447  20757133.695    20757138.493
       242.000         211.000
  22657155.638    -9034804.97149  -7007589.14446  22657155.368    22657162.267
       228.000         182.000
  23471773.246    -2449576.65949  -1902221.44845  23471773.319    23471780.411
       207.000         148.000
  22542893.938   -16165950.89549 -12582755.99146  22542893.939    22542901.346
       222.000         171.000
  21698316.622   -15810987.54449 -12303383.34647  21698316.288    21698322.198
       238.000         198.000
  22740085.098    -8954686.35349  -6961700.46546  22740085.007    22740090.910
       225.000         176.000
  20513833.976   -26356988.96549 -20518858.52147  20513833.229    20513839.598
       242.000         211.000
  21413810.494   -17351997.79249 -13476137.09447  21413810.068    21413815.157
       239.000         202.000
 03  3 21  1 44 30.0000000  0  8G14G23G 9G17G 3G31G15G18
  20746682.918   -19635771.62749 -15279711.40147  20746682.571    20746686.885
       242.000         211.000
  22668018.846    -8977718.41149  -6963106.12346  22668017.928    22668024.855
       228.000         182.000
  23470932.433    -2453995.10749  -1905664.35445  23470931.682    23470938.984
       209.000         148.000
  22556851.146   -16092605.73149 -12525603.97446  22556850.837    22556858.632
       221.000         171.000
  21700032.134   -15801972.40749 -12296358.55347  21700031.641    21700037.532
       238.000         197.000
  22732200.900    -8996117.82349  -6993984.70846  22732200.705    22732205.862
       226.000         177.000
  20519750.033   -26325899.64349 -20494633.07747  20519749.363    20519755.577
       242.000         211.000
  21423024.144   -17303579.49349 -13438408.55747  21423023.649    21423028.716
       239.000         202.000
 03  3 21  1 45  0.0000000  0  8G14G23G 9G17G 3G31G15G18
  20736327.136   -19690191.64749 -15322116.58147  20736326.840    20736331.345
       242.000         211.000
  22678887.853    -8920601.20949  -6918599.22746  22678886.963    22678894.299
       227.000         182.000
  23470199.569    -2457846.22149  -1908665.18345  23470199.619    23470206.143
       207.000         148.000
  22570866.728   -16018953.57249 -12468212.74946  22570866.614    22570874.472
       222.000         171.000
  21701853.065   -15792403.14949 -12288901.99347  21701852.640    21701858.324
       238.000         197.000
  22724419.381    -9037010.07949  -7025848.76846  22724419.562    22724424.361
       226.000         177.000
  20525743.423   -26294404.30249 -20470091.26047  20525742.934    20525749.204
       243.000         210.000
  21432264.800   -17255019.32449 -13400569.47047  21432264.572    21432269.910
       239.000         202.000
 03  3 21  1 45 30.0000000  0  8G14G23G 9G17G 3G31G15G18
  20726066.794   -19744109.80949 -15364130.70247  20726066.443    20726070.905
       242.000         211.000
  22689762.581    -8863453.79149  -6874068.78346  22689762.085    22689768.924
       228.000         181.000
  23469574.728    -2461129.19549  -1911223.31845  23469574.941    23469582.180
       209.000         147.000
  22584940.676   -15944994.72049 -12410582.51446  22584940.281    22584948.856
       221.000         171.000
  21703779.326   -15782280.62949 -12281014.31847  21703779.076    21703785.028
       238.000         197.000
  22716740.611    -9077361.95749  -7057291.76946  22716739.389    22716746.053
       225.000         177.000
  20531814.095   -26262502.71649 -20445232.88947  20531813.491    20531819.647
       243.000         210.000
  21441532.346   -17206318.14949 -13362620.51847  21441531.966    21441537.023
       239.000         202.000
 03  3 21  1 46  0.0000000  0  8G14G23G 9G17G 3G31G15G18
  20715902.160   -19797525.21149 -15405753.06847  20715901.710    20715906.309
       242.000         212.000
  22700643.061    -8806276.61249  -6829515.14646  22700642.422    22700649.189
       227.000         181.000
  23469058.343    -2463842.83449  -1913337.81445  23469058.159    23469065.727
       210.000         147.000
  22599072.843   -15870729.97149 -12352713.93546  22599073.067    22599080.025
       221.000         171.000
  21705810.790   -15771605.39949 -12272695.96147  21705810.560    21705816.263
       238.000         197.000
  22709164.880    -9117172.30349  -7088312.79546  22709164.383    22709169.975
       226.000         177.000
  20537962.186   -26230194.43249 -20420057.60847  20537961.695    20537967.810
       243.000         211.000
  21450826.585   -17157476.71849 -13324562.26447  21450826.372    21450831.503
       239.000         202.000
 03  3 21  1 46 30.0000000  0  8G14G23G 9G17G 3G31G15G18
  20705833.365   -19850436.93049 -15446982.95447  20705833.090    20705837.709
       242.000         212.000
  22711529.093    -8749070.24349  -6784938.77846  22711528.636    22711535.334
       228.000         181.000
  23468650.466    -2465986.42649  -1915008.11145  23468650.232    23468656.321
       212.000         147.000
  22613263.144   -15796159.83849 -12294607.42146  22613263.114    22613271.202
       221.000         171.000
  21707947.189   -15760378.46349 -12263947.70047  21707946.941    21707952.602
       238.000         197.000
  22701692.469    -9156440.11649  -7118911.06346  22701691.846    22701697.840
       226.000         177.000
  20544187.718   -26197479.29449 -20394565.29747  20544187.305    20544193.311
       243.000         211.000
  21460147.269   -17108496.27949 -13286395.69347  21460147.219    21460151.971
       239.000         201.000
 03  3 21  1 47  0.0000000  0  8G14G23G 9G17G 3G31G15G18
  20695860.679   -19902843.88449 -15487819.51247  20695860.284    20695865.020
       242.000         212.000
  22722420.581    -8691835.42149  -6740340.22046  22722420.486    22722427.213
       229.000         181.000
  23468351.320    -2467559.28049  -1916233.66845  23468351.488    23468357.581
       212.000         147.000
  22627511.529   -15721284.81949 -12236263.31946  22627511.110    22627518.878
       222.000         170.000
  21710188.432   -15748600.90049 -12254770.38147  21710188.010    21710193.998
       238.000         196.000
  22694323.418    -9195164.44949  -7149085.84346  22694322.348    22694329.190
       225.000         178.000
  20550490.641   -26164357.02949 -20368755.74347  20550489.662    20550496.318
       242.000         210.000
  21469494.251   -17059377.65049 -13248121.44347  21469494.029    21469498.706
       240.000         201.000
 03  3 21  1 47 30.0000000  0  8G14G23G 9G17G 3G31G15G18
  20685984.188   -19954745.13249 -15528262.02147  20685983.771    20685988.432
       242.000         212.000
  22733317.427    -8634572.53149  -6695719.79946  22733317.312    22733323.546
       229.000         181.000
  23468160.828    -2468560.42449  -1917013.73045  23468160.760    23468168.091
       213.000         148.000
  22641817.771   -15646105.45049 -12177682.05546  22641816.696    22641824.748
       221.000         169.000
  21712534.261   -15736273.35849 -12245164.50847  21712534.095    21712539.597
       238.000         196.000
  22687057.968    -9233344.20549  -7178836.27446  22687057.897    22687064.447
       226.000         178.000
  20556871.081   -26130827.34449 -20342628.72047  20556870.415    20556876.784
       242.000         210.000
  21478867.371   -17010121.65949 -13209740.16247  21478867.130    21478872.184
       240.000         201.000
 03  3 21  1 48  0.0000000  0  8G14G23G 9G17G 3G31G15G18
  20676204.245   -20006138.97949 -15568309.15148  20676203.762    20676208.566
       243.000         213.000
  22744219.552    -8577281.63349  -6651077.54646  22744219.145    22744225.679
       228.000         180.000
  23468079.316    -2468988.79149  -1917347.47745  23468079.696    23468085.415
       212.000         147.000
  22656181.826   -15570621.94349 -12118863.81546  22656181.822    22656188.935
       222.000         168.000
  21714984.702   -15723396.12049 -12235130.29947  21714984.509    21714990.145
       237.000         196.000
  22679896.502    -9270977.71549  -7208161.07046  22679896.035    22679902.697
       225.000         178.000
  20563329.306   -26096889.28449 -20316183.48547  20563328.784    20563334.876
       243.000         210.000
  21488266.602   -16960728.52449 -13171252.01147  21488266.433    21488271.321
       240.000         201.000
 03  3 21  1 48 30.0000000  0  8G14G23G 9G17G 3G31G15G18
  20666521.041   -20057024.31949 -15607960.04148  20666520.705    20666525.232
       242.000         213.000
  22755126.961    -8519963.04949  -6606413.72646  22755126.554    22755133.368
       230.000         181.000
  23468106.987    -2468843.30549  -1917234.06845  23468106.648    23468113.843
       210.000         148.000
  22670603.669   -15494834.88049 -12059809.03246  22670603.818    22670612.085
       221.000         168.000
  21717539.496   -15709970.15849 -12224668.51047  21717539.220    21717545.132
       236.000         196.000
  22672839.184    -9308063.87149  -7237059.34846  22672838.650    22672844.963
       225.000         178.000
  20569865.290   -26062542.83049 -20289420.02547  20569864.679    20569870.494
       243.000         210.000
  21497691.757   -16911198.99449 -13132657.57447  21497691.308    21497696.336
       240.000         200.000
 03  3 21  1 49  0.0000000  0  8G14G23G 9G17G 3G31G15G18
  20656934.721   -20107400.58249 -15647214.24947  20656934.062    20656939.077
       242.000         212.000
  22766039.527    -8462617.45749  -6561728.86146  22766039.389    22766046.431
       229.000         181.000
  23468243.939    -2468123.43049  -1916673.10245  23468243.893    23468251.372
       210.000         148.000
  22685083.196   -15418744.88449 -12000518.20846  22685083.044    22685090.126
       221.000         168.000
  21720198.517   -15695996.76649 -12213780.15947  21720198.769    21720204.148
       238.000         196.000
  22665886.195    -9344602.07049  -7265530.64846  22665885.564    22665891.863
       225.000         178.000
  20576478.953   -26027787.76149 -20262338.16747  20576478.430    20576484.422
       243.000         210.000
  21507142.656   -16861534.14149 -13093957.69247  21507142.115    21507147.347
       239.000         200.000
 03  3 21  1 49 30.0000000  0  8G14G23G 9G17G 3G31G15G18
  20647445.489   -20157266.66649 -15686070.91147  20647444.941    20647449.759
       241.000         212.000
  22776957.074    -8405245.42249  -6517023.38046  22776956.991    22776963.038
       230.000         181.000
  23468490.333    -2466828.76849  -1915664.20645  23468489.723    23468495.871
       211.000         148.000
  22699620.282   -15342352.44349 -11940991.70646  22699620.010    22699627.714
       221.000         167.000
  21722961.579   -15681476.99349 -12202466.05947  21722961.147    21722967.400
       237.000         196.000
  22659037.591    -9380591.33749  -7293574.20846  22659036.026    22659043.153
       224.000         177.000
  20583170.473   -25992623.70249 -20234937.60847  20583169.888    20583176.108
       243.000         210.000
  21516619.087   -16811734.94149 -13055153.13047  21516618.795    21516623.958
       239.000         200.000
 03  3 21  1 50  0.0000000  0  8G14G23G 9G17G 3G31G15G18
  20638053.467   -20206621.64549 -15724529.31247  20638052.863    20638057.708
       241.000         212.000
  22787879.644    -8347847.17649  -6472297.48346  22787879.299    22787885.058
       228.000         181.000
  23468846.164    -2464958.42549  -1914206.74945  23468845.187    23468853.365
       210.000         148.000
  22714214.831   -15265657.89249 -11881229.78746  22714214.926    22714221.381
       220.000         166.000
  21725828.434   -15666411.53649 -12190726.74847  21725828.512    21725834.242
       237.000         196.000
  22652293.649    -9416030.52949  -7321189.14246  22652293.633    22652299.558
       226.000         177.000
  20589939.796   -25957050.58849 -20207218.30647  20589939.292    20589945.329
       242.000         210.000
  21526120.997   -16761802.18549 -13016244.49147  21526121.046    21526125.378
       239.000         200.000
 03  3 21  1 50 30.0000000  0  8G14G23G 9G17G 3G31G15G18
  20628759.024   -20255464.12649 -15762588.36447  20628758.728    20628763.173
       242.000         212.000
  22798807.095    -8290422.92949  -6427551.32946  22798806.675    22798812.814
       228.000         181.000
  23469311.748    -2462511.25049  -1912299.82345  23469312.023    23469318.946
       209.000         149.000
  22728866.697   -15188662.04149 -11821233.07946  22728865.993    22728873.507
       218.000         165.000
  21728799.009   -15650801.19649 -12178562.85747  21728798.646    21728804.236
       237.000         196.000
  22645654.802    -9450918.42049  -7348374.49846  22645654.640    22645660.387
       227.000         177.000
  20596787.082   -25921067.79649 -20179179.78047  20596786.521    20596792.638
       243.000         210.000
  21535648.270   -16711736.12549 -12977231.97647  21535648.061    21535653.059
       240.000         200.000
 03  3 21  1 51  0.0000000  0  8G14G23G 9G17G 3G31G15G18
  20619562.216   -20303793.37049 -15800247.49047  20619561.784    20619566.428
       241.000         212.000
  22809739.419    -8232972.98349  -6382785.14246  22809739.086    22809745.504
       227.000         180.000
  23469887.245    -2459486.68749  -1909942.99345  23469886.486    23469893.901
       209.000         149.000
  22743575.696   -15111365.30049 -11761001.91146  22743575.041    22743583.314
       218.000         164.000
  21731872.925   -15634647.14949 -12165975.29147  21731872.568    21731878.749
       237.000         196.000
  22639120.935    -9485254.04349  -7375129.50246  22639121.023    22639126.547
       227.000         178.000
  20603712.422   -25884675.04149 -20150821.79747  20603711.697    20603717.812
       242.000         210.000
  21545200.773   -16661537.64049 -12938116.27747  21545200.468    21545205.605
       240.000         200.000
 03  3 21  1 51 30.0000000  0  8G14G23G 9G17G 3G31G15G18
  20610463.272   -20351608.43549 -15837505.95847  20610462.784    20610467.486
       241.000         212.000
  22820676.505    -8175497.91649  -6337999.39046  22820675.725    22820683.024
       227.000         179.000
  23470572.735    -2455884.24649  -1907135.86645  23470572.711    23470579.880
       210.000         149.000
  22758341.978   -15033768.08949 -11700536.61546  22758341.468    22758350.014
       218.000         163.000
  21735050.237   -15617950.27149 -12152964.74847  21735049.918    21735055.658
       235.000         196.000
  22632692.295    -9519036.51449  -7401453.48746  22632691.823    22632698.201
       229.000         179.000
  20610715.739   -25847872.26149 -20122144.31547  20610715.089    20610721.141
       243.000         210.000
  21554778.294   -16611207.43349 -12898897.93747  21554777.938    21554783.059
       240.000         200.000
 03  3 21  1 52  0.0000000  0  8G14G23G 9G17G 3G31G15G18
  20601462.357   -20398908.50649 -15874363.13147  20601461.845    20601466.692
       241.000         212.000
  22831618.235    -8117998.44849  -6293194.61346  22831617.760    22831623.974
       227.000         179.000
  23471368.274    -2451703.23649  -1903877.89345  23471367.460    23471375.254
       208.000         150.000
  22773165.336   -14955871.15049 -11639837.74846  22773164.346    22773172.867
       217.000         163.000
  21738330.621   -15600711.69349 -12139532.10147  21738330.337    21738336.743
       237.000         196.000
  22626369.129    -9552265.27749  -7427346.00946  22626368.451    22626374.988
       227.000         179.000
  20617797.182   -25810659.16649 -20093147.11247  20617796.636    20617802.699
       243.000         210.000
  21564380.699   -16560746.60949 -12859577.81547  21564380.140    21564385.230
       239.000         200.000
 03  3 21  1 52 30.0000000  0  8G14G23G 9G17G 3G31G15G18
  20592559.630   -20445692.67049 -15910818.29948  20592559.088    20592564.007
       241.000         213.000
  22842564.654    -8060474.72449  -6248370.93946  22842564.532    22842570.454
       226.000         178.000
  23472274.096    -2446943.00949  -1900168.58945  23472274.003    23472280.581
       209.000         149.000
  22788045.433   -14877675.51049 -11578906.14745  22788044.905    22788052.916
       215.000         162.000
  21741713.938   -15582932.29749 -12125678.03147  21741713.735    21741719.594
       237.000         197.000
  22620151.480    -9584939.19649  -7452806.18246  22620150.456    22620157.018
       226.000         179.000
  20624956.751   -25773035.56149 -20063830.02547  20624956.220    20624962.251
       242.000         210.000
  21574007.836   -16510155.74149 -12820156.36147  21574007.495    21574012.579
       239.000         200.000
 03  3 21  1 53  0.0000000  0  8G14G23G 9G17G 3G31G15G18
  20583755.209   -20491960.13849 -15946870.85248  20583754.843    20583759.353
       242.000         213.000
  22853515.696    -8002926.95349  -6203528.52946  22853515.800    22853521.179
       227.000         178.000
  23473290.184    -2441603.17149  -1896007.64545  23473289.610    23473297.144
       207.000         148.000
  22802982.390   -14799181.50749 -11517742.05946  22802981.584    22802989.787
       217.000         163.000
  21745199.925   -15564613.29249 -12111403.48647  21745199.392    21745205.626
       237.000         197.000
  22614039.551    -9617057.34049  -7477833.28746  22614039.067    22614045.758
       227.000         178.000
  20632194.459   -25735001.26949 -20034192.92347  20632194.199    20632199.854
       243.000         210.000
  21583659.534   -16459435.50849 -12780634.10047  21583659.074    21583664.176
       239.000         200.000
 03  3 21  1 53 30.0000000  0  8G14G23G 9G17G 3G31G15G18
  20575049.298   -20537710.12449 -15982520.16948  20575048.810    20575053.339
       241.000         213.000
  22864471.169    -7945355.68549  -6158667.81346  22864470.846    22864477.267
       227.000         177.000
  23474416.823    -2435683.08149  -1891394.54945  23474416.889    23474423.689
       209.000         149.000
  22817976.018   -14720389.88149 -11456346.05346  22817975.254    22817984.175
       216.000         163.000
  21748788.338   -15545755.91249 -12096709.43147  21748787.937    21748794.171
       236.000         197.000
  22608033.462    -9648618.97449  -7502426.73546  22608032.725    22608039.204
       225.000         178.000
  20639510.342   -25696556.21949 -20004235.74847  20639509.915    20639515.964
       242.000         210.000
  21593335.763   -16408586.63149 -12741011.59847  21593335.625    21593340.579
       239.000         200.000
 03  3 21  1 54  0.0000000  0  8G14G23G 9G17G 3G31G15G18
  20566441.994   -20582941.65049 -16017765.49048  20566441.769    20566446.225
       242.000         213.000
  22875431.050    -7887761.10749  -6113788.92746  22875430.389    22875437.150
       226.000         177.000
  23475653.882    -2429182.07449  -1886328.81545  23475653.563    23475660.166
       209.000         149.000
  22833026.171   -14641300.97349 -11394718.39946  22833026.155    22833034.663
       216.000         163.000
  21752479.021   -15526361.16149 -12081596.64647  21752478.742    21752485.218
       237.000         197.000
  22602133.477    -9679623.26649  -7526585.91146  22602132.809    22602138.835
       226.000         177.000
  20646904.421   -25657700.00149 -19973958.18047  20646903.846    20646910.104
       243.000         210.000
  21603036.384   -16357609.63149 -12701289.26147  21603036.159    21603041.089
       239.000         199.000
 03  3 21  1 54 30.0000000  0  8G14G23G 9G17G 3G31G15G18
  20557933.513   -20627654.10649 -16052606.34048  20557933.089    20557937.740
       242.000         213.000
  22886395.310    -7830143.86749  -6068892.37946  22886394.369    22886401.064
       226.000         176.000
  23477001.599    -2422099.87549  -1880810.18145  23477000.231    23477008.383
       208.000         147.000
  22848132.766   -14561915.56149 -11332859.69246  22848132.307    22848140.944
       216.000         163.000
  21756271.726   -15506430.25049 -12066066.07547  21756271.297    21756277.689
       237.000         197.000
  22596339.733    -9710069.51349  -7550310.23446  22596338.930    22596345.799
       225.000         178.000
  20654376.770   -25618432.48849 -19943360.12047  20654376.263    20654382.517
       243.000         210.000
  21612761.183   -16306505.52849 -12661467.88147  21612760.827    21612765.776
       239.000         199.000
 03  3 21  1 55  0.0000000  0  8G14G23G 9G17G 3G31G15G18
  20549523.957   -20671846.69149 -16087042.09748  20549523.491    20549528.345
       241.000         214.000
  22897363.838    -7772503.98249  -6023978.18846  22897363.805    22897369.999
       225.000         176.000
  23478459.838    -2414435.99549  -1874838.29745  23478460.100    23478466.947
       210.000         146.000
  22863295.753   -14482234.28849 -11270770.45846  22863295.840    22863303.557
       216.000         163.000
  21760166.265   -15485964.41749 -12050118.68647  21760166.320    21760172.789
       238.000         198.000
  22590652.283    -9739956.82249  -7573599.02446  22590651.957    22590658.396
       225.000         178.000
  20661927.464   -25578753.52249 -19912441.45647  20661926.896    20661933.164
       243.000         210.000
  21622510.055   -16255274.96049 -12621547.96147  21622509.508    21622514.478
       239.000         199.000
 03  3 21  1 55 30.0000000  0  8G14G23G 9G17G 3G31G15G18
  20541213.540   -20715518.16449 -16121071.79948  20541213.034    20541217.818
       242.000         214.000
  22908336.599    -7714841.62149  -5979046.48646  22908336.089    22908342.995
       225.000         176.000
  23480029.069    -2406189.80749  -1868412.64545  23480028.045    23480035.362
       208.000         145.000
  22878514.718   -14402258.00949 -11208451.33146  22878513.575    22878523.367
       217.000         163.000
  21764162.400   -15464964.70049 -12033755.28547  21764162.044    21764168.303
       238.000         198.000
  22585071.407    -9769284.32949  -7596451.60146  22585071.350    22585076.940
       227.000         178.000
  20669556.440   -25538662.82849 -19881201.96547  20669556.014    20669562.014
       243.000         210.000
  21632282.826   -16203918.38949 -12581529.85647  21632282.383    21632287.298
       239.000         198.000
 03  3 21  1 56  0.0000000  0  8G14G23G 9G17G 3G31G15G18
  20533002.339   -20758668.06049 -16154695.07348  20533001.809    20533006.497
       241.000         214.000
  22919313.532    -7657157.30649  -5934097.66646  22919313.350    22919319.477
       225.000         176.000
  23481709.110    -2397360.91549  -1861532.95645  23481708.981    23481716.248
       206.000         144.000
  22893789.717   -14321987.34949 -11145902.83246  22893789.799    22893798.192
       217.000         163.000
  21768259.943   -15443432.11549 -12016976.65747  21768259.637    21768265.961
       237.000         198.000
  22579597.344    -9798051.20249  -7618867.31946  22579596.631    22579602.277
       227.000         178.000
  20677263.843   -25498160.40549 -19849641.65147  20677263.079    20677269.213
       243.000         210.000
  21642079.556   -16152436.52949 -12541414.12047  21642079.180    21642084.044
       239.000         198.000
 03  3 21  1 56 30.0000000  0  8G14G23G 9G17G 3G31G15G18
  20524890.572   -20801295.63549 -16187911.34148  20524890.294    20524894.715
       241.000         214.000
  22930294.639    -7599451.24249  -5889131.90446  22930294.657    22930299.825
       224.000         176.000
  23483500.155    -2387948.76749  -1854198.78645  23483500.601    23483506.778
       208.000         143.000
  22909120.770   -14241422.52949 -11083125.11346  22909120.136    22909128.710
       217.000         163.000
  21772458.661   -15421367.87049 -11999783.75347  21772458.411    21772464.609
       238.000         197.000
  22574229.963    -9826256.81449  -7640845.70146  22574229.596    22574235.604
       225.000         178.000
  20685049.559   -25457246.08749 -19817760.37547  20685048.929    20685055.108
       242.000         209.000
  21651899.962   -16100830.04649 -12501201.27447  21651899.632    21651904.392
       239.000         198.000
 03  3 21  1 57  0.0000000  0  8G14G23G 9G17G 3G31G15G18
  20516878.293   -20843400.36449 -16220720.19848  20516877.801    20516882.630
       241.000         214.000
  22941279.791    -7541723.92849  -5844149.58546  22941278.453    22941285.746
       224.000         175.000
  23485402.177    -2377953.26249  -1846410.04645  23485402.005    23485409.281
       206.000         143.000
  22924507.447   -14160564.66549 -11020119.04845  22924507.164    22924515.327
       217.000         162.000
  21776758.224   -15398773.45849 -11982177.72547  21776758.454    21776764.023
       237.000         197.000
  22568969.432    -9853900.64649  -7662386.32746  22568969.018    22568975.118
       227.000         178.000
  20692913.707   -25415919.96149 -19785558.21047  20692913.174    20692919.261
       243.000         209.000
  21661743.898   -16049099.93549 -12460892.09447  21661743.707    21661748.348
       239.000         198.000
 03  3 21  1 57 30.0000000  0  8G14G23G 9G17G 3G31G15G18
  20508965.620   -20884981.53149 -16253121.08948  20508965.229    20508969.817
       241.000         214.000
  22952268.921    -7483975.45449  -5799150.78846  22952268.725    22952274.651
       224.000         175.000
  23487415.355    -2367373.98349  -1838166.42445  23487415.591    23487422.278
       206.000         143.000
  22939949.970   -14079414.08449 -10956884.88145  22939949.743    22939957.666
       216.000         161.000
  21781158.506   -15375650.33249 -11964159.71847  21781158.897    21781164.618
       237.000         197.000
  22563815.996    -9880982.08449  -7683488.72746  22563815.615    22563821.708
       226.000         179.000
  20700856.198   -25374181.88649 -19753035.04747  20700855.396    20700861.764
       242.000         209.000
  21671611.212   -15997246.57149 -12420486.87747  21671610.566    21671615.870
       239.000         197.000
 03  3 21  1 58  0.0000000  0  8G14G23G 9G17G 3G31G15G18
  20501152.614   -20926038.95949 -16285113.87248  20501152.218    20501156.828
       241.000         214.000
  22963261.904    -7426206.66149  -5754136.15046  22963261.485    22963267.986
       224.000         175.000
  23489539.555    -2356211.17049  -1829468.07645  23489539.770    23489546.614
       208.000         143.000
  22955447.768   -13997972.94349 -10893424.30145  22955448.054    22955455.742
       216.000         161.000
  21785658.970   -15352000.42349 -11945731.23047  21785658.902    21785664.689
       237.000         197.000
  22558769.612    -9907500.92649  -7704152.73246  22558769.209    22558774.997
       226.000         179.000
  20708876.957   -25332032.29349 -19720191.21747  20708876.433    20708882.691
       242.000         209.000
  21681501.781   -15945271.27449 -12379986.64747  21681501.409    21681506.052
       239.000         197.000
 03  3 21  1 58 30.0000000  0  8G14G23G 9G17G 3G31G15G18
  20493439.606   -20966571.14649 -16316697.37048  20493439.337    20493443.829
       241.000         214.000
  22974258.951    -7368416.93949  -5709105.21546  22974258.562    22974264.750
       225.000         175.000
  23491774.970    -2344463.73849  -1820314.19045  23491775.232    23491781.465
       205.000         142.000
  22971000.975   -13916240.54349 -10829736.76745  22971001.407    22971008.403
       217.000         161.000
  21790259.613   -15327823.93449 -11926892.42447  21790259.307    21790264.949
       236.000         196.000
  22553830.582    -9933455.69049  -7724377.20546  22553830.068    22553835.430
       226.000         179.000
  20716976.301   -25289470.07149 -19687025.86247  20716975.656    20716981.970
       242.000         209.000
  21691415.648   -15893173.53149 -12339391.00747  21691415.366    21691420.327
       239.000         197.000
 03  3 21  1 59  0.0000000  0  8G14G23G 9G17G 3G31G15G18
  20485826.619   -21006577.63749 -16347871.23448  20485826.288    20485830.761
       241.000         214.000
  22985259.881    -7310606.66349  -5664058.25746  22985259.116    22985265.812
       225.000         176.000
  23494121.618    -2332131.62149  -1810704.72045  23494121.498    23494127.075
       210.000         142.000
  22986609.561   -13834217.37449 -10765822.63545  22986609.022    22986617.150
       217.000         161.000
  21794960.185   -15303121.98949 -11907644.16447  21794960.113    21794966.125
       236.000         195.000
  22548999.041    -9958845.93449  -7744161.79546  22548998.583    22549004.407
       226.000         179.000
  20725154.193   -25246495.11749 -19653538.89647  20725153.605    20725159.708
       242.000         209.000
  21701352.662   -15840954.34149 -12298700.73347  21701352.286    21701357.293
       239.000         197.000
 03  3 21  1 59 30.0000000  0  8G14G23G 9G17G 3G31G15G18
  20478313.596   -21046058.79149 -16378635.74748  20478313.219    20478317.861
       241.000         215.000
  22996264.515    -7252777.14749  -5618996.29946  22996263.928    22996270.947
       225.000         176.000
  23496579.459    -2319215.36249  -1800640.07245  23496579.706    23496586.187
       207.000         143.000
  23002273.130   -13751905.39049 -10701683.44945  23002273.208    23002280.675
       216.000         161.000
  21799760.332   -15277897.19549 -11887988.49547  21799760.180    21799766.462
       236.000         195.000
  22544274.718    -9983672.14549  -7763506.87246  22544273.794    22544280.052
       227.000         179.000
  20733410.383   -25203108.61749 -19619731.25447  20733409.799    20733416.003
       242.000         209.000
  21711312.467   -15788615.21749 -12257917.01047  21711312.171    21711317.058
       239.000         197.000
 03  3 21  2  0  0.0000000  0  8G14G23G 9G17G 3G31G15G18
  20470900.792   -21085013.18049 -16408989.79548  20470900.311    20470905.038
       241.000         214.000
  23007272.914    -7194927.69449  -5573918.80446  23007272.487    23007278.788
       225.000         176.000
  23499148.765    -2305713.86049  -1790119.37645  23499148.748    23499155.188
       206.000         142.000
  23017991.635   -13669304.65449 -10637319.30645  23017991.056    23017999.230
       218.000         161.000
  21804659.875   -15252150.04649 -11867925.79547  21804659.718    21804665.814
       237.000         195.000
  22539658.055   -10007932.67449  -7782411.15446  22539656.900    22539663.925
       226.000         180.000
  20741745.062   -25159309.47049 -19585602.06247  20741744.419    20741750.749
       241.000         209.000
  21721295.191   -15736155.92049 -12217039.63247  21721294.811    21721299.506
       239.000         197.000
 03  3 21  2  0 30.0000000  0  8G14G23G 9G17G 3G31G15G18
  20463588.355   -21123440.08249 -16438932.81748  20463587.923    20463592.622
       241.000         215.000
  23018285.066    -7137058.49649  -5528825.92946  23018284.823    23018291.455
       225.000         176.000
  23501829.279    -2291627.13549  -1779142.66045  23501827.993    23501836.122
       207.000         141.000
  23033764.859   -13586416.19849 -10572730.93345  23033764.786    23033772.224
       216.000         161.000
  21809658.540   -15225882.00149 -11847457.19547  21809658.428    21809664.575
       237.000         195.000
  22535149.119   -10031627.16449  -7800874.36646  22535148.981    22535154.810
       227.000         180.000
  20750158.252   -25115097.91749 -19551151.51047  20750157.645    20750164.032
       242.000         209.000
  21731300.626   -15683577.09149 -12176069.11847  21731300.804    21731305.097
       240.000         197.000
 03  3 21  2  1  0.0000000  0  8G14G23G 9G17G 3G31G15G18
  20456376.251   -21161339.89149 -16468465.11448  20456375.786    20456380.540
       241.000         215.000
  23029300.786    -7079170.46249  -5483718.37046  23029300.307    23029306.867
       225.000         176.000
  23504621.226    -2276955.51649  -1767710.18645  23504620.710    23504628.260
       208.000         143.000
  23049592.621   -13503241.02049 -10507919.14445  23049591.820    23049600.180
       216.000         161.000
  21814755.967   -15199095.10249 -11826584.29547  21814755.919    21814761.630
       237.000         195.000
  22530747.956   -10054755.80549  -7818896.67146  22530748.507    22530753.773
       228.000         181.000
  20758649.841   -25070474.38349 -19516379.93847  20758649.176    20758655.593
       241.000         209.000
  21741328.610   -15630880.01949 -12135006.46347  21741328.262    21741333.144
       240.000         197.000
 03  3 21  2  1 30.0000000  0  8G14G23G 9G17G 3G31G15G18
  20449264.719   -21198711.20849 -16497585.60348  20449264.499    20449268.973
       242.000         215.000
  23040320.135    -7021263.08749  -5438595.74946  23040319.569    23040326.459
       225.000         176.000
  23507524.499    -2261698.20549  -1755821.35245  23507524.320    23507531.998
       204.000         142.000
  23065474.902   -13419779.39949 -10442884.13945  23065474.464    23065482.893
       218.000         161.000
  21819951.970   -15171789.93149 -11805307.55547  21819951.712    21819957.730
       236.000         195.000
  22526454.729   -10077317.24349  -7836476.99646  22526453.801    22526460.277
       227.000         181.000
  20767219.990   -25025438.12249 -19481286.76647  20767219.283    20767225.455
       242.000         208.000
  21751379.069   -15578064.48749 -12093851.49847  21751378.474    21751383.490
       240.000         197.000
 03  3 21  2  2  0.0000000  0  8G14G23G 9G17G 3G31G15G18
  20442253.976   -21235552.98349 -16526293.45848  20442253.732    20442258.031
       241.000         215.000
  23051343.333    -6963336.24549  -5393457.95146  23051343.387    23051349.846
       225.000         176.000
  23510539.343    -2245854.81649  -1743475.82345  23510539.392    23510546.158
       205.000         143.000
  23081411.692   -13336031.40749 -10377625.98945  23081411.311    23081419.141
       216.000         160.000
  21825246.315   -15143967.73749 -11783627.93247  21825245.687    21825251.718
       236.000         194.000
  22522269.435   -10099310.67849  -7853614.71346  22522268.938    22522274.919
       227.000         181.000
  20775868.706   -24979988.82149 -19445871.73547  20775868.146    20775874.348
       242.000         208.000
  21761452.068   -15525130.58949 -12052604.30547  21761451.770    21761456.501
       239.000         197.000
 03  3 21  2  2 30.0000000  0  8G14G23G 9G17G 3G31G15G18
  20435343.737   -21271866.42749 -16554589.63048  20435343.306    20435347.855
       242.000         215.000
  23062369.779    -6905391.83749  -5348306.48046  23062369.034    23062375.581
       226.000         176.000
  23513665.519    -2229426.86849  -1730674.78645  23513665.538    23513672.118
       207.000         144.000
  23097402.457   -13251999.52649 -10312146.62945  23097402.121    23097409.859
       215.000         160.000
  21830638.396   -15115631.74949 -11761547.94347  21830638.294    21830644.086
       237.000         194.000
  22518192.034   -10120737.35249  -7870310.80546  22518191.670    22518197.211
       226.000         180.000
  20784595.706   -24934128.14849 -19410136.16047  20784595.044    20784601.564
       242.000         208.000
  21771547.107   -15472080.95049 -12011266.92947  21771546.982    21771551.276
       239.000         197.000
 03  3 21  2  3  0.0000000  0  8G14G23G 9G17G 3G31G15G18
  20428534.444   -21307649.44449 -16582472.48248  20428534.060    20428538.523
       243.000         215.000
  23073399.884    -6847428.19349  -5303140.00846  23073399.388    23073405.903
       224.000         176.000
  23516903.247    -2212412.35549  -1717416.68445  23516903.147    23516909.965
       205.000         144.000
  23113447.256   -13167683.21949 -10246445.62045  23113446.204    23113454.517
       213.000         159.000
  21836128.494   -15086781.44449 -11739067.19447  21836128.213    21836134.359
       237.000         195.000
  22514222.896   -10141595.04449  -7886563.53346  22514221.849    22514228.821
       226.000         180.000
  20793401.311   -24887854.48149 -19374078.76647  20793400.608    20793407.102
       242.000         208.000
  21781664.440   -15418914.10449 -11969838.22647  21781664.378    21781668.755
       239.000         196.000
 03  3 21  2  3 30.0000000  0  8G14G23G 9G17G 3G31G15G18
  20421826.169   -21342901.65449 -16609941.71848  20421825.964    20421830.317
       244.000         216.000
  23084433.620    -6789445.57649  -5257958.75346  23084432.710    23084440.004
       224.000         175.000
  23520252.442    -2194811.53249  -1703701.72845  23520252.518    23520258.591
       208.000         143.000
  23129545.925   -13083083.34549 -10180523.67645  23129545.959    23129553.403
       213.000         157.000
  21841716.102   -15057418.64249 -11716187.09147  21841715.415    21841721.861
       237.000         195.000
  22510362.083   -10161883.52149  -7902372.71646  22510361.421    22510368.049
       227.000         181.000
  20802285.465   -24841167.98849 -19337699.69447  20802284.778    20802291.101
       242.000         208.000
  21791803.960   -15365630.57449 -11928318.58947  21791803.538    21791808.551
       239.000         196.000
 03  3 21  2  4  0.0000000  0  8G14G23G 9G17G 3G31G15G18
  20415218.960   -21377623.02749 -16636997.31648  20415218.598    20415223.035
       244.000         216.000
  23095470.863    -6731444.51749  -5212763.12646  23095470.379    23095477.009
       225.000         175.000
  23523713.370    -2176624.78749  -1689530.19145  23523713.172    23523719.939
       208.000         143.000
  23145698.585   -12998200.97349 -10114381.60445  23145698.866    23145705.383
       215.000         156.000
  21847400.814   -15027545.10349 -11692909.01747  21847400.589    21847406.653
       237.000         195.000
  22506609.647   -10181602.77949  -7917738.36046  22506609.458    22506615.173
       228.000         181.000
  20811248.089   -24794069.08449 -19300999.26547  20811247.463    20811253.796
       241.000         208.000
  21801965.449   -15312231.46849 -11886708.89647  21801965.034    21801969.872
       238.000         195.000
 03  3 21  2  4 30.0000000  0  8G14G23G 9G17G 3G31G15G18
  20408712.667   -21411813.68349 -16663639.36248  20408712.233    20408716.681
       242.000         216.000
  23106511.474    -6673425.68649  -5167553.65546  23106511.345    23106517.508
       224.000         175.000
  23527285.702    -2157852.39449  -1674902.30945  23527285.109    23527292.867
       209.000         145.000
  23161904.524   -12913037.51249 -10048020.50045  23161903.458    23161913.102
       213.000         156.000
  21853182.353   -14997163.04449 -11669234.70347  21853182.027    21853188.325
       237.000         195.000
  22502965.486   -10200753.02449  -7932660.60346  22502965.541    22502971.240
       229.000         182.000
  20820289.080   -24746558.24549 -19263977.84347  20820288.544    20820294.792
       241.000         208.000
  21812148.852   -15258717.64149 -11845009.81447  21812148.504    21812153.141
       238.000         195.000
 03  3 21  2  5  0.0000000  0  8G14G23G 9G17G 3G31G15G18
  20402307.478   -21445472.93749 -16689867.33248  20402307.227    20402311.488
       243.000         215.000
  23117555.410    -6615389.02549  -5122330.28446  23117554.620    23117561.667
       225.000         175.000
  23530969.286    -2138494.62949  -1659818.29545  23530968.539    23530975.917
       208.000         144.000
  23178164.037   -12827593.38549  -9981440.68945  23178163.541    23178172.153
       213.000         156.000
  21859060.464   -14966273.76649 -11645165.14947  21859060.208    21859066.717
       237.000         195.000
  22499429.796   -10219333.57149  -7947138.93546  22499428.830    22499435.345
       227.000         183.000
  20829408.560   -24698635.01449 -19226635.07747  20829407.871    20829414.238
       242.000         208.000
  21822353.899   -15205089.55349 -11803221.69547  21822353.769    21822358.355
       238.000         195.000
 03  3 21  2  5 30.0000000  0  8G14G23G 9G17G 3G31G15G18
  20396003.559   -21478600.30849 -16715680.84648  20396003.071    20396007.575
       243.000         215.000
  23128602.881    -6557334.35449  -5077092.87846  23128602.272    23128609.031
       226.000         175.000
  23534764.343    -2118551.15649  -1644277.88945  23534763.732    23534770.513
       206.000         142.000
  23194476.828   -12741869.62549  -9914642.98845  23194476.178    23194485.221
       213.000         156.000
  21865034.772   -14934878.48849 -11620701.30647  21865034.322    21865040.545
       237.000         195.000
  22496002.459   -10237344.04749  -7961173.05146  22496001.482    22496008.273
       227.000         182.000
  20838606.523   -24650299.51249 -19188971.06047  20838605.564    20838612.281
       242.000         208.000
  21832580.688   -15151347.41049 -11761344.70447  21832580.259    21832584.868
       239.000         195.000
 03  3 21  2  6  0.0000000  0  8G14G23G 9G17G 3G31G15G18
  20389800.762   -21511196.01149 -16741080.07448  20389800.305    20389804.828
       242.000         215.000
  23139653.583    -6499262.30849  -5031841.94146  23139653.251    23139659.513
       224.000         175.000
  23538670.747    -2098022.46449  -1628281.45745  23538670.238    23538678.160
       205.000         142.000
  23210842.619   -12655867.14549  -9847628.10245  23210842.148    23210850.520
       214.000         156.000
  21871104.959   -14902979.41649 -11595844.90647  21871104.939    21871110.962
       237.000         195.000
  22492683.613   -10254784.49349  -7974762.99046  22492682.990    22492689.185
       227.000         182.000
  20847882.805   -24601552.31549 -19150986.24147  20847882.132    20847888.805
       242.000         207.000
  21842828.983   -15097492.37649 -11719379.74647  21842828.664    21842833.128
       238.000         195.000
 03  3 21  2  6 30.0000000  0  8G14G23G 9G17G 3G31G15G18
  20383699.293   -21543259.27149 -16766064.41148  20383698.839    20383703.446
       242.000         215.000
  23150707.669    -6441172.80449  -4986577.40046  23150707.469    23150713.250
       225.000         175.000
  23542688.626    -2076908.45449  -1611828.95045  23542689.016    23542695.536
       205.000         141.000
  23227261.254   -12569586.74949  -9780396.64445  23227260.312    23227269.493
       214.000         155.000
  21877270.817   -14870577.79949 -11570596.90847  21877270.651    21877276.230
       236.000         195.000
  22489473.334   -10271654.54049  -7987908.46346  22489473.232    22489478.529
       228.000         182.000
  20857237.444   -24552393.36649 -19112680.58347  20857236.795    20857243.112
       241.000         207.000
  21853098.675   -15043524.64349 -11677326.97347  21853098.325    21853102.588
       238.000         195.000
 03  3 21  2  7  0.0000000  0  8G14G23G 9G17G 3G31G15G18
  20377699.118   -21574790.23449 -16790633.97348  20377698.913    20377703.290
       242.000         216.000
  23161764.934    -6383066.36549  -4941299.64446  23161764.294    23161771.451
       225.000         175.000
  23546817.797    -2055209.58549  -1594920.70645  23546817.577    23546824.162
       207.000         142.000
  23243732.461   -12483029.40849  -9712949.39545  23243730.760    23243740.395
       211.000         155.000
  21883531.866   -14837675.68349 -11544958.90847  21883531.666    21883537.603
       236.000         194.000
  22486371.585   -10287954.37749  -8000609.61946  22486370.620    22486377.190
       228.000         182.000
  20866670.324   -24502823.16349 -19074054.46147  20866669.675    20866675.990
       242.000         207.000
  21863389.664   -14989445.03349 -11635187.01647  21863389.510    21863393.836
       238.000         194.000
 03  3 21  2  7 30.0000000  0  8G14G23G 9G17G 3G31G15G18
  20371800.413   -21605788.29649 -16814788.28648  20371799.776    20371804.501
       242.000         216.000
  23172825.529    -6324942.39749  -4896008.24146  23172825.167    23172831.499
       226.000         175.000
  23551058.358    -2032925.47349  -1577556.42645  23551057.962    23551064.782
       206.000         142.000
  23260256.158   -12396196.00749  -9645287.02445  23260255.410    23260264.139
       213.000         154.000
  21889887.919   -14804274.35349 -11518931.90547  21889887.806    21889893.750
       236.000         194.000
  22483378.467   -10303683.20349  -8012865.83346  22483378.121    22483384.293
       229.000         182.000
  20876181.608   -24452841.19349 -19035107.48147  20876180.981    20876187.457
       241.000         207.000
  21873701.940   -14935253.48149 -11592959.83447  21873701.591    21873706.151
       237.000         194.000
 03  3 21  2  8  0.0000000  0  8G14G23G 9G17G 3G31G15G18
  20366003.137   -21636253.00349 -16838527.00048  20366002.750    20366007.352
       242.000         216.000
  23183889.467    -6266801.23949  -4850703.45046  23183888.858    23183895.761
       226.000         174.000
  23555410.133    -2010056.34849  -1559736.28845  23555409.749    23555415.868
       210.000         142.000
  23276832.417   -12309087.41049  -9577410.22745  23276832.374    23276840.465
       213.000         154.000
  21896338.498   -14770375.77249 -11492517.43747  21896338.350    21896344.463
       235.000         194.000
  22480494.057   -10318841.00849  -8024677.09246  22480493.308    22480499.321
       228.000         182.000
  20885771.101   -24402447.78949 -18995839.90247  20885770.592    20885776.923
       242.000         207.000
  21884035.481   -14880950.42749 -11550645.77547  21884035.108    21884039.786
       239.000         193.000
 03  3 21  2  8 30.0000000  0  8G14G23G 9G17G 3G31G15G18
  20360307.298   -21666184.73649 -16861850.40948  20360306.873    20360311.322
       242.000         216.000
  23194956.472    -6208643.63649  -4805385.82846  23194956.506    23194961.846
       226.000         174.000
  23559873.045    -1986603.36849  -1541461.19345  23559872.640    23559879.652
       206.000         142.000
  23293460.882   -12221704.64549  -9509319.78845  23293460.513    23293469.532
       212.000         155.000
  21902883.400   -14735982.04549 -11465717.14247  21902883.329    21902889.688
       235.000         194.000
  22477718.195   -10333428.14849  -8036043.67546  22477717.650    22477723.119
       228.000         182.000
  20895438.816   -24351643.74549 -18956252.34247  20895437.849    20895444.521
       240.000         206.000
  21894389.969   -14826537.18549 -11508245.84147  21894389.729    21894394.103
       237.000         193.000
 03  3 21  2  9  0.0000000  0  8G14G23G 9G17G 3G31G15G18
  20354713.053   -21695582.80349 -16884757.96848  20354712.895    20354717.112
       243.000         216.000
  23206026.711    -6150469.05749  -4760054.98646  23206027.182    23206032.827
       224.000         174.000
  23564447.197    -1962566.20249  -1522730.89145  23564446.603    23564453.506
       204.000         142.000
  23310141.254   -12134048.64349  -9441016.44045  23310141.175    23310149.500
       211.000         154.000
  21909522.270   -14701094.33949 -11438531.91847  21909522.533    21909528.205
       237.000         194.000
  22475051.012   -10347443.96149  -8046965.08546  22475050.996    22475056.542
       228.000         181.000
  20905184.689   -24300428.67949 -18916344.50747  20905184.042    20905190.571
       241.000         206.000
  21904765.494   -14772013.44549 -11465759.81647  21904765.097    21904769.982
       237.000         193.000
 03  3 21  2  9 30.0000000  0  8G14G23G 9G17G 3G31G15G18
  20349220.365   -21724447.23649 -16907249.71348  20349219.918    20349224.433
       242.000         216.000
  23217100.111    -6092277.82149  -4714711.15546  23217099.896    23217106.213
       226.000         173.000
  23569132.360    -1937945.15049  -1503545.60945  23569131.760    23569138.614
       205.000         141.000
  23326873.520   -12046120.24949  -9372500.83245  23326872.442    23326882.003
       212.000         154.000
  21916254.789   -14665714.68349 -11410963.35847  21916254.583    21916260.861
       236.000         194.000
  22472492.520   -10360888.50649  -8057441.32746  22472491.458    22472497.839
       227.000         180.000
  20915008.745   -24248802.80449 -18876116.56547  20915008.211    20915014.548
       240.000         206.000
  21915161.813   -14717380.20049 -11423188.45347  21915161.330    21915166.434
       236.000         193.000
 03  3 21  2 10  0.0000000  0  8G14G23G 9G17G 3G31G15G18
  20343829.212   -21752777.74649 -16929325.41748  20343828.720    20343833.333
       242.000         216.000
  23228176.751    -6034069.82449  -4669354.27546  23228176.298    23228182.965
       226.000         173.000
  23573928.462    -1912740.58949  -1483905.67745  23573927.959    23573935.426
       202.000         140.000
  23343657.247   -11957920.61549  -9303773.87845  23343657.162    23343665.337
       212.000         153.000
  21923080.634   -14629844.65449 -11383012.69247  21923080.557    21923086.724
       236.000         194.000
  22470042.725   -10373761.79349  -8067472.44546  22470041.944    22470048.960
       228.000         181.000
  20924910.991   -24196766.36949 -18835568.70547  20924910.686    20924916.700
       240.000         205.000
  21925578.935   -14662637.67049 -11380531.94247  21925578.908    21925583.079
       237.000         193.000
 03  3 21  2 10 30.0000000  0  8G14G23G 9G17G 3G31G15G18
  20338539.682   -21780574.13749 -16950984.92148  20338539.242    20338543.662
       242.000         216.000
  23239256.576    -5975845.00249  -4623984.27446  23239255.938    23239262.943
       225.000         173.000
  23578835.673    -1886952.62649  -1463811.11945  23578835.592    23578841.306
       202.000         141.000
  23360492.549   -11869450.48849  -9234836.15145  23360492.248    23360500.667
       211.000         153.000
  21929999.537   -14593485.96849 -11354681.26047  21929999.197    21930005.699
       236.000         194.000
  22467701.754   -10386063.52649  -8077058.19046  22467701.524    22467707.592
       228.000         181.000
  20934891.296   -24144319.43649 -18794700.97647  20934890.627    20934897.341
       239.000         205.000
  21936016.802   -14607786.31849 -11337790.63047  21936016.452    21936021.338
       237.000         193.000
 03  3 21  2 11  0.0000000  0  8G14G23G 9G17G 3G31G15G18
  20333351.697   -21807837.23049 -16972228.87248  20333351.664    20333355.668
       243.000         217.000
  23250339.324    -5917604.49749  -4578602.05746  23250338.905    23250345.591
       225.000         172.000
  23583853.614    -1860582.62749  -1443263.03245  23583853.968    23583860.878
       205.000         142.000
  23377379.110   -11780711.76949  -9165689.11545  23377378.867    23377387.388
       212.000         152.000
  21937010.871   -14556641.28649 -11325971.13447  21937010.743    21937016.818
       236.000         194.000
  22465469.375   -10397794.68949  -8086199.34746  22465469.119    22465474.997
       227.000         181.000
  20944949.460   -24091463.22749 -18753514.33147  20944948.874    20944955.385
       240.000         205.000
  21946475.078   -14552827.56749 -11294965.62847  21946474.352    21946479.976
       236.000         193.000
 03  3 21  2 11 30.0000000  0  8G14G23G 9G17G 3G31G15G18
  20328265.412   -21834566.09649 -16993056.53748  20328264.995    20328269.279
       243.000         217.000
  23261425.283    -5859347.60449  -4533207.05846  23261424.781    23261431.084
       225.000         172.000
  23588982.498    -1833630.22349  -1422261.11345  23588981.978    23588988.137
       208.000         143.000
  23394316.669   -11691704.44449  -9096332.79445  23394316.302    23394323.660
       212.000         152.000
  21944114.452   -14519311.71249 -11296883.16047  21944114.356    21944119.917
       236.000         193.000
  22463345.701   -10408954.35349  -8094895.17246  22463346.109    22463350.473
       228.000         181.000
  20955085.679   -24038197.33049 -18712008.44647  20955085.066    20955091.597
       241.000         205.000
  21956953.895   -14497760.79949 -11252056.45947  21956953.747    21956958.567
       236.000         192.000
 03  3 21  2 12  0.0000000  0  8G14G23G 9G17G 3G31G15G18
  20323280.692   -21860760.88349 -17013468.04448  20323280.136    20323284.616
       242.000         217.000
  23272514.258    -5801074.67049  -4487799.57646  23272513.504    23272520.871
       226.000         172.000
  23594221.995    -1806096.01649  -1400805.83445  23594221.780    23594228.620
       209.000         145.000
  23411305.130   -11602429.52449  -9026767.94945  23411304.881    23411313.437
       212.000         151.000
  21951309.936   -14481499.38549 -11267419.02447  21951309.764    21951315.327
       236.000         193.000
  22461330.791   -10419542.99349  -8103146.04346  22461330.634    22461335.946
       229.000         181.000
  20965299.736   -23984522.21749 -18670183.69947  20965299.295    20965305.634
       240.000         205.000
  21967453.209   -14442586.60049 -11209063.57247  21967452.629    21967457.803
       236.000         192.000
 03  3 21  2 12 30.0000000  0  8G14G23G 9G17G 3G31G15G18
  20318397.485   -21886422.02149 -17033463.71748  20318397.026    20318401.474
       242.000         216.000
  23283606.131    -5742786.15049  -4442379.93246  23283606.455    23283612.894
       224.000         172.000
  23599572.114    -1777981.07849  -1378898.05045  23599571.936    23599579.002
       210.000         146.000
  23428344.239   -11512889.09949  -8956996.21845  23428343.705    23428352.639
       212.000         151.000
  21958596.875   -14443206.72349 -11237580.60447  21958597.030    21958603.059
       237.000         194.000
  22459424.441   -10429561.07149  -8110952.33146  22459424.494    22459429.634
       229.000         182.000
  20975591.539   -23930438.58449 -18628040.62247  20975590.961    20975597.225
       240.000         205.000
  21977972.700   -14387306.21849 -11165987.94147  21977972.256    21977976.966
       237.000         192.000
 03  3 21  2 13  0.0000000  0  8G14G23G 9G17G 3G31G15G18
  20313615.957   -21911548.87249 -17053043.07048  20313615.607    20313620.048
       242.000         216.000
  23294701.123    -5684481.30149  -4396947.58146  23294700.634    23294707.384
       224.000         171.000
  23605032.670    -1749285.27549  -1356537.65445  23605032.776    23605039.097
       210.000         146.000
  23445433.678   -11423083.42549  -8887017.80345  23445433.884    23445441.538
       212.000         151.000
  21965975.005   -14404434.92149 -11207368.82247  21965974.802    21965981.183
       236.000         194.000
  22457626.900   -10439008.00449  -8118313.57046  22457626.369    22457631.969
       229.000         182.000
  20985961.127   -23875946.03549 -18585578.91147  20985960.692    20985967.190
       241.000         205.000
  21988512.518   -14331919.19149 -11122829.22247  21988512.360    21988516.915
       237.000         192.000
 03  3 21  2 13 30.0000000  0  8G14G23G 9G17G 3G31G15G18
  20308936.194   -21936141.32149 -17072205.99848  20308935.756    20308940.147
       242.000         216.000
  23305799.232    -5626160.23449  -4351502.58146  23305799.311    23305805.719
       225.000         172.000
  23610603.723    -1720009.02649  -1333724.93845  23610603.759    23610609.135
       211.000         147.000
  23462573.527   -11333013.07949  -8816833.15545  23462573.648    23462581.834
       211.000         150.000
  21973443.881   -14365185.80949 -11176785.11847  21973443.921    21973449.652
       236.000         194.000
  22455937.872   -10447883.88849  -8125229.82746  22455936.858    22455943.300
       229.000         183.000
  20996408.495   -23821044.97849 -18542798.88047  20996407.949    20996414.277
       240.000         205.000
  21999072.547   -14276426.04549 -11079587.80347  21999072.459    21999076.536
       236.000         192.000
 03  3 21  2 14  0.0000000  0  8G14G23G 9G17G 3G31G15G18
  20304357.983   -21960199.64549 -17090952.72748  20304357.596    20304362.016
       242.000         216.000
  23316900.417    -5567823.17249  -4306045.12446  23316899.906    23316906.582
       224.000         172.000
  23616285.142    -1690152.93149  -1310460.40945  23616285.846    23616292.668
       211.000         148.000
  23479763.328   -11242679.40549  -8746443.29645  23479762.399    23479771.882
       211.000         149.000
  21981003.216   -14325461.28049 -11145830.95347  21981002.978    21981009.060
       236.000         194.000
  22454357.463   -10456189.04149  -8131701.36046  22454357.162    22454362.254
       229.000         183.000
  21006933.450   -23765735.97349 -18499700.96447  21006932.793    21006939.176
       241.000         205.000
  22009652.664   -14220827.30449 -11036264.11047  22009652.585    22009656.989
       237.000         191.000
 03  3 21  2 14 30.0000000  0  8G14G23G 9G17G 3G31G15G18
  20299881.483   -21983723.77549 -17109283.20248  20299881.155    20299885.476
       242.000         216.000
  23328004.680    -5509469.88049  -4260575.01646  23328004.638    23328010.141
       226.000         171.000
  23622076.780    -1659717.62449  -1286744.54345  23622076.577    23622083.244
       212.000         148.000
  23497003.119   -11152083.60749  -8675849.21445  23497002.833    23497011.293
       212.000         150.000
  21988652.660   -14285263.21249 -11114507.81347  21988652.633    21988658.505
       236.000         194.000
  22452885.634   -10463923.47949  -8137728.19046  22452885.631    22452891.159
       229.000         183.000
  21017536.137   -23710018.84849 -18456285.04047  21017535.493    21017541.923
       241.000         205.000
  22020252.826   -14165123.40949 -10992858.47047  22020252.466    22020257.608
       236.000         192.000
 03  3 21  2 15  0.0000000  0  8G14G23G 9G17G 3G31G15G18
  20295506.519   -22006714.26449 -17127197.85248  20295506.074    20295510.563
       242.000         216.000
  23339111.886    -5451101.02349  -4215092.78646  23339111.469    23339118.566
       224.000         171.000
  23627978.462    -1628704.21749  -1262578.20645  23627978.261    23627984.726
       210.000         149.000
  23514292.668   -11061227.40849  -8605052.21345  23514292.284    23514300.841
       212.000         151.000
  21996391.723   -14244594.29549 -11082817.76947  21996391.565    21996397.626
       236.000         194.000
  22451522.233   -10471088.01649  -8143310.93046  22451521.695    22451527.345
       229.000         183.000
  21028216.238   -23653894.86549 -18412552.07847  21028215.479    21028222.020
       240.000         205.000
  22030872.732   -14109315.23349 -10949371.57747  22030872.344    22030877.138
       236.000         192.000
 03  3 21  2 15 30.0000000  0  8G14G23G 9G17G 3G31G15G18
  20291233.148   -22029170.83049 -17144696.45648  20291232.832    20291237.014
       242.000         216.000
  23350222.100    -5392716.16049  -4169598.09046  23350222.078    23350227.622
       223.000         171.000
  23633990.045    -1597112.88849  -1237961.55045  23633989.999    23633996.574
       210.000         149.000
  23531631.601   -10970111.19349  -8534052.60745  23531630.991    23531640.293
       212.000         151.000
  22004220.026   -14203456.16049 -11050762.09547  22004219.746    22004225.962
       235.000         193.000
  22450267.406   -10477682.38949  -8148449.39846  22450266.644    22450272.682
       229.000         183.000
  21038973.706   -23597363.95449 -18368502.02647  21038973.112    21038979.396
       241.000         205.000
  22041512.536   -14053402.82549 -10905803.45747  22041511.919    22041517.074
       237.000         192.000
 03  3 21  2 16  0.0000000  0  8G14G23G 9G17G 3G31G15G18
  20287061.441   -22051093.33049 -17161778.90848  20287061.040    20287065.323
       242.000         216.000
  23361335.485    -5334315.04749  -4124090.71946  23361335.234    23361341.372
       225.000         171.000
  23640111.646    -1564943.88049  -1212894.75145  23640111.431    23640118.459
       209.000         150.000
  23549019.726   -10878735.95449  -8462851.15945  23549019.313    23549028.042
       211.000         151.000
  22012137.290   -14161850.68549 -11018342.26447  22012137.354    22012143.506
       235.000         194.000
  22449120.983   -10483706.69249  -8153143.65546  22449120.148    22449126.299
       229.000         183.000
  21049808.570   -23540426.36449 -18324135.08947  21049808.001    21049814.341
       240.000         205.000
  22052172.086   -13997386.23549 -10862154.16147  22052171.489    22052176.524
       235.000         192.000
 03  3 21  2 16 30.0000000  0  8G14G23G 9G17G 3G31G15G18
  20282991.267   -22072482.20449 -17178445.55248  20282990.968    20282995.265
       242.000         217.000
  23372451.939    -5275898.00949  -4078570.94546  23372451.449    23372458.257
       225.000         171.000
  23646342.814    -1532198.12149  -1187378.53145  23646342.887    23646349.055
       208.000         149.000
  23566457.035   -10787102.71049  -8391448.67745  23566456.352    23566465.638
       210.000         151.000
  22020143.159   -14119779.81749 -10985559.79747  22020142.892    22020149.012
       235.000         194.000
  22448082.977   -10489161.38749  -8157394.05846  22448082.086    22448088.556
       229.000         183.000
  21060720.728   -23483082.50749 -18279451.58047  21060720.057    21060726.418
       240.000         204.000
  22062851.335   -13941266.17849 -10818424.24147  22062851.236    22062855.669
       236.000         192.000
 03  3 21  2 17  0.0000000  0  8G14G23G 9G17G 3G31G15G18
  20279022.558   -22093337.77649 -17194696.63348  20279022.255    20279026.539
       242.000         217.000
  23383571.363    -5217465.27049  -4033038.93646  23383571.260    23383577.374
       226.000         171.000
  23652683.612    -1498876.81849  -1161413.83945  23652683.198    23652690.290
       209.000         148.000
  23583943.025   -10695213.34349  -8319846.61145  23583942.227    23583951.519
       210.000         150.000
  22028237.054   -14077246.11849 -10952416.68047  22028236.899    22028243.214
       235.000         193.000
  22447153.252   -10494047.05349  -8161201.05146  22447152.939    22447158.283
       229.000         183.000
  21071710.062   -23425333.16849 -18234452.11247  21071709.489    21071715.799
       240.000         204.000
  22073550.218   -13885043.32649 -10774614.21447  22073550.109    22073554.785
       236.000         192.000
 03  3 21  2 17 30.0000000  0  8G14G23G 9G17G 3G31G15G18
  20275155.389   -22113659.80349 -17210531.96248  20275155.022    20275159.295
       242.000         217.000
  23394693.892    -5159016.57349  -3987494.49246  23394693.651    23394699.009
       225.000         172.000
  23659133.837    -1464980.23549  -1135000.88845  23659134.072    23659139.672
       211.000         148.000
  23601477.588   -10603068.15749  -8248045.19545  23601476.878    23601485.968
       211.000         151.000
  22036418.715   -14034251.14249 -10918914.12947  22036418.295    22036424.786
       235.000         193.000
  22446331.760   -10498363.58249  -8164564.56946  22446331.568    22446336.875
       230.000         183.000
  21082776.537   -23367178.38249 -18189136.70447  21082776.088    21082782.678
       240.000         204.000
  22084268.632   -13828717.57649 -10730724.01647  22084268.169    22084272.917
       235.000         191.000
 03  3 21  2 18  0.0000000  0  8G14G23G 9G17G 3G31G15G18
  20271389.437   -22133449.79649 -17225952.72048  20271389.089    20271393.426
       240.000         217.000
  23405819.165    -5100553.13649  -3941938.55246  23405818.679    23405825.249
       224.000         171.000
  23665693.327    -1430510.51049  -1108141.31745  23665692.812    23665700.314
       209.000         149.000
  23619060.494   -10510669.92149  -8176046.61545  23619060.485    23619068.802
       208.000         151.000
  22044687.472   -13990798.33949 -10885054.81947  22044686.931    22044693.536
       235.000         192.000
  22445618.394   -10502112.69849  -8167485.95446  22445617.972    22445623.923
       228.000         183.000
  21093919.841   -23308619.93049 -18143506.75747  21093919.224    21093925.634
       240.000         204.000
  22095006.313   -13772290.41649 -10686754.78547  22095005.986    22095010.704
       235.000         191.000
 03  3 21  2 18 30.0000000  0  8G14G23G 9G17G 3G31G15G18
  20267724.872   -22152707.48049 -17240958.69948  20267724.486    20267728.876
       241.000         217.000
  23416947.237    -5042074.35749  -3896370.67146  23416946.855    23416953.418
       224.000         171.000
  23672361.662    -1395467.68549  -1080835.19145  23672361.455    23672368.897
       209.000         148.000
  23636691.528   -10418018.79549  -8103850.96345  23636690.979    23636698.857
       213.000         151.000
  22053043.121   -13946889.13149 -10850839.86947  22053043.046    22053049.207
       235.000         192.000
  22445012.943   -10505294.17549  -8169965.02446  22445012.151    22445018.392
       228.000         182.000
  21105139.946   -23249657.82449 -18097562.27947  21105139.046    21105145.858
       238.000         203.000
  22105763.257   -13715762.17049 -10642706.79547  22105763.079    22105767.100
       235.000         190.000
 03  3 21  2 19  0.0000000  0  8G14G23G 9G17G 3G31G15G18
  20264161.570   -22171432.70749 -17255549.77048  20264161.273    20264165.473
       240.000         217.000
  23428078.409    -4983579.59449  -3850790.33346  23428077.759    23428083.915
       224.000         170.000
  23679138.990    -1359852.18949  -1053082.82745  23679139.133    23679145.606
       209.000         148.000
  23654370.502   -10325115.67949  -8031458.96645  23654370.880    23654378.590
       211.000         151.000
  22061485.277   -13902525.11349 -10816270.52547  22061485.022    22061491.499
       234.000         192.000
  22444515.459   -10507908.02849  -8172001.78946  22444515.365    22444520.810
       228.000         182.000
  21116436.821   -23190291.99249 -18051303.20347  21116436.006    21116442.771
       239.000         203.000
  22116539.548   -13659132.48749 -10598579.75847  22116539.328    22116543.575
       235.000         190.000
 03  3 21  2 19 30.0000000  0  8G14G23G 9G17G 3G31G15G18
  20260699.677   -22189625.07349 -17269725.62448  20260699.210    20260703.574
       241.000         217.000
  23439212.751    -4925068.36349  -3805197.15846  23439212.291    23439217.904
       222.000         169.000
  23686025.303    -1323664.44349  -1024884.55245  23686025.066    23686031.455
       209.000         148.000
  23672097.428   -10231961.17849  -7958871.08845  23672097.758    23672104.548
       212.000         150.000
  22070013.692   -13857708.06349 -10781348.17047  22070013.518    22070019.821
       234.000         191.000
  22444126.049   -10509954.01649  -8173596.05746  22444125.635    22444131.812
       227.000         183.000
  21127810.641   -23130522.31949 -18004729.44447  21127809.982    21127816.593
       239.000         203.000
  22127335.200   -13602401.04849 -10554373.43547  22127334.795    22127339.675
       235.000         189.000
 03  3 21  2 20  0.0000000  0  8G14G23G 9G17G 3G31G15G18
  20257339.206   -22207284.24749 -17283486.00748  20257338.806    20257343.161
       241.000         217.000
  23450350.266    -4866540.13649  -3759590.74446  23450349.521    23450356.465
       223.000         168.000
  23693020.488    -1286904.57149   -996240.46345  23693020.633    23693026.606
       209.000         147.000
  23689871.894   -10138556.10649  -7886087.96345  23689871.793    23689880.061
       209.000         150.000
  22078627.965   -13812439.60549 -10746074.05847  22078627.574    22078634.466
       234.000         191.000
  22443844.809   -10511432.15649  -8174747.85246  22443844.430    22443850.031
       229.000         183.000
  21139261.284   -23070348.86049 -17957841.05547  21139261.124    21139267.292
       239.000         203.000
  22138150.224   -13545567.90749 -10510087.85647  22138149.988    22138154.350
       235.000         189.000
 03  3 21  2 20 30.0000000  0  8G14G23G 9G17G 3G31G15G18
  20254080.041   -22224411.51549 -17296831.91648  20254079.762    20254083.792
       241.000         217.000
  23461490.869    -4807995.73449  -3713971.72146  23461490.498    23461496.965
       220.000         167.000
  23700124.173    -1249574.35349   -967151.94045  23700123.826    23700130.080
       208.000         144.000
  23707693.592   -10044902.41049  -7813111.09345  23707693.136    23707702.500
       212.000         148.000
  22087327.657   -13766722.40249 -10710450.28247  22087327.521    22087333.316
       235.000         191.000
  22443671.393   -10512343.63749  -8175458.08546  22443671.030    22443677.011
       228.000         183.000
  21150788.553   -23009772.86449 -17910638.99847  21150787.874    21150794.363
       239.000         203.000
  22148984.371   -13488634.08849 -10465723.83947  22148984.337    22148988.570
       235.000         189.000
 03  3 21  2 21  0.0000000  0  8G14G23G 9G17G 3G31G15G18
  20250922.087   -22241006.76249 -17309763.26348  20250921.659    20250925.852
       240.000         217.000
  23472634.639    -4749434.83849  -3668339.84446  23472634.383    23472640.852
       223.000         166.000
  23707336.192    -1211674.56249   -937619.61645  23707335.933    23707343.103
       207.000         144.000
  23725562.486    -9951001.01149  -7739941.20845  23725561.576    23725570.155
       212.000         148.000
  22096112.432   -13720558.60549 -10674478.51947  22096112.520    22096118.045
       235.000         190.000
  22443605.663   -10512688.76449  -8175727.00646  22443605.195    22443610.965
       228.000         183.000
  21162392.347   -22948794.67349 -17863123.54247  21162391.761    21162398.214
       239.000         202.000
  22159837.711   -13431599.58249 -10421281.35647  22159837.304    22159842.107
       235.000         189.000
 03  3 21  2 21 30.0000000  0  8G14G23G 9G17G 3G31G15G18
  20247865.223   -22257070.54649 -17322280.48548  20247865.005    20247869.190
       242.000         218.000
  23483781.550    -4690857.61549  -3622695.25846  23483780.937    23483787.944
       221.000         166.000
  23714656.329    -1173206.41249   -907644.40945  23714655.935    23714662.881
       208.000         143.000
  23743478.189    -9856853.07149  -7666579.21745  23743477.203    23743485.410
       210.000         147.000
  22104981.641   -13673950.66749 -10638160.65847  22104981.610    22104987.794
       233.000         190.000
  22443647.624   -10512468.19949  -8175555.12546  22443646.987    22443652.810
       228.000         182.000
  21174072.532   -22887414.95149 -17815295.19847  21174072.065    21174078.581
       238.000         202.000
  22170710.042   -13374465.12149 -10376760.98647  22170709.727    22170714.060
       232.000         188.000
 03  3 21  2 22  0.0000000  0  8G14G23G 9G17G 3G31G15G18
  20244909.429   -22272603.32149 -17334383.93348  20244908.991    20244913.374
       241.000         218.000
  23494931.608    -4632263.84449  -3577037.77446  23494931.058    23494937.812
       222.000         166.000
  23722084.572    -1134170.52249   -877226.79445  23722084.822    23722092.090
       206.000         143.000
  23761440.543    -9762459.76049  -7593026.02045  23761440.047    23761448.761
       212.000         147.000
  22113934.979   -13626900.60249 -10601498.29447  22113934.672    22113941.266
       234.000         189.000
  22443797.171   -10511682.44849  -8174942.84846  22443797.272    22443802.761
       228.000         182.000
  21185829.049   -22825634.24049 -17767154.40047  21185828.576    21185834.884
       239.000         202.000
  22181601.319   -13317230.82649 -10332162.83347  22181600.258    22181605.668
       234.000         188.000
 03  3 21  2 22 30.0000000  0  8G14G23G 9G17G 3G31G15G18
  20242054.552   -22287605.65649 -17346074.04748  20242054.008    20242058.560
       241.000         218.000
  23506084.795    -4573653.61849  -3531367.47546  23506084.207    23506090.628
       222.000         165.000
  23729620.720    -1094568.20649   -846367.80745  23729620.945    23729627.229
       207.000         142.000
  23779449.427    -9667822.69949  -7519282.90145  23779449.630    23779456.747
       211.000         147.000
  22122971.970   -13579410.81949 -10564493.28547  22122971.316    22122977.953
       233.000         189.000
  22444054.114   -10510332.42449  -8173890.87246  22444053.775    22444059.655
       229.000         183.000
  21197661.718   -22763453.20149 -17718701.65347  21197661.294    21197667.595
       238.000         202.000
  22192511.565   -13259897.27549 -10287487.32846  22192511.174    22192515.512
       234.000         187.000
 03  3 21  2 23  0.0000000  0  8G14G23G 9G17G 3G31G15G18
  20239300.539   -22302078.13949 -17357351.29348  20239300.234    20239304.346
       241.000         218.000
  23517241.041    -4515027.07749  -3485684.45446  23517239.724    23517247.278
       221.000         165.000
  23737264.290    -1054400.69549   -815068.41945  23737264.484    23737270.749
       208.000         142.000
  23797504.459    -9572943.17949  -7445350.83145  23797504.181    23797512.790
       212.000         147.000
  22132092.162   -13531483.86849 -10527147.62847  22132092.022    22132098.417
       233.000         189.000
  22444418.264   -10508418.79349  -8172399.72646  22444417.933    22444423.715
       228.000         183.000
  21209570.419   -22700872.63049 -17669937.59347  21209569.710    21209576.235
       238.000         201.000
  22203440.550   -13202464.78949 -10242734.73546  22203440.138    22203444.891
       234.000         187.000
 03  3 21  2 23 30.0000000  0  8G14G23G 9G17G 3G31G15G18
  20236647.261   -22316021.11349 -17368215.93048  20236646.921    20236651.036
       240.000         218.000
  23528400.458    -4456384.24249  -3439988.74146  23528399.498    23528406.788
       219.000         165.000
  23745015.234    -1013668.89449   -783329.31445  23745016.007    23745022.641
       207.000         141.000
  23815605.420    -9477822.36449  -7371230.75045  23815605.559    23815614.284
       211.000         147.000
  22141295.157   -13483121.98349 -10489463.06547  22141294.601    22141301.484
       233.000         189.000
  22444889.523   -10505942.26849  -8170469.95746  22444889.566    22444895.134
       231.000         183.000
  21221554.976   -22637893.26249 -17620862.77847  21221554.543    21221560.844
       239.000         201.000
  22214388.280   -13144934.00049 -10197905.54246  22214387.899    22214392.738
       233.000         187.000
 03  3 21  2 24  0.0000000  0  8G14G23G 9G17G 3G31G15G18
  20234094.741   -22329434.86049 -17378668.18548  20234094.428    20234098.580
       240.000         217.000
  23539562.975    -4397724.55149  -3394279.88746  23539562.270    23539569.326
       220.000         165.000
  23752873.470     -972373.59949   -751151.13945  23752872.998    23752879.259
       209.000         141.000
  23833752.044    -9382461.42149  -7296923.55945  23833750.738    23833759.231
       211.000         147.000
  22150580.508   -13434327.19949 -10451441.19147  22150580.762    22150586.349
       234.000         189.000
  22445467.906   -10502903.15449  -8168101.81646  22445467.476    22445473.583
       230.000         183.000
  21233615.412   -22574515.33549 -17571477.39547  21233614.864    21233621.521
       238.000         201.000
  22225354.688   -13087304.81249 -10152999.67046  22225354.217    22225359.368
       232.000         187.000
 03  3 21  2 24 30.0000000  0  8G14G23G 9G17G 3G31G15G18
  20231642.777   -22342319.76849 -17388708.35948  20231642.216    20231646.714
       240.000         217.000
  23550728.673    -4339048.03249  -3348557.92846  23550728.100    23550734.486
       219.000         164.000
  23760838.713     -930515.96549   -718534.79145  23760838.933    23760846.357
       208.000         142.000
  23851944.193    -9286861.36149  -7222430.03045  23851944.003    23851952.898
       212.000         147.000
  22159947.980   -13385101.65549 -10413083.65447  22159948.497    22159954.001
       234.000         189.000
  22446153.160   -10499302.21249  -8165295.87346  22446152.982    22446158.397
       231.000         183.000
  21245751.514   -22510739.70249 -17521782.11247  21245751.332    21245757.215
       239.000         201.000
  22236339.752   -13029577.56149 -10108017.39746  22236339.123    22236344.241
       232.000         186.000
 03  3 21  2 25  0.0000000  0  8G14G23G 9G17G 3G31G15G18
  20229291.278   -22354676.60949 -17398337.05448  20229290.883    20229295.209
       240.000         217.000
  23561897.564    -4280354.96949  -3302823.07646  23561897.378    23561904.017
       218.000         163.000
  23768910.785     -888097.39749   -685481.34745  23768910.815    23768917.263
       207.000         142.000
  23870181.544    -9191023.79349  -7147751.43845  23870180.348    23870189.330
       209.000         147.000
  22169396.743   -13335448.22049 -10374392.69947  22169396.396    22169402.719
       233.000         189.000
  22446945.131   -10495140.27949  -8162052.80346  22446944.614    22446950.612
       229.000         183.000
  21257963.185   -22446567.16349 -17471777.54847  21257962.749    21257968.905
       239.000         201.000
  22247343.436   -12971752.71449 -10062959.06546  22247343.155    22247347.753
       232.000         185.000
 03  3 21  2 25 30.0000000  0  8G14G23G 9G17G 3G31G15G18
  20227040.308   -22366505.54349 -17407554.38748  20227040.042    20227043.971
       240.000         217.000
  23573069.673    -4221644.98049  -3257075.04545  23573069.354    23573075.900
       219.000         162.000
  23777089.401     -845118.69349   -651991.45245  23777088.854    23777096.226
       209.000         142.000
  23888463.764    -9094949.76049  -7072888.57345  23888463.491    23888472.405
       211.000         147.000
  22178926.508   -13285368.73949 -10335369.75647  22178926.049    22178932.462
       233.000         188.000
  22447843.751   -10490417.99249  -8158373.09246  22447843.361    22447849.295
       230.000         184.000
  21270250.295   -22381998.09949 -17421464.00247  21270249.683    21270256.242
       239.000         201.000
  22258365.729   -12913830.44449 -10017824.83246  22258365.354    22258370.170
       232.000         185.000
 03  3 21  2 26  0.0000000  0  9G14G25G23G 9G17G 3G31G15G18
  20224889.696   -22377807.02149 -17416360.71548  20224889.330    20224893.438
       241.000         217.000
  24525859.659    -2680816.03749  -2058373.51345  24525859.461    24525866.617
       205.000         141.000
  23584245.120    -4162917.78749  -3211313.59145  23584244.747    23584251.578
       219.000         161.000
  23785374.309     -801580.91549   -618065.90645  23785374.188    23785380.803
       206.000         141.000
  23906790.855    -8998640.57049  -6997842.49445  23906790.403    23906797.889
       212.000         147.000
  22188536.970   -13234865.26249 -10296016.43047  22188536.676    22188543.119
       233.000         189.000
  22448848.949   -10485135.89149  -8154257.17446  22448848.536    22448854.251
       228.000         183.000
  21282612.794   -22317032.90349 -17370841.78147  21282612.374    21282618.577
       239.000         201.000
  22269406.490   -12855810.73649  -9972614.66346  22269406.201    22269411.019
       232.000         185.000
 03  3 21  2 26 30.0000000  0  9G14G25G23G 9G17G 3G31G15G18
  20222839.346   -22388581.85249 -17424756.67248  20222838.990    20222843.183
       240.000         218.000
  24507344.169    -2778114.59549  -2134190.45945  24507343.949    24507352.339
       206.000         141.000
  23595423.832    -4104173.43149  -3165538.76845  23595423.168    23595429.985
       218.000         161.000
  23793765.371     -757485.36249   -583705.72045  23793765.529    23793771.986
       205.000         141.000
  23925162.490    -8902097.36349  -6922614.03545  23925161.445    23925170.916
       209.000         146.000
  22198227.694   -13183940.47049 -10256334.81247  22198227.857    22198233.390
       234.000         189.000
  22449960.468   -10479294.79049  -8149705.65846  22449959.446    22449965.976
       229.000         184.000
  21295050.497   -22251672.50649 -17319911.61747  21295049.954    21295055.987
       238.000         200.000
  22280465.756   -12797694.19849  -9927329.04646  22280465.095    22280470.307
       231.000         184.000
 03  3 21  2 27  0.0000000  0  9G14G25G23G 9G17G 3G31G15G18
  20220889.090   -22398830.53449 -17432742.64448  20220888.750    20220892.741
       241.000         218.000
  24488816.889    -2875476.22749  -2210056.55245  24488816.505    24488824.515
       208.000         142.000
  23606605.856    -4045411.80949  -3119750.48945  23606606.117    23606611.984
       219.000         160.000
  23802262.317     -712833.20949   -548911.83845  23802262.367    23802269.074
       206.000         139.000
  23943578.055    -8805322.06949  -6847204.74345  23943577.336    23943586.377
       211.000         146.000
  22207998.200   -13132596.70849 -10216326.72647  22207998.393    22208003.827
       234.000         189.000
  22451178.074   -10472895.63149  -8144719.29546  22451177.233    22451183.917
       229.000         183.000
  21307563.245   -22185917.59349 -17268674.03647  21307562.601    21307569.115
       238.000         200.000
  22291543.331   -12739481.07549  -9881968.16646  22291543.266    22291547.829
       231.000         184.000
 03  3 21  2 27 30.0000000  0  9G14G25G23G 9G17G 3G31G15G18
  20219038.858   -22408553.62749 -17440319.06248  20219038.611    20219042.644
       241.000         218.000
  24470278.136    -2972898.47949  -2285969.89345  24470278.419    24470285.774
       210.000         143.000
  23617791.078    -3986632.73649  -3073948.63045  23617790.564    23617796.247
       218.000         159.000
  23810865.100     -667625.54849   -513685.08745  23810866.260    23810872.058
       203.000         137.000
  23962037.834    -8708315.65949  -6771615.34745  23962038.046    23962045.685
       208.000         144.000
  22217847.981   -13080836.11849 -10175993.82647  22217847.804    22217853.828
       233.000         188.000
  22452501.755   -10465939.18749  -8139298.68746  22452501.027    22452507.649
       228.000         183.000
  21320150.909   -22119768.99649 -17217129.69047  21320150.407    21320156.300
       238.000         200.000
  22302639.248   -12681171.53549  -9836532.16946  22302638.764    22302643.933
       232.000         184.000
 03  3 21  2 28  0.0000000  0  9G14G25G23G 9G17G 3G31G15G18
  20217288.472   -22417751.94649 -17447486.56648  20217287.883    20217292.324
       240.000         218.000
  24451728.194    -3070378.85949  -2361928.53345  24451727.681    24451735.480
       208.000         143.000
  23628979.619    -3927836.43349  -3028133.33045  23628979.028    23628985.822
       217.000         159.000
  23819573.145     -621864.12949   -478026.83445  23819573.402    23819580.231
       206.000         137.000
  23980541.226    -8611079.39049  -6695846.86645  23980541.177    23980549.686
       207.000         144.000
  22227776.373   -13028661.71949 -10135338.48347  22227775.941    22227781.959
       233.000         188.000
  22453931.367   -10458426.53849  -8133444.66846  22453931.007    22453937.107
       230.000         183.000
  21332813.351   -22053227.70049 -17165279.34447  21332812.561    21332819.205
       238.000         199.000
  22313753.509   -12622766.10749  -9791021.44546  22313753.150    22313757.563
       232.000         184.000
 03  3 21  2 28 30.0000000  0  9G14G25G23G 9G17G 3G31G15G18
  20215637.793   -22426426.04049 -17454245.58548  20215637.286    20215641.436
       240.000         218.000
  24433167.722    -3167914.68449  -2437930.37845  24433167.710    24433175.630
       211.000         145.000
  23640171.557    -3869022.31149  -2982304.15345  23640170.940    23640177.601
       217.000         158.000
  23828386.427     -575550.06049   -441937.93345  23828386.911    23828393.469
       199.000         135.000
  23999088.064    -8513614.68249  -6619900.35345  23999087.447    23999095.979
       207.000         142.000
  22237783.188   -12976075.52349 -10094362.25547  22237782.893    22237789.232
       232.000         188.000
  22455466.621   -10450358.41049  -8127157.81246  22455465.735    22455472.222
       228.000         184.000
  21345550.449   -21986293.99849 -17113123.22447  21345549.813    21345556.341
       238.000         199.000
  22324885.975   -12564264.69749  -9745435.92746  22324885.583    22324890.225
       231.000         184.000
 03  3 21  2 29  0.0000000  0  9G14G25G23G 9G17G 3G31G15G18
  20214086.812   -22434576.47749 -17460596.56148  20214086.519    20214090.592
       241.000         218.000
  24414597.089    -3265503.73149  -2513973.71045  24414596.736    24414605.064
       210.000         145.000
  23651366.901    -3810190.29549  -2936461.02845  23651367.199    23651373.139
       216.000         157.000
  23837304.519     -528684.69549   -405419.45945  23837303.998    23837310.274
       201.000         133.000
  24017678.355    -8415922.54149  -6543776.64645  24017677.458    24017685.558
       204.000         142.000
  22247867.913   -12923079.86749 -10053066.96147  22247867.792    22247873.368
       232.000         188.000
  22457107.478   -10441735.58049  -8120438.72446  22457106.709    22457113.186
       228.000         184.000
  21358362.035   -21918968.75749 -17060662.00847  21358361.354    21358367.593
       238.000         199.000
  22336036.619   -12505667.61949  -9699775.87246  22336036.544    22336041.157
       231.000         184.000
 03  3 21  2 29 30.0000000  0  9G14G25G23G 9G17G 3G31G15G18
  20212635.439   -22442203.38749 -17466539.59048  20212635.044    20212639.180
       241.000         218.000
  24396016.918    -3363142.89549  -2590056.08945  24396016.679    24396024.151
       210.000         147.000
  23662565.786    -3751339.73249  -2890603.45345  23662565.047    23662571.978
       214.000         157.000
  23846327.448     -481268.59949   -368471.85445  23846325.502    23846332.703
       197.000         132.000
  24036311.751    -8318003.93349  -6467476.45045  24036311.957    24036320.859
       206.000         141.000
  22258030.227   -12869676.75249 -10011454.17147  22258030.276    22258036.405
       232.000         188.000
  22458853.812   -10432558.44449  -8113287.70946  22458853.359    22458860.011
       228.000         185.000
  21371248.070   -21851252.15849 -17007895.84347  21371247.483    21371253.508
       238.000         199.000
  22347205.498   -12446974.51449  -9654040.97446  22347204.832    22347210.733
       231.000         184.000
 03  3 21  2 30  0.0000000  0  9G14G25G23G 9G17G 3G31G15G18
  20211283.237   -22449309.37849 -17472076.71248  20211282.890    20211286.991
       241.000         218.000
  24377427.412    -3460831.45849  -2666176.96745  24377427.058    24377434.941
       212.000         147.000
  23673767.780    -3692472.40349  -2844732.82245  23673766.822    23673773.671
       216.000         157.000
  23855454.416     -433305.09149   -331097.71145  23855454.602    23855462.146
       197.000         133.000
  24054987.448    -8219862.11449  -6391002.33945  24054986.989    24054995.660
       205.000         140.000
  22268269.281   -12815870.55549  -9969527.30547  22268269.088    22268275.328
       231.000         188.000
  22460705.090   -10422829.96049  -8105707.07346  22460704.218    22460711.118
       228.000         185.000
  21384208.030   -21783146.93549 -16954826.85347  21384207.391    21384213.574
       237.000         198.000
  22358392.247   -12388187.74849  -9608233.10146  22358391.737    22358396.428
       231.000         184.000
 03  3 21  2 30 30.0000000  0  9G14G25G23G 9G17G 3G31G15G18
  20210030.302   -22455893.42549 -17477207.12248  20210029.847    20210033.864
       241.000         218.000
  24358829.354    -3558565.00049  -2742332.90545  24358828.954    24358836.319
       212.000         147.000
  23684973.378    -3633586.46849  -2798847.67045  23684972.944    23684979.349
       214.000         156.000
  23864685.773     -384793.71749   -293296.63545  23864684.283    23864692.693
       199.000         133.000
  24073705.788    -8121496.77849  -6314354.04245  24073704.831    24073714.655
       204.000         140.000
  22278584.881   -12761661.81049  -9927286.75046  22278584.227    22278590.923
       231.000         187.000
  22462661.386   -10412549.29349  -8097696.17546  22462661.053    22462667.074
       228.000         185.000
  21397242.141   -21714652.02649 -16901454.20347  21397241.468    21397247.827
       237.000         198.000
  22369597.101   -12329305.78649  -9562351.05646  22369596.541    22369601.224
       231.000         184.000
 03  3 21  2 31  0.0000000  0  9G14G25G23G 9G17G 3G31G15G18
  20208876.531   -22461956.44049 -17481931.53248  20208876.036    20208880.161
       241.000         218.000
  24340223.147    -3656340.83949  -2818521.80345  24340222.245    24340230.621
       211.000         148.000
  23696182.527    -3574681.98649  -2752948.09145  23696182.424    23696188.281
       215.000         157.000
  23874021.148     -335736.22749   -255070.01245  23874019.970    23874025.201
       199.000         133.000
  24092466.289    -8022909.61349  -6237532.89245  24092466.293    24092475.081
       204.000         140.000
  22288976.529   -12707053.32749  -9884734.71446  22288975.903    22288982.828
       231.000         187.000
  22464722.551   -10401717.74749  -8089256.02046  22464722.306    22464728.268
       228.000         185.000
  21410350.175   -21645768.60049 -16847778.82147  21410349.503    21410356.184
       236.000         198.000
  22380820.075   -12270328.82349  -9516394.98246  22380819.451    22380824.293
       230.000         183.000
 03  3 21  2 31 30.0000000  0  9G14G25G23G 9G17G 3G31G15G18
  20207821.693   -22467499.46349 -17486250.75648  20207821.246    20207825.513
       241.000         218.000
  24321609.212    -3754157.04949  -2894742.15145  24321609.540    24321616.635
       211.000         148.000
  23707395.255    -3515758.94149  -2707034.04245  23707396.071    23707401.726
       214.000         157.000
  23883460.044     -286134.27349   -216419.14545  23883460.255    23883466.328
       200.000         133.000
  24111268.666    -7924102.01049  -6160539.97645  24111267.747    24111276.544
       202.000         139.000
  22299443.704   -12652047.72049  -9841873.23346  22299443.157    22299449.819
       231.000         187.000
  22466888.342   -10390336.54549  -8080387.56446  22466888.457    22466894.126
       229.000         185.000
  21423531.925   -21576497.90649 -16793801.67447  21423531.468    21423537.920
       236.000         198.000
  22392060.885   -12211257.68249  -9470365.51746  22392060.649    22392064.946
       230.000         183.000
 03  3 21  2 32  0.0000000  0  9G14G25G23G 9G17G 3G31G15G18
  20206865.789   -22472522.84849 -17490165.06848  20206865.148    20206869.552
       240.000         218.000
  24302988.165    -3852010.63449  -2970991.64445  24302987.602    24302994.599
       210.000         147.000
  23718611.637    -3456816.70849  -2661105.03545  23718611.007    23718618.229
       214.000         156.000
  23893002.425     -235988.90149   -177344.80545  23893001.539    23893008.835
       200.000         133.000
  24130112.985    -7825074.59549  -6083375.77945  24130111.711    24130119.566
       205.000         139.000
  22309986.036   -12596647.38449  -9798704.17346  22309985.988    22309992.123
       231.000         186.000
  22469158.655   -10378406.20349  -8071091.18746  22469158.665    22469164.582
       228.000         185.000
  21436787.392   -21506839.96549 -16739522.77547  21436786.851    21436793.301
       236.000         197.000
  22403319.655   -12152091.84949  -9424262.27446  22403318.995    22403324.159
       230.000         182.000
 03  3 21  2 32 30.0000000  0  9G14G25G23G 9G17G 3G31G15G18
  20206008.467   -22477027.85649 -17493675.44848  20206008.072    20206012.120
       241.000         218.000
  24284360.402    -3949899.55549  -3047268.64445  24284359.188    24284367.352
       209.000         147.000
  23729831.516    -3397855.85849  -2615161.51045  23729831.969    23729838.268
       214.000         157.000
  23902647.744     -185302.25249   -137848.72445  23902648.920    23902654.959
       201.000         134.000
  24148998.639    -7725829.76149  -6006042.16845  24148998.396    24149007.708
       205.000         139.000
  22320602.944   -12540855.05549  -9755229.64946  22320602.868    22320609.050
       233.000         186.000
  22471533.100   -10365928.35849  -8061368.19646  22471532.692    22471539.244
       228.000         185.000
  21450116.265   -21436796.40749 -16684943.41047  21450115.714    21450122.163
       237.000         197.000
  22414596.367   -12092832.08349  -9378085.83246  22414595.868    22414601.145
       228.000         182.000
 03  3 21  2 33  0.0000000  0  9G14G25G23G 9G17G 3G31G15G18
  20205249.834   -22481014.63849 -17496782.01948  20205249.327    20205253.581
       240.000         218.000
  24265726.455    -4047820.77249  -3123570.82145  24265725.888    24265734.833
       207.000         147.000
  23741055.126    -3338875.48749  -2569202.80245  23741054.880    23741061.859
       214.000         156.000
  23912396.120     -134075.03449    -97931.41445  23912396.462    23912402.377
       204.000         135.000
  24167925.678    -7626368.29649  -5928539.74545  24167925.433    24167933.426
       205.000         140.000
  22331294.144   -12484672.67549  -9711451.20346  22331293.677    22331300.550
       232.000         186.000
  22474011.587   -10352903.60149  -8051219.03846  22474011.166    22474017.503
       228.000         184.000
  21463518.481   -21366367.44049 -16630063.72247  21463518.086    21463524.688
       237.000         197.000
  22425890.982   -12033478.02449  -9331835.91046  22425890.159    22425895.315
       229.000         182.000
